<?xml version="1.0" encoding="UTF-8" standalone="no" ?>
<gpx xmlns="http://www.topografix.com/GPX/1/1" xmlns:xsi="http://www.w3.org/2001/XMLSchema-instance" xsi:schemaLocation="http://www.topografix.com/GPX/1/1 http://www.topografix.com/GPX/1/1/gpx.xsd" version="1.1" creator="VisuGPX - https://www.visugpx.com">
  <metadata>
    <name>Sortie VTT Les Cabannes</name>
    <desc><![CDATA[Sortie VTT aux Cabannes
Reprend une partie du parcours de la Cordiolo]]></desc>
  </metadata>
  <trk>
    <name><![CDATA[29/07/2020 08:21:38]]></name>
    <extensions>
      <line xmlns="http://www.topografix.com/GPX/gpx_style/0/2">
        <color>0000FF</color>
        <width>4</width>
      </line>
    </extensions>
    <trkseg>
      <trkpt lat="44.06771" lon="1.9406">
        <ele>160.19999694824</ele>
        <time>2020-07-29T06:21:38Z</time>
      </trkpt>
      <trkpt lat="44.06783" lon="1.94034">
        <ele>160</ele>
        <time>2020-07-29T06:21:46Z</time>
      </trkpt>
      <trkpt lat="44.06797" lon="1.94034">
        <ele>160.19999694824</ele>
        <time>2020-07-29T06:21:50Z</time>
      </trkpt>
      <trkpt lat="44.06814" lon="1.94036">
        <ele>160.60000610352</ele>
        <time>2020-07-29T06:21:56Z</time>
      </trkpt>
      <trkpt lat="44.0682" lon="1.94038">
        <ele>161.39999389648</ele>
        <time>2020-07-29T06:21:59Z</time>
      </trkpt>
      <trkpt lat="44.06831" lon="1.94039">
        <ele>161.80000305176</ele>
        <time>2020-07-29T06:22:03Z</time>
      </trkpt>
      <trkpt lat="44.06852" lon="1.94041">
        <ele>162</ele>
        <time>2020-07-29T06:22:10Z</time>
      </trkpt>
      <trkpt lat="44.06856" lon="1.94038">
        <ele>161.80000305176</ele>
        <time>2020-07-29T06:22:12Z</time>
      </trkpt>
      <trkpt lat="44.06857" lon="1.94033">
        <ele>161.80000305176</ele>
        <time>2020-07-29T06:22:14Z</time>
      </trkpt>
      <trkpt lat="44.06856" lon="1.94017">
        <ele>161.60000610352</ele>
        <time>2020-07-29T06:22:17Z</time>
      </trkpt>
      <trkpt lat="44.06861" lon="1.94001">
        <ele>160.19999694824</ele>
        <time>2020-07-29T06:22:20Z</time>
      </trkpt>
      <trkpt lat="44.06863" lon="1.93997">
        <ele>160</ele>
        <time>2020-07-29T06:22:21Z</time>
      </trkpt>
      <trkpt lat="44.06875" lon="1.93977">
        <ele>159.60000610352</ele>
        <time>2020-07-29T06:22:26Z</time>
      </trkpt>
      <trkpt lat="44.06892" lon="1.93955">
        <ele>159.60000610352</ele>
        <time>2020-07-29T06:22:33Z</time>
      </trkpt>
      <trkpt lat="44.06901" lon="1.93934">
        <ele>159.80000305176</ele>
        <time>2020-07-29T06:22:39Z</time>
      </trkpt>
      <trkpt lat="44.06907" lon="1.93906">
        <ele>159.80000305176</ele>
        <time>2020-07-29T06:22:45Z</time>
      </trkpt>
      <trkpt lat="44.06913" lon="1.93866">
        <ele>159.60000610352</ele>
        <time>2020-07-29T06:22:54Z</time>
      </trkpt>
      <trkpt lat="44.06914" lon="1.93858">
        <ele>159.60000610352</ele>
        <time>2020-07-29T06:22:56Z</time>
      </trkpt>
      <trkpt lat="44.06917" lon="1.93841">
        <ele>159.60000610352</ele>
        <time>2020-07-29T06:23:01Z</time>
      </trkpt>
      <trkpt lat="44.06922" lon="1.93815">
        <ele>159.39999389648</ele>
        <time>2020-07-29T06:23:07Z</time>
      </trkpt>
      <trkpt lat="44.06926" lon="1.93795">
        <ele>159.60000610352</ele>
        <time>2020-07-29T06:23:14Z</time>
      </trkpt>
      <trkpt lat="44.06933" lon="1.93773">
        <ele>159.60000610352</ele>
        <time>2020-07-29T06:23:21Z</time>
      </trkpt>
      <trkpt lat="44.06942" lon="1.93752">
        <ele>159.19999694824</ele>
        <time>2020-07-29T06:23:30Z</time>
      </trkpt>
      <trkpt lat="44.06948" lon="1.93742">
        <ele>159.19999694824</ele>
        <time>2020-07-29T06:23:34Z</time>
      </trkpt>
      <trkpt lat="44.06957" lon="1.93732">
        <ele>159.19999694824</ele>
        <time>2020-07-29T06:23:37Z</time>
      </trkpt>
      <trkpt lat="44.06977" lon="1.93715">
        <ele>159.39999389648</ele>
        <time>2020-07-29T06:23:43Z</time>
      </trkpt>
      <trkpt lat="44.06983" lon="1.93702">
        <ele>159.39999389648</ele>
        <time>2020-07-29T06:23:48Z</time>
      </trkpt>
      <trkpt lat="44.06988" lon="1.93694">
        <ele>159.39999389648</ele>
        <time>2020-07-29T06:23:51Z</time>
      </trkpt>
      <trkpt lat="44.06993" lon="1.93687">
        <ele>159.39999389648</ele>
        <time>2020-07-29T06:23:54Z</time>
      </trkpt>
      <trkpt lat="44.07003" lon="1.93665">
        <ele>159.39999389648</ele>
        <time>2020-07-29T06:24:00Z</time>
      </trkpt>
      <trkpt lat="44.07009" lon="1.93649">
        <ele>159.39999389648</ele>
        <time>2020-07-29T06:24:06Z</time>
      </trkpt>
      <trkpt lat="44.07012" lon="1.9363">
        <ele>159.39999389648</ele>
        <time>2020-07-29T06:24:13Z</time>
      </trkpt>
      <trkpt lat="44.07015" lon="1.93609">
        <ele>159.39999389648</ele>
        <time>2020-07-29T06:24:20Z</time>
      </trkpt>
      <trkpt lat="44.07021" lon="1.9358">
        <ele>159.39999389648</ele>
        <time>2020-07-29T06:24:28Z</time>
      </trkpt>
      <trkpt lat="44.07027" lon="1.93562">
        <ele>159.39999389648</ele>
        <time>2020-07-29T06:24:34Z</time>
      </trkpt>
      <trkpt lat="44.07031" lon="1.9356">
        <ele>159.39999389648</ele>
        <time>2020-07-29T06:24:35Z</time>
      </trkpt>
      <trkpt lat="44.07046" lon="1.93563">
        <ele>159.19999694824</ele>
        <time>2020-07-29T06:24:41Z</time>
      </trkpt>
      <trkpt lat="44.07055" lon="1.93559">
        <ele>159.39999389648</ele>
        <time>2020-07-29T06:24:45Z</time>
      </trkpt>
      <trkpt lat="44.07065" lon="1.93548">
        <ele>159.39999389648</ele>
        <time>2020-07-29T06:24:51Z</time>
      </trkpt>
      <trkpt lat="44.07082" lon="1.9354">
        <ele>159.39999389648</ele>
        <time>2020-07-29T06:24:58Z</time>
      </trkpt>
      <trkpt lat="44.07091" lon="1.93535">
        <ele>159.60000610352</ele>
        <time>2020-07-29T06:25:02Z</time>
      </trkpt>
      <trkpt lat="44.07095" lon="1.93529">
        <ele>159.60000610352</ele>
        <time>2020-07-29T06:25:04Z</time>
      </trkpt>
      <trkpt lat="44.07112" lon="1.93507">
        <ele>159.39999389648</ele>
        <time>2020-07-29T06:25:11Z</time>
      </trkpt>
      <trkpt lat="44.07128" lon="1.93486">
        <ele>159.39999389648</ele>
        <time>2020-07-29T06:25:17Z</time>
      </trkpt>
      <trkpt lat="44.0715" lon="1.93458">
        <ele>159.39999389648</ele>
        <time>2020-07-29T06:25:25Z</time>
      </trkpt>
      <trkpt lat="44.07166" lon="1.9345">
        <ele>159.19999694824</ele>
        <time>2020-07-29T06:25:30Z</time>
      </trkpt>
      <trkpt lat="44.07184" lon="1.93461">
        <ele>159.60000610352</ele>
        <time>2020-07-29T06:25:35Z</time>
      </trkpt>
      <trkpt lat="44.07207" lon="1.93476">
        <ele>159.80000305176</ele>
        <time>2020-07-29T06:25:42Z</time>
      </trkpt>
      <trkpt lat="44.07228" lon="1.93489">
        <ele>159.80000305176</ele>
        <time>2020-07-29T06:25:48Z</time>
      </trkpt>
      <trkpt lat="44.07254" lon="1.93506">
        <ele>160</ele>
        <time>2020-07-29T06:25:56Z</time>
      </trkpt>
      <trkpt lat="44.0726" lon="1.93509">
        <ele>160.19999694824</ele>
        <time>2020-07-29T06:25:58Z</time>
      </trkpt>
      <trkpt lat="44.07279" lon="1.93517">
        <ele>161.39999389648</ele>
        <time>2020-07-29T06:26:04Z</time>
      </trkpt>
      <trkpt lat="44.07297" lon="1.93517">
        <ele>162.60000610352</ele>
        <time>2020-07-29T06:26:10Z</time>
      </trkpt>
      <trkpt lat="44.07301" lon="1.93515">
        <ele>162.60000610352</ele>
        <time>2020-07-29T06:26:11Z</time>
      </trkpt>
      <trkpt lat="44.07307" lon="1.93508">
        <ele>162.80000305176</ele>
        <time>2020-07-29T06:26:13Z</time>
      </trkpt>
      <trkpt lat="44.07311" lon="1.93496">
        <ele>162.80000305176</ele>
        <time>2020-07-29T06:26:15Z</time>
      </trkpt>
      <trkpt lat="44.07326" lon="1.9348">
        <ele>161.80000305176</ele>
        <time>2020-07-29T06:26:19Z</time>
      </trkpt>
      <trkpt lat="44.0733" lon="1.93479">
        <ele>161</ele>
        <time>2020-07-29T06:26:20Z</time>
      </trkpt>
      <trkpt lat="44.07344" lon="1.9348">
        <ele>160.80000305176</ele>
        <time>2020-07-29T06:26:23Z</time>
      </trkpt>
      <trkpt lat="44.07348" lon="1.93481">
        <ele>160.80000305176</ele>
        <time>2020-07-29T06:26:24Z</time>
      </trkpt>
      <trkpt lat="44.07364" lon="1.93478">
        <ele>161.39999389648</ele>
        <time>2020-07-29T06:26:29Z</time>
      </trkpt>
      <trkpt lat="44.07371" lon="1.9346">
        <ele>162.19999694824</ele>
        <time>2020-07-29T06:26:33Z</time>
      </trkpt>
      <trkpt lat="44.07388" lon="1.93417">
        <ele>163</ele>
        <time>2020-07-29T06:26:42Z</time>
      </trkpt>
      <trkpt lat="44.07401" lon="1.9338">
        <ele>162.80000305176</ele>
        <time>2020-07-29T06:26:50Z</time>
      </trkpt>
      <trkpt lat="44.07416" lon="1.93341">
        <ele>163</ele>
        <time>2020-07-29T06:26:59Z</time>
      </trkpt>
      <trkpt lat="44.07427" lon="1.93314">
        <ele>163.19999694824</ele>
        <time>2020-07-29T06:27:05Z</time>
      </trkpt>
      <trkpt lat="44.07432" lon="1.93302">
        <ele>163.60000610352</ele>
        <time>2020-07-29T06:27:08Z</time>
      </trkpt>
      <trkpt lat="44.07444" lon="1.93267">
        <ele>164.19999694824</ele>
        <time>2020-07-29T06:27:16Z</time>
      </trkpt>
      <trkpt lat="44.07446" lon="1.93263">
        <ele>164.39999389648</ele>
        <time>2020-07-29T06:27:17Z</time>
      </trkpt>
      <trkpt lat="44.07462" lon="1.93224">
        <ele>164.60000610352</ele>
        <time>2020-07-29T06:27:26Z</time>
      </trkpt>
      <trkpt lat="44.0747" lon="1.93211">
        <ele>164.39999389648</ele>
        <time>2020-07-29T06:27:29Z</time>
      </trkpt>
      <trkpt lat="44.07483" lon="1.93192">
        <ele>164</ele>
        <time>2020-07-29T06:27:34Z</time>
      </trkpt>
      <trkpt lat="44.07506" lon="1.93159">
        <ele>164</ele>
        <time>2020-07-29T06:27:42Z</time>
      </trkpt>
      <trkpt lat="44.0752" lon="1.93136">
        <ele>163.80000305176</ele>
        <time>2020-07-29T06:27:48Z</time>
      </trkpt>
      <trkpt lat="44.07536" lon="1.93105">
        <ele>164.80000305176</ele>
        <time>2020-07-29T06:27:56Z</time>
      </trkpt>
      <trkpt lat="44.07544" lon="1.93083">
        <ele>165.39999389648</ele>
        <time>2020-07-29T06:28:02Z</time>
      </trkpt>
      <trkpt lat="44.07545" lon="1.93079">
        <ele>165.39999389648</ele>
        <time>2020-07-29T06:28:03Z</time>
      </trkpt>
      <trkpt lat="44.07548" lon="1.93055">
        <ele>166.60000610352</ele>
        <time>2020-07-29T06:28:09Z</time>
      </trkpt>
      <trkpt lat="44.07548" lon="1.93046">
        <ele>167.80000305176</ele>
        <time>2020-07-29T06:28:11Z</time>
      </trkpt>
      <trkpt lat="44.07548" lon="1.93027">
        <ele>166.60000610352</ele>
        <time>2020-07-29T06:28:15Z</time>
      </trkpt>
      <trkpt lat="44.07547" lon="1.93003">
        <ele>165.80000305176</ele>
        <time>2020-07-29T06:28:20Z</time>
      </trkpt>
      <trkpt lat="44.07542" lon="1.92977">
        <ele>165.80000305176</ele>
        <time>2020-07-29T06:28:26Z</time>
      </trkpt>
      <trkpt lat="44.07533" lon="1.92944">
        <ele>165.60000610352</ele>
        <time>2020-07-29T06:28:33Z</time>
      </trkpt>
      <trkpt lat="44.07531" lon="1.92939">
        <ele>165.60000610352</ele>
        <time>2020-07-29T06:28:34Z</time>
      </trkpt>
      <trkpt lat="44.07516" lon="1.92906">
        <ele>165</ele>
        <time>2020-07-29T06:28:41Z</time>
      </trkpt>
      <trkpt lat="44.07506" lon="1.92889">
        <ele>164.39999389648</ele>
        <time>2020-07-29T06:28:45Z</time>
      </trkpt>
      <trkpt lat="44.07492" lon="1.92865">
        <ele>164.19999694824</ele>
        <time>2020-07-29T06:28:50Z</time>
      </trkpt>
      <trkpt lat="44.07475" lon="1.92831">
        <ele>163.39999389648</ele>
        <time>2020-07-29T06:28:57Z</time>
      </trkpt>
      <trkpt lat="44.07473" lon="1.92827">
        <ele>163.39999389648</ele>
        <time>2020-07-29T06:28:58Z</time>
      </trkpt>
      <trkpt lat="44.07457" lon="1.92789">
        <ele>163.19999694824</ele>
        <time>2020-07-29T06:29:06Z</time>
      </trkpt>
      <trkpt lat="44.07448" lon="1.92754">
        <ele>163.60000610352</ele>
        <time>2020-07-29T06:29:13Z</time>
      </trkpt>
      <trkpt lat="44.0744" lon="1.92729">
        <ele>163.80000305176</ele>
        <time>2020-07-29T06:29:19Z</time>
      </trkpt>
      <trkpt lat="44.07433" lon="1.92715">
        <ele>164.60000610352</ele>
        <time>2020-07-29T06:29:24Z</time>
      </trkpt>
      <trkpt lat="44.07432" lon="1.92712">
        <ele>164.80000305176</ele>
        <time>2020-07-29T06:29:25Z</time>
      </trkpt>
      <trkpt lat="44.07421" lon="1.92702">
        <ele>165.60000610352</ele>
        <time>2020-07-29T06:29:29Z</time>
      </trkpt>
      <trkpt lat="44.07419" lon="1.92699">
        <ele>165.80000305176</ele>
        <time>2020-07-29T06:29:30Z</time>
      </trkpt>
      <trkpt lat="44.074" lon="1.92681">
        <ele>166.80000305176</ele>
        <time>2020-07-29T06:29:37Z</time>
      </trkpt>
      <trkpt lat="44.07379" lon="1.92661">
        <ele>166.60000610352</ele>
        <time>2020-07-29T06:29:44Z</time>
      </trkpt>
      <trkpt lat="44.07363" lon="1.92652">
        <ele>166</ele>
        <time>2020-07-29T06:29:48Z</time>
      </trkpt>
      <trkpt lat="44.07359" lon="1.92651">
        <ele>165.80000305176</ele>
        <time>2020-07-29T06:29:49Z</time>
      </trkpt>
      <trkpt lat="44.07344" lon="1.92647">
        <ele>164.60000610352</ele>
        <time>2020-07-29T06:29:52Z</time>
      </trkpt>
      <trkpt lat="44.07334" lon="1.92643">
        <ele>163.60000610352</ele>
        <time>2020-07-29T06:29:54Z</time>
      </trkpt>
      <trkpt lat="44.07323" lon="1.92648">
        <ele>161.80000305176</ele>
        <time>2020-07-29T06:29:57Z</time>
      </trkpt>
      <trkpt lat="44.07318" lon="1.92651">
        <ele>161.39999389648</ele>
        <time>2020-07-29T06:29:58Z</time>
      </trkpt>
      <trkpt lat="44.07302" lon="1.92658">
        <ele>160.60000610352</ele>
        <time>2020-07-29T06:30:01Z</time>
      </trkpt>
      <trkpt lat="44.07297" lon="1.92658">
        <ele>160.19999694824</ele>
        <time>2020-07-29T06:30:02Z</time>
      </trkpt>
      <trkpt lat="44.07286" lon="1.9266">
        <ele>159.39999389648</ele>
        <time>2020-07-29T06:30:04Z</time>
      </trkpt>
      <trkpt lat="44.07276" lon="1.9266">
        <ele>158.80000305176</ele>
        <time>2020-07-29T06:30:07Z</time>
      </trkpt>
      <trkpt lat="44.07274" lon="1.92657">
        <ele>158.80000305176</ele>
        <time>2020-07-29T06:30:08Z</time>
      </trkpt>
      <trkpt lat="44.07273" lon="1.92649">
        <ele>158.60000610352</ele>
        <time>2020-07-29T06:30:10Z</time>
      </trkpt>
      <trkpt lat="44.07277" lon="1.9262">
        <ele>158.39999389648</ele>
        <time>2020-07-29T06:30:16Z</time>
      </trkpt>
      <trkpt lat="44.07278" lon="1.92602">
        <ele>158.39999389648</ele>
        <time>2020-07-29T06:30:20Z</time>
      </trkpt>
      <trkpt lat="44.07279" lon="1.92593">
        <ele>158.39999389648</ele>
        <time>2020-07-29T06:30:22Z</time>
      </trkpt>
      <trkpt lat="44.0728" lon="1.92561">
        <ele>158.39999389648</ele>
        <time>2020-07-29T06:30:28Z</time>
      </trkpt>
      <trkpt lat="44.07279" lon="1.92524">
        <ele>158.39999389648</ele>
        <time>2020-07-29T06:30:35Z</time>
      </trkpt>
      <trkpt lat="44.07277" lon="1.92485">
        <ele>158.80000305176</ele>
        <time>2020-07-29T06:30:43Z</time>
      </trkpt>
      <trkpt lat="44.07273" lon="1.92466">
        <ele>159.39999389648</ele>
        <time>2020-07-29T06:30:47Z</time>
      </trkpt>
      <trkpt lat="44.07269" lon="1.92458">
        <ele>159.60000610352</ele>
        <time>2020-07-29T06:30:49Z</time>
      </trkpt>
      <trkpt lat="44.07254" lon="1.92426">
        <ele>159.60000610352</ele>
        <time>2020-07-29T06:30:56Z</time>
      </trkpt>
      <trkpt lat="44.07241" lon="1.92389">
        <ele>159.60000610352</ele>
        <time>2020-07-29T06:31:04Z</time>
      </trkpt>
      <trkpt lat="44.07233" lon="1.92365">
        <ele>159.39999389648</ele>
        <time>2020-07-29T06:31:10Z</time>
      </trkpt>
      <trkpt lat="44.07222" lon="1.92339">
        <ele>159.19999694824</ele>
        <time>2020-07-29T06:31:16Z</time>
      </trkpt>
      <trkpt lat="44.07215" lon="1.92336">
        <ele>159.19999694824</ele>
        <time>2020-07-29T06:31:18Z</time>
      </trkpt>
      <trkpt lat="44.07207" lon="1.92336">
        <ele>159.19999694824</ele>
        <time>2020-07-29T06:31:20Z</time>
      </trkpt>
      <trkpt lat="44.07199" lon="1.92338">
        <ele>158.39999389648</ele>
        <time>2020-07-29T06:31:23Z</time>
      </trkpt>
      <trkpt lat="44.07197" lon="1.92339">
        <ele>158.19999694824</ele>
        <time>2020-07-29T06:31:24Z</time>
      </trkpt>
      <trkpt lat="44.07181" lon="1.92351">
        <ele>159</ele>
        <time>2020-07-29T06:31:30Z</time>
      </trkpt>
      <trkpt lat="44.07179" lon="1.92355">
        <ele>157.80000305176</ele>
        <time>2020-07-29T06:39:14Z</time>
      </trkpt>
      <trkpt lat="44.07175" lon="1.92356">
        <ele>157.80000305176</ele>
        <time>2020-07-29T06:39:16Z</time>
      </trkpt>
      <trkpt lat="44.07157" lon="1.92364">
        <ele>157.60000610352</ele>
        <time>2020-07-29T06:39:22Z</time>
      </trkpt>
      <trkpt lat="44.07127" lon="1.92378">
        <ele>157.80000305176</ele>
        <time>2020-07-29T06:39:32Z</time>
      </trkpt>
      <trkpt lat="44.07102" lon="1.92383">
        <ele>157.60000610352</ele>
        <time>2020-07-29T06:39:39Z</time>
      </trkpt>
      <trkpt lat="44.07097" lon="1.9237">
        <ele>157.39999389648</ele>
        <time>2020-07-29T06:39:42Z</time>
      </trkpt>
      <trkpt lat="44.07096" lon="1.92365">
        <ele>157.39999389648</ele>
        <time>2020-07-29T06:39:43Z</time>
      </trkpt>
      <trkpt lat="44.07087" lon="1.92339">
        <ele>157</ele>
        <time>2020-07-29T06:39:49Z</time>
      </trkpt>
      <trkpt lat="44.07071" lon="1.9229">
        <ele>157.19999694824</ele>
        <time>2020-07-29T06:40:00Z</time>
      </trkpt>
      <trkpt lat="44.07058" lon="1.92244">
        <ele>157.19999694824</ele>
        <time>2020-07-29T06:40:10Z</time>
      </trkpt>
      <trkpt lat="44.07043" lon="1.92203">
        <ele>157</ele>
        <time>2020-07-29T06:40:19Z</time>
      </trkpt>
      <trkpt lat="44.0703" lon="1.92168">
        <ele>157</ele>
        <time>2020-07-29T06:40:27Z</time>
      </trkpt>
      <trkpt lat="44.07012" lon="1.92117">
        <ele>156.80000305176</ele>
        <time>2020-07-29T06:40:38Z</time>
      </trkpt>
      <trkpt lat="44.07001" lon="1.92085">
        <ele>156.80000305176</ele>
        <time>2020-07-29T06:40:45Z</time>
      </trkpt>
      <trkpt lat="44.07" lon="1.92081">
        <ele>156.80000305176</ele>
        <time>2020-07-29T06:40:46Z</time>
      </trkpt>
      <trkpt lat="44.06987" lon="1.92045">
        <ele>156.80000305176</ele>
        <time>2020-07-29T06:40:54Z</time>
      </trkpt>
      <trkpt lat="44.06975" lon="1.91997">
        <ele>156.80000305176</ele>
        <time>2020-07-29T06:41:04Z</time>
      </trkpt>
      <trkpt lat="44.06965" lon="1.91948">
        <ele>156.60000610352</ele>
        <time>2020-07-29T06:41:14Z</time>
      </trkpt>
      <trkpt lat="44.06955" lon="1.91927">
        <ele>156.19999694824</ele>
        <time>2020-07-29T06:41:19Z</time>
      </trkpt>
      <trkpt lat="44.0694" lon="1.91904">
        <ele>155.80000305176</ele>
        <time>2020-07-29T06:41:25Z</time>
      </trkpt>
      <trkpt lat="44.06933" lon="1.91884">
        <ele>155.19999694824</ele>
        <time>2020-07-29T06:41:30Z</time>
      </trkpt>
      <trkpt lat="44.06931" lon="1.91879">
        <ele>155</ele>
        <time>2020-07-29T06:41:31Z</time>
      </trkpt>
      <trkpt lat="44.06927" lon="1.91848">
        <ele>154.39999389648</ele>
        <time>2020-07-29T06:41:37Z</time>
      </trkpt>
      <trkpt lat="44.06921" lon="1.9182">
        <ele>154.80000305176</ele>
        <time>2020-07-29T06:41:43Z</time>
      </trkpt>
      <trkpt lat="44.06917" lon="1.91798">
        <ele>155</ele>
        <time>2020-07-29T06:41:48Z</time>
      </trkpt>
      <trkpt lat="44.06914" lon="1.91769">
        <ele>155.19999694824</ele>
        <time>2020-07-29T06:41:54Z</time>
      </trkpt>
      <trkpt lat="44.06914" lon="1.91741">
        <ele>155.80000305176</ele>
        <time>2020-07-29T06:42:00Z</time>
      </trkpt>
      <trkpt lat="44.06915" lon="1.9172">
        <ele>156</ele>
        <time>2020-07-29T06:42:05Z</time>
      </trkpt>
      <trkpt lat="44.06914" lon="1.91711">
        <ele>156.39999389648</ele>
        <time>2020-07-29T06:42:07Z</time>
      </trkpt>
      <trkpt lat="44.06909" lon="1.91697">
        <ele>156.60000610352</ele>
        <time>2020-07-29T06:42:10Z</time>
      </trkpt>
      <trkpt lat="44.06891" lon="1.91678">
        <ele>156.60000610352</ele>
        <time>2020-07-29T06:42:16Z</time>
      </trkpt>
      <trkpt lat="44.06859" lon="1.91653">
        <ele>156.39999389648</ele>
        <time>2020-07-29T06:42:26Z</time>
      </trkpt>
      <trkpt lat="44.0684" lon="1.91629">
        <ele>156</ele>
        <time>2020-07-29T06:42:33Z</time>
      </trkpt>
      <trkpt lat="44.06815" lon="1.91597">
        <ele>156</ele>
        <time>2020-07-29T06:42:42Z</time>
      </trkpt>
      <trkpt lat="44.06787" lon="1.91562">
        <ele>156</ele>
        <time>2020-07-29T06:42:52Z</time>
      </trkpt>
      <trkpt lat="44.06774" lon="1.91544">
        <ele>156</ele>
        <time>2020-07-29T06:42:57Z</time>
      </trkpt>
      <trkpt lat="44.06765" lon="1.91517">
        <ele>156</ele>
        <time>2020-07-29T06:43:03Z</time>
      </trkpt>
      <trkpt lat="44.06752" lon="1.91481">
        <ele>155.80000305176</ele>
        <time>2020-07-29T06:43:11Z</time>
      </trkpt>
      <trkpt lat="44.06742" lon="1.91458">
        <ele>156</ele>
        <time>2020-07-29T06:43:16Z</time>
      </trkpt>
      <trkpt lat="44.0673" lon="1.91422">
        <ele>156.39999389648</ele>
        <time>2020-07-29T06:43:24Z</time>
      </trkpt>
      <trkpt lat="44.06718" lon="1.9139">
        <ele>156.60000610352</ele>
        <time>2020-07-29T06:43:31Z</time>
      </trkpt>
      <trkpt lat="44.06702" lon="1.91346">
        <ele>157</ele>
        <time>2020-07-29T06:43:40Z</time>
      </trkpt>
      <trkpt lat="44.06689" lon="1.9132">
        <ele>157.19999694824</ele>
        <time>2020-07-29T06:43:46Z</time>
      </trkpt>
      <trkpt lat="44.0667" lon="1.91295">
        <ele>157</ele>
        <time>2020-07-29T06:43:53Z</time>
      </trkpt>
      <trkpt lat="44.06655" lon="1.91276">
        <ele>157.39999389648</ele>
        <time>2020-07-29T06:43:59Z</time>
      </trkpt>
      <trkpt lat="44.06632" lon="1.9125">
        <ele>158</ele>
        <time>2020-07-29T06:44:07Z</time>
      </trkpt>
      <trkpt lat="44.06616" lon="1.91251">
        <ele>158</ele>
        <time>2020-07-29T06:44:12Z</time>
      </trkpt>
      <trkpt lat="44.06606" lon="1.91259">
        <ele>158.39999389648</ele>
        <time>2020-07-29T06:44:16Z</time>
      </trkpt>
      <trkpt lat="44.066" lon="1.9126">
        <ele>158.60000610352</ele>
        <time>2020-07-29T06:44:18Z</time>
      </trkpt>
      <trkpt lat="44.0659" lon="1.91251">
        <ele>159.39999389648</ele>
        <time>2020-07-29T06:44:22Z</time>
      </trkpt>
      <trkpt lat="44.06581" lon="1.91228">
        <ele>160.19999694824</ele>
        <time>2020-07-29T06:44:28Z</time>
      </trkpt>
      <trkpt lat="44.06571" lon="1.91216">
        <ele>160.19999694824</ele>
        <time>2020-07-29T06:44:32Z</time>
      </trkpt>
      <trkpt lat="44.06567" lon="1.91215">
        <ele>160.19999694824</ele>
        <time>2020-07-29T06:44:33Z</time>
      </trkpt>
      <trkpt lat="44.06555" lon="1.91222">
        <ele>160.19999694824</ele>
        <time>2020-07-29T06:44:37Z</time>
      </trkpt>
      <trkpt lat="44.06552" lon="1.91225">
        <ele>160.19999694824</ele>
        <time>2020-07-29T06:44:38Z</time>
      </trkpt>
      <trkpt lat="44.06543" lon="1.91237">
        <ele>160.39999389648</ele>
        <time>2020-07-29T06:44:42Z</time>
      </trkpt>
      <trkpt lat="44.06535" lon="1.91246">
        <ele>160.80000305176</ele>
        <time>2020-07-29T06:44:45Z</time>
      </trkpt>
      <trkpt lat="44.0652" lon="1.91267">
        <ele>161.60000610352</ele>
        <time>2020-07-29T06:44:52Z</time>
      </trkpt>
      <trkpt lat="44.06504" lon="1.91288">
        <ele>162.39999389648</ele>
        <time>2020-07-29T06:45:00Z</time>
      </trkpt>
      <trkpt lat="44.06501" lon="1.91289">
        <ele>162.60000610352</ele>
        <time>2020-07-29T06:45:01Z</time>
      </trkpt>
      <trkpt lat="44.0649" lon="1.91289">
        <ele>163</ele>
        <time>2020-07-29T06:45:05Z</time>
      </trkpt>
      <trkpt lat="44.06468" lon="1.91277">
        <ele>163.19999694824</ele>
        <time>2020-07-29T06:45:13Z</time>
      </trkpt>
      <trkpt lat="44.06448" lon="1.91263">
        <ele>163.19999694824</ele>
        <time>2020-07-29T06:45:21Z</time>
      </trkpt>
      <trkpt lat="44.06431" lon="1.91255">
        <ele>163.39999389648</ele>
        <time>2020-07-29T06:45:26Z</time>
      </trkpt>
      <trkpt lat="44.06405" lon="1.91253">
        <ele>162.60000610352</ele>
        <time>2020-07-29T06:45:33Z</time>
      </trkpt>
      <trkpt lat="44.06368" lon="1.91252">
        <ele>163</ele>
        <time>2020-07-29T06:45:43Z</time>
      </trkpt>
      <trkpt lat="44.06342" lon="1.91242">
        <ele>162.80000305176</ele>
        <time>2020-07-29T06:45:50Z</time>
      </trkpt>
      <trkpt lat="44.06304" lon="1.91227">
        <ele>162.19999694824</ele>
        <time>2020-07-29T06:45:59Z</time>
      </trkpt>
      <trkpt lat="44.06278" lon="1.9123">
        <ele>162</ele>
        <time>2020-07-29T06:46:05Z</time>
      </trkpt>
      <trkpt lat="44.06258" lon="1.91239">
        <ele>162.19999694824</ele>
        <time>2020-07-29T06:46:11Z</time>
      </trkpt>
      <trkpt lat="44.06241" lon="1.91251">
        <ele>163.60000610352</ele>
        <time>2020-07-29T06:46:18Z</time>
      </trkpt>
      <trkpt lat="44.06238" lon="1.91253">
        <ele>163.80000305176</ele>
        <time>2020-07-29T06:46:19Z</time>
      </trkpt>
      <trkpt lat="44.06219" lon="1.91259">
        <ele>164.80000305176</ele>
        <time>2020-07-29T06:46:26Z</time>
      </trkpt>
      <trkpt lat="44.06216" lon="1.91259">
        <ele>164.80000305176</ele>
        <time>2020-07-29T06:46:27Z</time>
      </trkpt>
      <trkpt lat="44.06195" lon="1.91256">
        <ele>166</ele>
        <time>2020-07-29T06:46:35Z</time>
      </trkpt>
      <trkpt lat="44.06193" lon="1.91255">
        <ele>166</ele>
        <time>2020-07-29T06:46:36Z</time>
      </trkpt>
      <trkpt lat="44.06169" lon="1.91246">
        <ele>167</ele>
        <time>2020-07-29T06:46:44Z</time>
      </trkpt>
      <trkpt lat="44.0614" lon="1.91236">
        <ele>166.60000610352</ele>
        <time>2020-07-29T06:46:53Z</time>
      </trkpt>
      <trkpt lat="44.06105" lon="1.91225">
        <ele>167</ele>
        <time>2020-07-29T06:47:03Z</time>
      </trkpt>
      <trkpt lat="44.06077" lon="1.91211">
        <ele>166.19999694824</ele>
        <time>2020-07-29T06:47:11Z</time>
      </trkpt>
      <trkpt lat="44.06054" lon="1.91195">
        <ele>166.39999389648</ele>
        <time>2020-07-29T06:47:18Z</time>
      </trkpt>
      <trkpt lat="44.06026" lon="1.91175">
        <ele>166.60000610352</ele>
        <time>2020-07-29T06:47:26Z</time>
      </trkpt>
      <trkpt lat="44.05995" lon="1.91157">
        <ele>166.39999389648</ele>
        <time>2020-07-29T06:47:34Z</time>
      </trkpt>
      <trkpt lat="44.05965" lon="1.91143">
        <ele>166.60000610352</ele>
        <time>2020-07-29T06:47:42Z</time>
      </trkpt>
      <trkpt lat="44.05944" lon="1.91132">
        <ele>166.39999389648</ele>
        <time>2020-07-29T06:47:48Z</time>
      </trkpt>
      <trkpt lat="44.05909" lon="1.91115">
        <ele>166.39999389648</ele>
        <time>2020-07-29T06:47:57Z</time>
      </trkpt>
      <trkpt lat="44.05887" lon="1.91102">
        <ele>166.39999389648</ele>
        <time>2020-07-29T06:48:03Z</time>
      </trkpt>
      <trkpt lat="44.0586" lon="1.91086">
        <ele>166.39999389648</ele>
        <time>2020-07-29T06:48:10Z</time>
      </trkpt>
      <trkpt lat="44.05838" lon="1.91074">
        <ele>166.60000610352</ele>
        <time>2020-07-29T06:48:16Z</time>
      </trkpt>
      <trkpt lat="44.0581" lon="1.91061">
        <ele>166.80000305176</ele>
        <time>2020-07-29T06:48:24Z</time>
      </trkpt>
      <trkpt lat="44.05808" lon="1.91048">
        <ele>167</ele>
        <time>2020-07-29T06:48:27Z</time>
      </trkpt>
      <trkpt lat="44.05808" lon="1.91042">
        <ele>167</ele>
        <time>2020-07-29T06:48:28Z</time>
      </trkpt>
      <trkpt lat="44.05807" lon="1.9103">
        <ele>166.60000610352</ele>
        <time>2020-07-29T06:48:30Z</time>
      </trkpt>
      <trkpt lat="44.05808" lon="1.91017">
        <ele>166</ele>
        <time>2020-07-29T06:48:32Z</time>
      </trkpt>
      <trkpt lat="44.05808" lon="1.91011">
        <ele>165.60000610352</ele>
        <time>2020-07-29T06:48:33Z</time>
      </trkpt>
      <trkpt lat="44.05809" lon="1.90999">
        <ele>165</ele>
        <time>2020-07-29T06:48:35Z</time>
      </trkpt>
      <trkpt lat="44.05809" lon="1.90981">
        <ele>164.39999389648</ele>
        <time>2020-07-29T06:48:38Z</time>
      </trkpt>
      <trkpt lat="44.05808" lon="1.90976">
        <ele>164.39999389648</ele>
        <time>2020-07-29T06:48:39Z</time>
      </trkpt>
      <trkpt lat="44.05803" lon="1.90954">
        <ele>164.19999694824</ele>
        <time>2020-07-29T06:48:43Z</time>
      </trkpt>
      <trkpt lat="44.05795" lon="1.9093">
        <ele>164.19999694824</ele>
        <time>2020-07-29T06:48:49Z</time>
      </trkpt>
      <trkpt lat="44.05795" lon="1.90928">
        <ele>164.39999389648</ele>
        <time>2020-07-29T06:48:50Z</time>
      </trkpt>
      <trkpt lat="44.05791" lon="1.90932">
        <ele>165.19999694824</ele>
        <time>2020-07-29T06:49:07Z</time>
      </trkpt>
      <trkpt lat="44.0579" lon="1.90935">
        <ele>165.19999694824</ele>
        <time>2020-07-29T06:49:08Z</time>
      </trkpt>
      <trkpt lat="44.05779" lon="1.90944">
        <ele>164.80000305176</ele>
        <time>2020-07-29T06:49:13Z</time>
      </trkpt>
      <trkpt lat="44.05773" lon="1.90944">
        <ele>164.80000305176</ele>
        <time>2020-07-29T06:49:15Z</time>
      </trkpt>
      <trkpt lat="44.05762" lon="1.90944">
        <ele>164.80000305176</ele>
        <time>2020-07-29T06:49:20Z</time>
      </trkpt>
      <trkpt lat="44.05757" lon="1.90941">
        <ele>165</ele>
        <time>2020-07-29T06:49:23Z</time>
      </trkpt>
      <trkpt lat="44.05755" lon="1.90938">
        <ele>165.19999694824</ele>
        <time>2020-07-29T06:49:25Z</time>
      </trkpt>
      <trkpt lat="44.05754" lon="1.90931">
        <ele>165.39999389648</ele>
        <time>2020-07-29T06:49:30Z</time>
      </trkpt>
      <trkpt lat="44.05754" lon="1.90937">
        <ele>165.39999389648</ele>
        <time>2020-07-29T06:49:34Z</time>
      </trkpt>
      <trkpt lat="44.05763" lon="1.90943">
        <ele>165.19999694824</ele>
        <time>2020-07-29T06:49:38Z</time>
      </trkpt>
      <trkpt lat="44.0578" lon="1.90942">
        <ele>164.80000305176</ele>
        <time>2020-07-29T06:49:45Z</time>
      </trkpt>
      <trkpt lat="44.05795" lon="1.90935">
        <ele>164.80000305176</ele>
        <time>2020-07-29T06:49:52Z</time>
      </trkpt>
      <trkpt lat="44.05798" lon="1.9094">
        <ele>164.80000305176</ele>
        <time>2020-07-29T06:50:00Z</time>
      </trkpt>
      <trkpt lat="44.058" lon="1.90945">
        <ele>164.80000305176</ele>
        <time>2020-07-29T06:50:02Z</time>
      </trkpt>
      <trkpt lat="44.05805" lon="1.90964">
        <ele>164.60000610352</ele>
        <time>2020-07-29T06:50:08Z</time>
      </trkpt>
      <trkpt lat="44.05808" lon="1.90994">
        <ele>164.39999389648</ele>
        <time>2020-07-29T06:50:16Z</time>
      </trkpt>
      <trkpt lat="44.05809" lon="1.90999">
        <ele>164.60000610352</ele>
        <time>2020-07-29T06:50:19Z</time>
      </trkpt>
      <trkpt lat="44.05808" lon="1.91004">
        <ele>165</ele>
        <time>2020-07-29T06:50:29Z</time>
      </trkpt>
      <trkpt lat="44.05808" lon="1.9101">
        <ele>165</ele>
        <time>2020-07-29T06:50:31Z</time>
      </trkpt>
      <trkpt lat="44.05807" lon="1.91032">
        <ele>165</ele>
        <time>2020-07-29T06:50:37Z</time>
      </trkpt>
      <trkpt lat="44.05807" lon="1.91036">
        <ele>165</ele>
        <time>2020-07-29T06:50:38Z</time>
      </trkpt>
      <trkpt lat="44.05806" lon="1.91057">
        <ele>165.60000610352</ele>
        <time>2020-07-29T06:50:45Z</time>
      </trkpt>
      <trkpt lat="44.05808" lon="1.91064">
        <ele>167.19999694824</ele>
        <time>2020-07-29T06:53:59Z</time>
      </trkpt>
      <trkpt lat="44.05806" lon="1.91064">
        <ele>167.19999694824</ele>
        <time>2020-07-29T06:54:00Z</time>
      </trkpt>
      <trkpt lat="44.05799" lon="1.91059">
        <ele>166.80000305176</ele>
        <time>2020-07-29T06:54:04Z</time>
      </trkpt>
      <trkpt lat="44.05796" lon="1.91059">
        <ele>166.80000305176</ele>
        <time>2020-07-29T06:54:05Z</time>
      </trkpt>
      <trkpt lat="44.0578" lon="1.91053">
        <ele>166.80000305176</ele>
        <time>2020-07-29T06:54:12Z</time>
      </trkpt>
      <trkpt lat="44.05764" lon="1.91049">
        <ele>167</ele>
        <time>2020-07-29T06:54:18Z</time>
      </trkpt>
      <trkpt lat="44.05743" lon="1.91048">
        <ele>167.39999389648</ele>
        <time>2020-07-29T06:54:26Z</time>
      </trkpt>
      <trkpt lat="44.05717" lon="1.91049">
        <ele>167.39999389648</ele>
        <time>2020-07-29T06:54:34Z</time>
      </trkpt>
      <trkpt lat="44.05694" lon="1.9105">
        <ele>167</ele>
        <time>2020-07-29T06:54:40Z</time>
      </trkpt>
      <trkpt lat="44.05669" lon="1.91038">
        <ele>166.60000610352</ele>
        <time>2020-07-29T06:54:46Z</time>
      </trkpt>
      <trkpt lat="44.05639" lon="1.91014">
        <ele>166.60000610352</ele>
        <time>2020-07-29T06:54:54Z</time>
      </trkpt>
      <trkpt lat="44.0562" lon="1.9099">
        <ele>167</ele>
        <time>2020-07-29T06:55:01Z</time>
      </trkpt>
      <trkpt lat="44.05603" lon="1.90959">
        <ele>168</ele>
        <time>2020-07-29T06:55:09Z</time>
      </trkpt>
      <trkpt lat="44.05601" lon="1.90955">
        <ele>168.19999694824</ele>
        <time>2020-07-29T06:55:10Z</time>
      </trkpt>
      <trkpt lat="44.05591" lon="1.9094">
        <ele>169.39999389648</ele>
        <time>2020-07-29T06:55:15Z</time>
      </trkpt>
      <trkpt lat="44.05583" lon="1.90924">
        <ele>170.60000610352</ele>
        <time>2020-07-29T06:55:20Z</time>
      </trkpt>
      <trkpt lat="44.05578" lon="1.90916">
        <ele>171.19999694824</ele>
        <time>2020-07-29T06:55:23Z</time>
      </trkpt>
      <trkpt lat="44.05574" lon="1.9091">
        <ele>171.80000305176</ele>
        <time>2020-07-29T06:55:25Z</time>
      </trkpt>
      <trkpt lat="44.05566" lon="1.90897">
        <ele>173</ele>
        <time>2020-07-29T06:55:30Z</time>
      </trkpt>
      <trkpt lat="44.05563" lon="1.90893">
        <ele>173.39999389648</ele>
        <time>2020-07-29T06:55:32Z</time>
      </trkpt>
      <trkpt lat="44.05558" lon="1.90886">
        <ele>174.39999389648</ele>
        <time>2020-07-29T06:55:35Z</time>
      </trkpt>
      <trkpt lat="44.05551" lon="1.90878">
        <ele>175.19999694824</ele>
        <time>2020-07-29T06:55:39Z</time>
      </trkpt>
      <trkpt lat="44.05549" lon="1.90875">
        <ele>175.39999389648</ele>
        <time>2020-07-29T06:55:40Z</time>
      </trkpt>
      <trkpt lat="44.05548" lon="1.9087">
        <ele>175.80000305176</ele>
        <time>2020-07-29T06:55:42Z</time>
      </trkpt>
      <trkpt lat="44.05551" lon="1.90865">
        <ele>176</ele>
        <time>2020-07-29T06:55:44Z</time>
      </trkpt>
      <trkpt lat="44.05554" lon="1.90864">
        <ele>176.60000610352</ele>
        <time>2020-07-29T06:55:46Z</time>
      </trkpt>
      <trkpt lat="44.0556" lon="1.90863">
        <ele>177.19999694824</ele>
        <time>2020-07-29T06:55:49Z</time>
      </trkpt>
      <trkpt lat="44.05562" lon="1.90863">
        <ele>177.39999389648</ele>
        <time>2020-07-29T06:55:50Z</time>
      </trkpt>
      <trkpt lat="44.05566" lon="1.90862">
        <ele>177.60000610352</ele>
        <time>2020-07-29T06:55:52Z</time>
      </trkpt>
      <trkpt lat="44.05568" lon="1.90861">
        <ele>177.80000305176</ele>
        <time>2020-07-29T06:56:12Z</time>
      </trkpt>
      <trkpt lat="44.05553" lon="1.90866">
        <ele>177.80000305176</ele>
        <time>2020-07-29T06:56:19Z</time>
      </trkpt>
      <trkpt lat="44.05548" lon="1.90879">
        <ele>177.39999389648</ele>
        <time>2020-07-29T06:56:23Z</time>
      </trkpt>
      <trkpt lat="44.05544" lon="1.90882">
        <ele>176.80000305176</ele>
        <time>2020-07-29T06:56:25Z</time>
      </trkpt>
      <trkpt lat="44.05541" lon="1.90882">
        <ele>176.60000610352</ele>
        <time>2020-07-29T06:56:26Z</time>
      </trkpt>
      <trkpt lat="44.0552" lon="1.90879">
        <ele>176.60000610352</ele>
        <time>2020-07-29T06:56:34Z</time>
      </trkpt>
      <trkpt lat="44.05499" lon="1.9087">
        <ele>177.39999389648</ele>
        <time>2020-07-29T06:56:42Z</time>
      </trkpt>
      <trkpt lat="44.05495" lon="1.90865">
        <ele>177.80000305176</ele>
        <time>2020-07-29T06:56:44Z</time>
      </trkpt>
      <trkpt lat="44.05488" lon="1.90854">
        <ele>178.19999694824</ele>
        <time>2020-07-29T06:56:48Z</time>
      </trkpt>
      <trkpt lat="44.05482" lon="1.90843">
        <ele>178.80000305176</ele>
        <time>2020-07-29T06:56:52Z</time>
      </trkpt>
      <trkpt lat="44.05477" lon="1.90831">
        <ele>179.39999389648</ele>
        <time>2020-07-29T06:56:56Z</time>
      </trkpt>
      <trkpt lat="44.05475" lon="1.90816">
        <ele>180</ele>
        <time>2020-07-29T06:57:01Z</time>
      </trkpt>
      <trkpt lat="44.05476" lon="1.90813">
        <ele>180</ele>
        <time>2020-07-29T06:57:02Z</time>
      </trkpt>
      <trkpt lat="44.05487" lon="1.90805">
        <ele>180.60000610352</ele>
        <time>2020-07-29T06:57:07Z</time>
      </trkpt>
      <trkpt lat="44.0549" lon="1.90803">
        <ele>181</ele>
        <time>2020-07-29T06:57:09Z</time>
      </trkpt>
      <trkpt lat="44.05498" lon="1.90798">
        <ele>182</ele>
        <time>2020-07-29T06:57:13Z</time>
      </trkpt>
      <trkpt lat="44.05502" lon="1.90796">
        <ele>182.39999389648</ele>
        <time>2020-07-29T06:57:16Z</time>
      </trkpt>
      <trkpt lat="44.05506" lon="1.90793">
        <ele>182.80000305176</ele>
        <time>2020-07-29T06:57:18Z</time>
      </trkpt>
      <trkpt lat="44.05507" lon="1.90791">
        <ele>183</ele>
        <time>2020-07-29T06:57:19Z</time>
      </trkpt>
      <trkpt lat="44.05515" lon="1.90786">
        <ele>183.80000305176</ele>
        <time>2020-07-29T06:57:23Z</time>
      </trkpt>
      <trkpt lat="44.05519" lon="1.90783">
        <ele>184.19999694824</ele>
        <time>2020-07-29T06:57:25Z</time>
      </trkpt>
      <trkpt lat="44.05529" lon="1.90776">
        <ele>185.19999694824</ele>
        <time>2020-07-29T06:57:30Z</time>
      </trkpt>
      <trkpt lat="44.0553" lon="1.90774">
        <ele>185.39999389648</ele>
        <time>2020-07-29T06:57:31Z</time>
      </trkpt>
      <trkpt lat="44.05544" lon="1.90764">
        <ele>186.19999694824</ele>
        <time>2020-07-29T06:57:38Z</time>
      </trkpt>
      <trkpt lat="44.05546" lon="1.90763">
        <ele>186.39999389648</ele>
        <time>2020-07-29T06:57:39Z</time>
      </trkpt>
      <trkpt lat="44.05562" lon="1.90753">
        <ele>187.19999694824</ele>
        <time>2020-07-29T06:57:47Z</time>
      </trkpt>
      <trkpt lat="44.05564" lon="1.90751">
        <ele>187.39999389648</ele>
        <time>2020-07-29T06:57:48Z</time>
      </trkpt>
      <trkpt lat="44.05574" lon="1.90745">
        <ele>187.80000305176</ele>
        <time>2020-07-29T06:57:53Z</time>
      </trkpt>
      <trkpt lat="44.05588" lon="1.90736">
        <ele>188.39999389648</ele>
        <time>2020-07-29T06:58:00Z</time>
      </trkpt>
      <trkpt lat="44.0559" lon="1.90735">
        <ele>188.39999389648</ele>
        <time>2020-07-29T06:58:01Z</time>
      </trkpt>
      <trkpt lat="44.05606" lon="1.90727">
        <ele>188.39999389648</ele>
        <time>2020-07-29T06:58:08Z</time>
      </trkpt>
      <trkpt lat="44.05624" lon="1.90718">
        <ele>188.19999694824</ele>
        <time>2020-07-29T06:58:15Z</time>
      </trkpt>
      <trkpt lat="44.05645" lon="1.90708">
        <ele>188</ele>
        <time>2020-07-29T06:58:23Z</time>
      </trkpt>
      <trkpt lat="44.0567" lon="1.90696">
        <ele>187.39999389648</ele>
        <time>2020-07-29T06:58:32Z</time>
      </trkpt>
      <trkpt lat="44.05693" lon="1.90689">
        <ele>187.39999389648</ele>
        <time>2020-07-29T06:58:41Z</time>
      </trkpt>
      <trkpt lat="44.0571" lon="1.90684">
        <ele>187.19999694824</ele>
        <time>2020-07-29T06:58:48Z</time>
      </trkpt>
      <trkpt lat="44.05727" lon="1.9068">
        <ele>187</ele>
        <time>2020-07-29T06:58:55Z</time>
      </trkpt>
      <trkpt lat="44.05743" lon="1.90674">
        <ele>186.60000610352</ele>
        <time>2020-07-29T06:59:01Z</time>
      </trkpt>
      <trkpt lat="44.05762" lon="1.90669">
        <ele>186.19999694824</ele>
        <time>2020-07-29T06:59:07Z</time>
      </trkpt>
      <trkpt lat="44.05765" lon="1.90668">
        <ele>186</ele>
        <time>2020-07-29T06:59:08Z</time>
      </trkpt>
      <trkpt lat="44.05782" lon="1.90666">
        <ele>185</ele>
        <time>2020-07-29T06:59:12Z</time>
      </trkpt>
      <trkpt lat="44.05792" lon="1.90664">
        <ele>184.39999389648</ele>
        <time>2020-07-29T06:59:14Z</time>
      </trkpt>
      <trkpt lat="44.05801" lon="1.90662">
        <ele>183.60000610352</ele>
        <time>2020-07-29T06:59:16Z</time>
      </trkpt>
      <trkpt lat="44.05821" lon="1.90658">
        <ele>182.60000610352</ele>
        <time>2020-07-29T06:59:20Z</time>
      </trkpt>
      <trkpt lat="44.05829" lon="1.90656">
        <ele>182.39999389648</ele>
        <time>2020-07-29T06:59:22Z</time>
      </trkpt>
      <trkpt lat="44.05852" lon="1.90652">
        <ele>182</ele>
        <time>2020-07-29T06:59:28Z</time>
      </trkpt>
      <trkpt lat="44.05876" lon="1.90649">
        <ele>181.60000610352</ele>
        <time>2020-07-29T06:59:36Z</time>
      </trkpt>
      <trkpt lat="44.05879" lon="1.90649">
        <ele>181.60000610352</ele>
        <time>2020-07-29T06:59:37Z</time>
      </trkpt>
      <trkpt lat="44.05901" lon="1.90648">
        <ele>180.80000305176</ele>
        <time>2020-07-29T06:59:43Z</time>
      </trkpt>
      <trkpt lat="44.05909" lon="1.90647">
        <ele>180.60000610352</ele>
        <time>2020-07-29T06:59:45Z</time>
      </trkpt>
      <trkpt lat="44.05918" lon="1.90641">
        <ele>180.19999694824</ele>
        <time>2020-07-29T06:59:49Z</time>
      </trkpt>
      <trkpt lat="44.05919" lon="1.90638">
        <ele>180.19999694824</ele>
        <time>2020-07-29T06:59:50Z</time>
      </trkpt>
      <trkpt lat="44.0592" lon="1.90628">
        <ele>180.39999389648</ele>
        <time>2020-07-29T06:59:54Z</time>
      </trkpt>
      <trkpt lat="44.05919" lon="1.90623">
        <ele>180.80000305176</ele>
        <time>2020-07-29T06:59:56Z</time>
      </trkpt>
      <trkpt lat="44.05919" lon="1.9061">
        <ele>181.60000610352</ele>
        <time>2020-07-29T07:00:01Z</time>
      </trkpt>
      <trkpt lat="44.05918" lon="1.90605">
        <ele>182</ele>
        <time>2020-07-29T07:00:03Z</time>
      </trkpt>
      <trkpt lat="44.05918" lon="1.90596">
        <ele>182.80000305176</ele>
        <time>2020-07-29T07:00:06Z</time>
      </trkpt>
      <trkpt lat="44.05916" lon="1.90583">
        <ele>183.80000305176</ele>
        <time>2020-07-29T07:00:11Z</time>
      </trkpt>
      <trkpt lat="44.05911" lon="1.90566">
        <ele>184.80000305176</ele>
        <time>2020-07-29T07:00:18Z</time>
      </trkpt>
      <trkpt lat="44.05911" lon="1.90564">
        <ele>185</ele>
        <time>2020-07-29T07:00:19Z</time>
      </trkpt>
      <trkpt lat="44.0591" lon="1.90559">
        <ele>185.39999389648</ele>
        <time>2020-07-29T07:00:21Z</time>
      </trkpt>
      <trkpt lat="44.05908" lon="1.90552">
        <ele>186.19999694824</ele>
        <time>2020-07-29T07:00:24Z</time>
      </trkpt>
      <trkpt lat="44.05907" lon="1.90549">
        <ele>186.39999389648</ele>
        <time>2020-07-29T07:00:25Z</time>
      </trkpt>
      <trkpt lat="44.05904" lon="1.9054">
        <ele>187.19999694824</ele>
        <time>2020-07-29T07:00:29Z</time>
      </trkpt>
      <trkpt lat="44.05902" lon="1.90532">
        <ele>188</ele>
        <time>2020-07-29T07:00:32Z</time>
      </trkpt>
      <trkpt lat="44.05901" lon="1.90528">
        <ele>188.39999389648</ele>
        <time>2020-07-29T07:00:34Z</time>
      </trkpt>
      <trkpt lat="44.05895" lon="1.90512">
        <ele>189.39999389648</ele>
        <time>2020-07-29T07:00:41Z</time>
      </trkpt>
      <trkpt lat="44.05889" lon="1.90501">
        <ele>190.39999389648</ele>
        <time>2020-07-29T07:00:48Z</time>
      </trkpt>
      <trkpt lat="44.05888" lon="1.90499">
        <ele>190.60000610352</ele>
        <time>2020-07-29T07:00:49Z</time>
      </trkpt>
      <trkpt lat="44.05883" lon="1.90489">
        <ele>191.39999389648</ele>
        <time>2020-07-29T07:00:56Z</time>
      </trkpt>
      <trkpt lat="44.0588" lon="1.90485">
        <ele>191.60000610352</ele>
        <time>2020-07-29T07:00:58Z</time>
      </trkpt>
      <trkpt lat="44.05872" lon="1.90475">
        <ele>192.39999389648</ele>
        <time>2020-07-29T07:01:05Z</time>
      </trkpt>
      <trkpt lat="44.0587" lon="1.90471">
        <ele>192.80000305176</ele>
        <time>2020-07-29T07:01:07Z</time>
      </trkpt>
      <trkpt lat="44.05865" lon="1.90462">
        <ele>193.80000305176</ele>
        <time>2020-07-29T07:01:12Z</time>
      </trkpt>
      <trkpt lat="44.05864" lon="1.90459">
        <ele>194.19999694824</ele>
        <time>2020-07-29T07:01:14Z</time>
      </trkpt>
      <trkpt lat="44.0586" lon="1.90452">
        <ele>195</ele>
        <time>2020-07-29T07:01:19Z</time>
      </trkpt>
      <trkpt lat="44.05857" lon="1.90445">
        <ele>195.80000305176</ele>
        <time>2020-07-29T07:01:23Z</time>
      </trkpt>
      <trkpt lat="44.05856" lon="1.90444">
        <ele>196</ele>
        <time>2020-07-29T07:01:24Z</time>
      </trkpt>
      <trkpt lat="44.0585" lon="1.90436">
        <ele>197</ele>
        <time>2020-07-29T07:01:29Z</time>
      </trkpt>
      <trkpt lat="44.05849" lon="1.90433">
        <ele>197.39999389648</ele>
        <time>2020-07-29T07:01:31Z</time>
      </trkpt>
      <trkpt lat="44.05847" lon="1.90426">
        <ele>198.19999694824</ele>
        <time>2020-07-29T07:01:35Z</time>
      </trkpt>
      <trkpt lat="44.05842" lon="1.90419">
        <ele>199.39999389648</ele>
        <time>2020-07-29T07:01:40Z</time>
      </trkpt>
      <trkpt lat="44.05836" lon="1.90411">
        <ele>200.60000610352</ele>
        <time>2020-07-29T07:01:45Z</time>
      </trkpt>
      <trkpt lat="44.05834" lon="1.90408">
        <ele>201</ele>
        <time>2020-07-29T07:01:47Z</time>
      </trkpt>
      <trkpt lat="44.05832" lon="1.90403">
        <ele>201.80000305176</ele>
        <time>2020-07-29T07:01:51Z</time>
      </trkpt>
      <trkpt lat="44.05737" lon="1.90288">
        <ele>228.19999694824</ele>
        <time>2020-07-29T07:04:21Z</time>
      </trkpt>
      <trkpt lat="44.05744" lon="1.90283">
        <ele>229.19999694824</ele>
        <time>2020-07-29T07:04:28Z</time>
      </trkpt>
      <trkpt lat="44.05745" lon="1.90283">
        <ele>229.39999389648</ele>
        <time>2020-07-29T07:04:29Z</time>
      </trkpt>
      <trkpt lat="44.05753" lon="1.9028">
        <ele>230.19999694824</ele>
        <time>2020-07-29T07:04:36Z</time>
      </trkpt>
      <trkpt lat="44.05754" lon="1.9028">
        <ele>230.39999389648</ele>
        <time>2020-07-29T07:04:37Z</time>
      </trkpt>
      <trkpt lat="44.0583" lon="1.90221">
        <ele>242.60000610352</ele>
        <time>2020-07-29T07:05:49Z</time>
      </trkpt>
      <trkpt lat="44.0583" lon="1.90218">
        <ele>242.80000305176</ele>
        <time>2020-07-29T07:05:51Z</time>
      </trkpt>
      <trkpt lat="44.05834" lon="1.90205">
        <ele>243.60000610352</ele>
        <time>2020-07-29T07:05:58Z</time>
      </trkpt>
      <trkpt lat="44.05834" lon="1.90204">
        <ele>243.60000610352</ele>
        <time>2020-07-29T07:05:59Z</time>
      </trkpt>
      <trkpt lat="44.05834" lon="1.9019">
        <ele>244.60000610352</ele>
        <time>2020-07-29T07:06:07Z</time>
      </trkpt>
      <trkpt lat="44.05831" lon="1.90184">
        <ele>245.39999389648</ele>
        <time>2020-07-29T07:06:11Z</time>
      </trkpt>
      <trkpt lat="44.05828" lon="1.90183">
        <ele>245.60000610352</ele>
        <time>2020-07-29T07:06:13Z</time>
      </trkpt>
      <trkpt lat="44.05827" lon="1.90183">
        <ele>245.80000305176</ele>
        <time>2020-07-29T07:06:14Z</time>
      </trkpt>
      <trkpt lat="44.05824" lon="1.90184">
        <ele>246.19999694824</ele>
        <time>2020-07-29T07:06:16Z</time>
      </trkpt>
      <trkpt lat="44.0582" lon="1.90187">
        <ele>247</ele>
        <time>2020-07-29T07:06:19Z</time>
      </trkpt>
      <trkpt lat="44.05817" lon="1.90186">
        <ele>247.39999389648</ele>
        <time>2020-07-29T07:06:21Z</time>
      </trkpt>
      <trkpt lat="44.05815" lon="1.90184">
        <ele>247.80000305176</ele>
        <time>2020-07-29T07:06:23Z</time>
      </trkpt>
      <trkpt lat="44.05813" lon="1.90182">
        <ele>248.19999694824</ele>
        <time>2020-07-29T07:06:25Z</time>
      </trkpt>
      <trkpt lat="44.0581" lon="1.9018">
        <ele>248.60000610352</ele>
        <time>2020-07-29T07:06:27Z</time>
      </trkpt>
      <trkpt lat="44.05807" lon="1.90177">
        <ele>249.39999389648</ele>
        <time>2020-07-29T07:06:30Z</time>
      </trkpt>
      <trkpt lat="44.05803" lon="1.90175">
        <ele>250.19999694824</ele>
        <time>2020-07-29T07:06:34Z</time>
      </trkpt>
      <trkpt lat="44.05802" lon="1.90173">
        <ele>250.39999389648</ele>
        <time>2020-07-29T07:06:35Z</time>
      </trkpt>
      <trkpt lat="44.05791" lon="1.9017">
        <ele>252.19999694824</ele>
        <time>2020-07-29T07:19:11Z</time>
      </trkpt>
      <trkpt lat="44.0579" lon="1.90171">
        <ele>252.19999694824</ele>
        <time>2020-07-29T07:19:12Z</time>
      </trkpt>
      <trkpt lat="44.05784" lon="1.90175">
        <ele>252.39999389648</ele>
        <time>2020-07-29T07:19:16Z</time>
      </trkpt>
      <trkpt lat="44.05781" lon="1.90175">
        <ele>252.39999389648</ele>
        <time>2020-07-29T07:19:18Z</time>
      </trkpt>
      <trkpt lat="44.05768" lon="1.90174">
        <ele>253.60000610352</ele>
        <time>2020-07-29T07:19:51Z</time>
      </trkpt>
      <trkpt lat="44.05759" lon="1.90169">
        <ele>254</ele>
        <time>2020-07-29T07:19:57Z</time>
      </trkpt>
      <trkpt lat="44.0575" lon="1.90157">
        <ele>254.60000610352</ele>
        <time>2020-07-29T07:20:04Z</time>
      </trkpt>
      <trkpt lat="44.05746" lon="1.90152">
        <ele>255</ele>
        <time>2020-07-29T07:20:07Z</time>
      </trkpt>
      <trkpt lat="44.05743" lon="1.90147">
        <ele>255.39999389648</ele>
        <time>2020-07-29T07:20:10Z</time>
      </trkpt>
      <trkpt lat="44.05741" lon="1.90144">
        <ele>255.80000305176</ele>
        <time>2020-07-29T07:20:12Z</time>
      </trkpt>
      <trkpt lat="44.05731" lon="1.90132">
        <ele>256.60000610352</ele>
        <time>2020-07-29T07:20:18Z</time>
      </trkpt>
      <trkpt lat="44.05729" lon="1.90127">
        <ele>256.79998779297</ele>
        <time>2020-07-29T07:20:20Z</time>
      </trkpt>
      <trkpt lat="44.05725" lon="1.90119">
        <ele>257.39999389648</ele>
        <time>2020-07-29T07:20:24Z</time>
      </trkpt>
      <trkpt lat="44.05722" lon="1.90111">
        <ele>258</ele>
        <time>2020-07-29T07:20:27Z</time>
      </trkpt>
      <trkpt lat="44.05718" lon="1.90101">
        <ele>258.60000610352</ele>
        <time>2020-07-29T07:20:31Z</time>
      </trkpt>
      <trkpt lat="44.05716" lon="1.90092">
        <ele>259</ele>
        <time>2020-07-29T07:20:34Z</time>
      </trkpt>
      <trkpt lat="44.05711" lon="1.90077">
        <ele>259.60000610352</ele>
        <time>2020-07-29T07:20:39Z</time>
      </trkpt>
      <trkpt lat="44.05708" lon="1.90069">
        <ele>260</ele>
        <time>2020-07-29T07:20:42Z</time>
      </trkpt>
      <trkpt lat="44.05702" lon="1.90059">
        <ele>260.39999389648</ele>
        <time>2020-07-29T07:20:46Z</time>
      </trkpt>
      <trkpt lat="44.05685" lon="1.90045">
        <ele>260.79998779297</ele>
        <time>2020-07-29T07:20:53Z</time>
      </trkpt>
      <trkpt lat="44.05668" lon="1.9004">
        <ele>260.60000610352</ele>
        <time>2020-07-29T07:20:59Z</time>
      </trkpt>
      <trkpt lat="44.05642" lon="1.90039">
        <ele>260.39999389648</ele>
        <time>2020-07-29T07:21:08Z</time>
      </trkpt>
      <trkpt lat="44.05622" lon="1.90041">
        <ele>260.60000610352</ele>
        <time>2020-07-29T07:21:15Z</time>
      </trkpt>
      <trkpt lat="44.05607" lon="1.90044">
        <ele>260.79998779297</ele>
        <time>2020-07-29T07:21:22Z</time>
      </trkpt>
      <trkpt lat="44.05607" lon="1.90047">
        <ele>261.20001220703</ele>
        <time>2020-07-29T07:21:24Z</time>
      </trkpt>
      <trkpt lat="44.05608" lon="1.90048">
        <ele>261.20001220703</ele>
        <time>2020-07-29T07:21:25Z</time>
      </trkpt>
      <trkpt lat="44.05611" lon="1.90048">
        <ele>261.39999389648</ele>
        <time>2020-07-29T07:21:27Z</time>
      </trkpt>
      <trkpt lat="44.05611" lon="1.90044">
        <ele>261.39999389648</ele>
        <time>2020-07-29T07:21:29Z</time>
      </trkpt>
      <trkpt lat="44.0561" lon="1.90039">
        <ele>261.20001220703</ele>
        <time>2020-07-29T07:21:31Z</time>
      </trkpt>
      <trkpt lat="44.05606" lon="1.90033">
        <ele>261.20001220703</ele>
        <time>2020-07-29T07:21:34Z</time>
      </trkpt>
      <trkpt lat="44.05604" lon="1.90025">
        <ele>261.39999389648</ele>
        <time>2020-07-29T07:21:38Z</time>
      </trkpt>
      <trkpt lat="44.056" lon="1.90014">
        <ele>261.39999389648</ele>
        <time>2020-07-29T07:21:44Z</time>
      </trkpt>
      <trkpt lat="44.05597" lon="1.90001">
        <ele>261.39999389648</ele>
        <time>2020-07-29T07:21:49Z</time>
      </trkpt>
      <trkpt lat="44.05594" lon="1.89984">
        <ele>261.39999389648</ele>
        <time>2020-07-29T07:21:56Z</time>
      </trkpt>
      <trkpt lat="44.05589" lon="1.89968">
        <ele>261.20001220703</ele>
        <time>2020-07-29T07:22:02Z</time>
      </trkpt>
      <trkpt lat="44.05583" lon="1.89946">
        <ele>261.39999389648</ele>
        <time>2020-07-29T07:22:09Z</time>
      </trkpt>
      <trkpt lat="44.05578" lon="1.89922">
        <ele>261.20001220703</ele>
        <time>2020-07-29T07:22:15Z</time>
      </trkpt>
      <trkpt lat="44.05571" lon="1.89896">
        <ele>261.20001220703</ele>
        <time>2020-07-29T07:22:22Z</time>
      </trkpt>
      <trkpt lat="44.05562" lon="1.89872">
        <ele>261.20001220703</ele>
        <time>2020-07-29T07:22:29Z</time>
      </trkpt>
      <trkpt lat="44.0555" lon="1.8984">
        <ele>261.20001220703</ele>
        <time>2020-07-29T07:22:37Z</time>
      </trkpt>
      <trkpt lat="44.05536" lon="1.89805">
        <ele>261</ele>
        <time>2020-07-29T07:22:45Z</time>
      </trkpt>
      <trkpt lat="44.05526" lon="1.89774">
        <ele>261</ele>
        <time>2020-07-29T07:22:52Z</time>
      </trkpt>
      <trkpt lat="44.05516" lon="1.89741">
        <ele>261.79998779297</ele>
        <time>2020-07-29T07:23:01Z</time>
      </trkpt>
      <trkpt lat="44.05513" lon="1.89731">
        <ele>262.20001220703</ele>
        <time>2020-07-29T07:23:04Z</time>
      </trkpt>
      <trkpt lat="44.0551" lon="1.89721">
        <ele>263</ele>
        <time>2020-07-29T07:23:08Z</time>
      </trkpt>
      <trkpt lat="44.0551" lon="1.89719">
        <ele>263.20001220703</ele>
        <time>2020-07-29T07:23:09Z</time>
      </trkpt>
      <trkpt lat="44.05508" lon="1.89712">
        <ele>264</ele>
        <time>2020-07-29T07:23:12Z</time>
      </trkpt>
      <trkpt lat="44.05507" lon="1.89708">
        <ele>264.60000610352</ele>
        <time>2020-07-29T07:23:14Z</time>
      </trkpt>
      <trkpt lat="44.05504" lon="1.89693">
        <ele>265.79998779297</ele>
        <time>2020-07-29T07:23:20Z</time>
      </trkpt>
      <trkpt lat="44.05503" lon="1.8969">
        <ele>266</ele>
        <time>2020-07-29T07:23:21Z</time>
      </trkpt>
      <trkpt lat="44.05496" lon="1.8967">
        <ele>266.60000610352</ele>
        <time>2020-07-29T07:23:28Z</time>
      </trkpt>
      <trkpt lat="44.05493" lon="1.89661">
        <ele>266.79998779297</ele>
        <time>2020-07-29T07:23:31Z</time>
      </trkpt>
      <trkpt lat="44.05485" lon="1.89651">
        <ele>267</ele>
        <time>2020-07-29T07:23:35Z</time>
      </trkpt>
      <trkpt lat="44.05477" lon="1.8963">
        <ele>267.20001220703</ele>
        <time>2020-07-29T07:23:42Z</time>
      </trkpt>
      <trkpt lat="44.0547" lon="1.89614">
        <ele>267.20001220703</ele>
        <time>2020-07-29T07:23:47Z</time>
      </trkpt>
      <trkpt lat="44.05468" lon="1.89611">
        <ele>267.20001220703</ele>
        <time>2020-07-29T07:23:48Z</time>
      </trkpt>
      <trkpt lat="44.05455" lon="1.8959">
        <ele>267.39999389648</ele>
        <time>2020-07-29T07:23:56Z</time>
      </trkpt>
      <trkpt lat="44.05444" lon="1.89575">
        <ele>267.79998779297</ele>
        <time>2020-07-29T07:24:02Z</time>
      </trkpt>
      <trkpt lat="44.05441" lon="1.8957">
        <ele>268</ele>
        <time>2020-07-29T07:24:04Z</time>
      </trkpt>
      <trkpt lat="44.05429" lon="1.89552">
        <ele>268.60000610352</ele>
        <time>2020-07-29T07:24:11Z</time>
      </trkpt>
      <trkpt lat="44.05424" lon="1.89545">
        <ele>268.79998779297</ele>
        <time>2020-07-29T07:24:15Z</time>
      </trkpt>
      <trkpt lat="44.0542" lon="1.89539">
        <ele>269.20001220703</ele>
        <time>2020-07-29T07:24:18Z</time>
      </trkpt>
      <trkpt lat="44.0541" lon="1.89526">
        <ele>269.79998779297</ele>
        <time>2020-07-29T07:24:25Z</time>
      </trkpt>
      <trkpt lat="44.05409" lon="1.89524">
        <ele>270</ele>
        <time>2020-07-29T07:24:26Z</time>
      </trkpt>
      <trkpt lat="44.05401" lon="1.89516">
        <ele>270.39999389648</ele>
        <time>2020-07-29T07:24:31Z</time>
      </trkpt>
      <trkpt lat="44.0539" lon="1.89508">
        <ele>270.39999389648</ele>
        <time>2020-07-29T07:24:36Z</time>
      </trkpt>
      <trkpt lat="44.05377" lon="1.89505">
        <ele>270.39999389648</ele>
        <time>2020-07-29T07:24:41Z</time>
      </trkpt>
      <trkpt lat="44.05368" lon="1.895">
        <ele>270.20001220703</ele>
        <time>2020-07-29T07:24:45Z</time>
      </trkpt>
      <trkpt lat="44.05367" lon="1.89498">
        <ele>270.20001220703</ele>
        <time>2020-07-29T07:24:46Z</time>
      </trkpt>
      <trkpt lat="44.05366" lon="1.89484">
        <ele>270</ele>
        <time>2020-07-29T07:24:52Z</time>
      </trkpt>
      <trkpt lat="44.05365" lon="1.89481">
        <ele>270</ele>
        <time>2020-07-29T07:24:53Z</time>
      </trkpt>
      <trkpt lat="44.05356" lon="1.89474">
        <ele>269.60000610352</ele>
        <time>2020-07-29T07:24:57Z</time>
      </trkpt>
      <trkpt lat="44.0534" lon="1.8946">
        <ele>268.79998779297</ele>
        <time>2020-07-29T07:25:03Z</time>
      </trkpt>
      <trkpt lat="44.05331" lon="1.89447">
        <ele>268.39999389648</ele>
        <time>2020-07-29T07:25:08Z</time>
      </trkpt>
      <trkpt lat="44.05328" lon="1.89442">
        <ele>268.20001220703</ele>
        <time>2020-07-29T07:25:45Z</time>
      </trkpt>
      <trkpt lat="44.0532" lon="1.89427">
        <ele>268</ele>
        <time>2020-07-29T07:25:51Z</time>
      </trkpt>
      <trkpt lat="44.05311" lon="1.89415">
        <ele>267.79998779297</ele>
        <time>2020-07-29T07:25:56Z</time>
      </trkpt>
      <trkpt lat="44.05307" lon="1.89407">
        <ele>267.79998779297</ele>
        <time>2020-07-29T07:25:59Z</time>
      </trkpt>
      <trkpt lat="44.05297" lon="1.89389">
        <ele>268.20001220703</ele>
        <time>2020-07-29T07:26:05Z</time>
      </trkpt>
      <trkpt lat="44.05283" lon="1.89371">
        <ele>268.60000610352</ele>
        <time>2020-07-29T07:26:12Z</time>
      </trkpt>
      <trkpt lat="44.05271" lon="1.89357">
        <ele>268.39999389648</ele>
        <time>2020-07-29T07:26:17Z</time>
      </trkpt>
      <trkpt lat="44.05258" lon="1.89345">
        <ele>268.20001220703</ele>
        <time>2020-07-29T07:26:22Z</time>
      </trkpt>
      <trkpt lat="44.05243" lon="1.89326">
        <ele>267.60000610352</ele>
        <time>2020-07-29T07:26:28Z</time>
      </trkpt>
      <trkpt lat="44.05224" lon="1.893">
        <ele>267</ele>
        <time>2020-07-29T07:26:35Z</time>
      </trkpt>
      <trkpt lat="44.05218" lon="1.89292">
        <ele>266.79998779297</ele>
        <time>2020-07-29T07:26:37Z</time>
      </trkpt>
      <trkpt lat="44.05207" lon="1.8928">
        <ele>266.39999389648</ele>
        <time>2020-07-29T07:26:41Z</time>
      </trkpt>
      <trkpt lat="44.05191" lon="1.89258">
        <ele>266.20001220703</ele>
        <time>2020-07-29T07:26:48Z</time>
      </trkpt>
      <trkpt lat="44.05177" lon="1.89237">
        <ele>266.20001220703</ele>
        <time>2020-07-29T07:26:54Z</time>
      </trkpt>
      <trkpt lat="44.05167" lon="1.89222">
        <ele>265.79998779297</ele>
        <time>2020-07-29T07:26:58Z</time>
      </trkpt>
      <trkpt lat="44.05159" lon="1.89208">
        <ele>265.79998779297</ele>
        <time>2020-07-29T07:27:02Z</time>
      </trkpt>
      <trkpt lat="44.05142" lon="1.89183">
        <ele>266.79998779297</ele>
        <time>2020-07-29T07:27:10Z</time>
      </trkpt>
      <trkpt lat="44.05139" lon="1.89177">
        <ele>267</ele>
        <time>2020-07-29T07:27:12Z</time>
      </trkpt>
      <trkpt lat="44.0513" lon="1.8916">
        <ele>268</ele>
        <time>2020-07-29T07:27:18Z</time>
      </trkpt>
      <trkpt lat="44.05126" lon="1.89152">
        <ele>268.39999389648</ele>
        <time>2020-07-29T07:27:21Z</time>
      </trkpt>
      <trkpt lat="44.05117" lon="1.89135">
        <ele>269</ele>
        <time>2020-07-29T07:27:27Z</time>
      </trkpt>
      <trkpt lat="44.05116" lon="1.89131">
        <ele>269</ele>
        <time>2020-07-29T07:27:28Z</time>
      </trkpt>
      <trkpt lat="44.0511" lon="1.89113">
        <ele>269.79998779297</ele>
        <time>2020-07-29T07:27:34Z</time>
      </trkpt>
      <trkpt lat="44.05109" lon="1.89107">
        <ele>270.20001220703</ele>
        <time>2020-07-29T07:27:36Z</time>
      </trkpt>
      <trkpt lat="44.05109" lon="1.89091">
        <ele>271.20001220703</ele>
        <time>2020-07-29T07:27:41Z</time>
      </trkpt>
      <trkpt lat="44.05108" lon="1.89065">
        <ele>272</ele>
        <time>2020-07-29T07:27:49Z</time>
      </trkpt>
      <trkpt lat="44.05108" lon="1.89059">
        <ele>272.20001220703</ele>
        <time>2020-07-29T07:27:51Z</time>
      </trkpt>
      <trkpt lat="44.05105" lon="1.89037">
        <ele>272.79998779297</ele>
        <time>2020-07-29T07:27:58Z</time>
      </trkpt>
      <trkpt lat="44.05104" lon="1.89028">
        <ele>273.20001220703</ele>
        <time>2020-07-29T07:28:01Z</time>
      </trkpt>
      <trkpt lat="44.05098" lon="1.89007">
        <ele>273.79998779297</ele>
        <time>2020-07-29T07:28:08Z</time>
      </trkpt>
      <trkpt lat="44.05092" lon="1.88985">
        <ele>274.20001220703</ele>
        <time>2020-07-29T07:28:15Z</time>
      </trkpt>
      <trkpt lat="44.05089" lon="1.88979">
        <ele>274.39999389648</ele>
        <time>2020-07-29T07:28:17Z</time>
      </trkpt>
      <trkpt lat="44.05077" lon="1.88961">
        <ele>275</ele>
        <time>2020-07-29T07:28:24Z</time>
      </trkpt>
      <trkpt lat="44.05057" lon="1.88939">
        <ele>275.39999389648</ele>
        <time>2020-07-29T07:28:34Z</time>
      </trkpt>
      <trkpt lat="44.05054" lon="1.88937">
        <ele>275.39999389648</ele>
        <time>2020-07-29T07:28:35Z</time>
      </trkpt>
      <trkpt lat="44.05034" lon="1.88917">
        <ele>275.60000610352</ele>
        <time>2020-07-29T07:28:44Z</time>
      </trkpt>
      <trkpt lat="44.05015" lon="1.88903">
        <ele>275.20001220703</ele>
        <time>2020-07-29T07:28:51Z</time>
      </trkpt>
      <trkpt lat="44.05001" lon="1.88893">
        <ele>275.20001220703</ele>
        <time>2020-07-29T07:28:56Z</time>
      </trkpt>
      <trkpt lat="44.04979" lon="1.88868">
        <ele>274.79998779297</ele>
        <time>2020-07-29T07:29:04Z</time>
      </trkpt>
      <trkpt lat="44.04961" lon="1.88849">
        <ele>274.20001220703</ele>
        <time>2020-07-29T07:29:10Z</time>
      </trkpt>
      <trkpt lat="44.04958" lon="1.88845">
        <ele>274.20001220703</ele>
        <time>2020-07-29T07:29:11Z</time>
      </trkpt>
      <trkpt lat="44.04952" lon="1.88837">
        <ele>274</ele>
        <time>2020-07-29T07:29:13Z</time>
      </trkpt>
      <trkpt lat="44.04945" lon="1.88829">
        <ele>273.39999389648</ele>
        <time>2020-07-29T07:29:15Z</time>
      </trkpt>
      <trkpt lat="44.04938" lon="1.88821">
        <ele>273.20001220703</ele>
        <time>2020-07-29T07:29:17Z</time>
      </trkpt>
      <trkpt lat="44.04917" lon="1.88797">
        <ele>272</ele>
        <time>2020-07-29T07:29:23Z</time>
      </trkpt>
      <trkpt lat="44.04897" lon="1.88773">
        <ele>271.60000610352</ele>
        <time>2020-07-29T07:29:30Z</time>
      </trkpt>
      <trkpt lat="44.04881" lon="1.88744">
        <ele>271.79998779297</ele>
        <time>2020-07-29T07:29:37Z</time>
      </trkpt>
      <trkpt lat="44.04872" lon="1.88716">
        <ele>271.39999389648</ele>
        <time>2020-07-29T07:29:43Z</time>
      </trkpt>
      <trkpt lat="44.04859" lon="1.8868">
        <ele>271.20001220703</ele>
        <time>2020-07-29T07:29:51Z</time>
      </trkpt>
      <trkpt lat="44.04843" lon="1.8864">
        <ele>271.79998779297</ele>
        <time>2020-07-29T07:30:01Z</time>
      </trkpt>
      <trkpt lat="44.04831" lon="1.88624">
        <ele>272.20001220703</ele>
        <time>2020-07-29T07:30:07Z</time>
      </trkpt>
      <trkpt lat="44.04815" lon="1.88621">
        <ele>273</ele>
        <time>2020-07-29T07:30:13Z</time>
      </trkpt>
      <trkpt lat="44.04812" lon="1.88621">
        <ele>273.20001220703</ele>
        <time>2020-07-29T07:30:14Z</time>
      </trkpt>
      <trkpt lat="44.04787" lon="1.8862">
        <ele>274.20001220703</ele>
        <time>2020-07-29T07:30:23Z</time>
      </trkpt>
      <trkpt lat="44.04768" lon="1.8862">
        <ele>275</ele>
        <time>2020-07-29T07:30:30Z</time>
      </trkpt>
      <trkpt lat="44.0476" lon="1.88618">
        <ele>275.20001220703</ele>
        <time>2020-07-29T07:30:33Z</time>
      </trkpt>
      <trkpt lat="44.0475" lon="1.88616">
        <ele>275.60000610352</ele>
        <time>2020-07-29T07:30:37Z</time>
      </trkpt>
      <trkpt lat="44.04731" lon="1.88608">
        <ele>276.20001220703</ele>
        <time>2020-07-29T07:30:44Z</time>
      </trkpt>
      <trkpt lat="44.04726" lon="1.88605">
        <ele>276.39999389648</ele>
        <time>2020-07-29T07:30:46Z</time>
      </trkpt>
      <trkpt lat="44.04706" lon="1.88592">
        <ele>277</ele>
        <time>2020-07-29T07:30:54Z</time>
      </trkpt>
      <trkpt lat="44.04701" lon="1.88588">
        <ele>277.20001220703</ele>
        <time>2020-07-29T07:30:56Z</time>
      </trkpt>
      <trkpt lat="44.04691" lon="1.88581">
        <ele>277.39999389648</ele>
        <time>2020-07-29T07:31:00Z</time>
      </trkpt>
      <trkpt lat="44.04674" lon="1.88565">
        <ele>278.39999389648</ele>
        <time>2020-07-29T07:31:08Z</time>
      </trkpt>
      <trkpt lat="44.04651" lon="1.88543">
        <ele>279.39999389648</ele>
        <time>2020-07-29T07:31:19Z</time>
      </trkpt>
      <trkpt lat="44.04649" lon="1.88541">
        <ele>279.39999389648</ele>
        <time>2020-07-29T07:31:20Z</time>
      </trkpt>
      <trkpt lat="44.04641" lon="1.88534">
        <ele>279.79998779297</ele>
        <time>2020-07-29T07:31:24Z</time>
      </trkpt>
      <trkpt lat="44.04631" lon="1.88525">
        <ele>280.39999389648</ele>
        <time>2020-07-29T07:31:29Z</time>
      </trkpt>
      <trkpt lat="44.04629" lon="1.88523">
        <ele>280.39999389648</ele>
        <time>2020-07-29T07:31:30Z</time>
      </trkpt>
      <trkpt lat="44.04613" lon="1.8851">
        <ele>281.20001220703</ele>
        <time>2020-07-29T07:31:38Z</time>
      </trkpt>
      <trkpt lat="44.04609" lon="1.88507">
        <ele>281.39999389648</ele>
        <time>2020-07-29T07:31:40Z</time>
      </trkpt>
      <trkpt lat="44.04597" lon="1.88498">
        <ele>281.60000610352</ele>
        <time>2020-07-29T07:31:46Z</time>
      </trkpt>
      <trkpt lat="44.04581" lon="1.88488">
        <ele>282</ele>
        <time>2020-07-29T07:31:53Z</time>
      </trkpt>
      <trkpt lat="44.04568" lon="1.88481">
        <ele>282.20001220703</ele>
        <time>2020-07-29T07:31:59Z</time>
      </trkpt>
      <trkpt lat="44.04553" lon="1.88473">
        <ele>282.39999389648</ele>
        <time>2020-07-29T07:32:05Z</time>
      </trkpt>
      <trkpt lat="44.0455" lon="1.88472">
        <ele>282.39999389648</ele>
        <time>2020-07-29T07:32:06Z</time>
      </trkpt>
      <trkpt lat="44.04533" lon="1.88467">
        <ele>282.60000610352</ele>
        <time>2020-07-29T07:32:12Z</time>
      </trkpt>
      <trkpt lat="44.04503" lon="1.88461">
        <ele>283</ele>
        <time>2020-07-29T07:32:23Z</time>
      </trkpt>
      <trkpt lat="44.04484" lon="1.88461">
        <ele>283.60000610352</ele>
        <time>2020-07-29T07:32:30Z</time>
      </trkpt>
      <trkpt lat="44.04481" lon="1.8846">
        <ele>283.60000610352</ele>
        <time>2020-07-29T07:32:31Z</time>
      </trkpt>
      <trkpt lat="44.04461" lon="1.88458">
        <ele>284</ele>
        <time>2020-07-29T07:32:38Z</time>
      </trkpt>
      <trkpt lat="44.04451" lon="1.88454">
        <ele>284.20001220703</ele>
        <time>2020-07-29T07:32:42Z</time>
      </trkpt>
      <trkpt lat="44.04448" lon="1.88448">
        <ele>284.20001220703</ele>
        <time>2020-07-29T07:32:44Z</time>
      </trkpt>
      <trkpt lat="44.04443" lon="1.88431">
        <ele>284.60000610352</ele>
        <time>2020-07-29T07:32:49Z</time>
      </trkpt>
      <trkpt lat="44.04443" lon="1.88428">
        <ele>284.60000610352</ele>
        <time>2020-07-29T07:32:50Z</time>
      </trkpt>
      <trkpt lat="44.04434" lon="1.88394">
        <ele>285.60000610352</ele>
        <time>2020-07-29T07:32:59Z</time>
      </trkpt>
      <trkpt lat="44.04432" lon="1.88386">
        <ele>285.60000610352</ele>
        <time>2020-07-29T07:33:01Z</time>
      </trkpt>
      <trkpt lat="44.04429" lon="1.88371">
        <ele>285.79998779297</ele>
        <time>2020-07-29T07:33:05Z</time>
      </trkpt>
      <trkpt lat="44.04422" lon="1.88338">
        <ele>285.60000610352</ele>
        <time>2020-07-29T07:33:13Z</time>
      </trkpt>
      <trkpt lat="44.04413" lon="1.88292">
        <ele>285.20001220703</ele>
        <time>2020-07-29T07:33:22Z</time>
      </trkpt>
      <trkpt lat="44.04402" lon="1.88237">
        <ele>285</ele>
        <time>2020-07-29T07:33:32Z</time>
      </trkpt>
      <trkpt lat="44.04388" lon="1.88174">
        <ele>284.60000610352</ele>
        <time>2020-07-29T07:33:43Z</time>
      </trkpt>
      <trkpt lat="44.04374" lon="1.88112">
        <ele>285</ele>
        <time>2020-07-29T07:33:54Z</time>
      </trkpt>
      <trkpt lat="44.04364" lon="1.8806">
        <ele>285.60000610352</ele>
        <time>2020-07-29T07:34:04Z</time>
      </trkpt>
      <trkpt lat="44.04361" lon="1.88024">
        <ele>286.20001220703</ele>
        <time>2020-07-29T07:34:12Z</time>
      </trkpt>
      <trkpt lat="44.04361" lon="1.88012">
        <ele>286.79998779297</ele>
        <time>2020-07-29T07:34:15Z</time>
      </trkpt>
      <trkpt lat="44.0436" lon="1.88">
        <ele>287.20001220703</ele>
        <time>2020-07-29T07:34:18Z</time>
      </trkpt>
      <trkpt lat="44.0436" lon="1.87975">
        <ele>287.79998779297</ele>
        <time>2020-07-29T07:34:24Z</time>
      </trkpt>
      <trkpt lat="44.04358" lon="1.87955">
        <ele>288.20001220703</ele>
        <time>2020-07-29T07:34:29Z</time>
      </trkpt>
      <trkpt lat="44.04356" lon="1.87932">
        <ele>288.79998779297</ele>
        <time>2020-07-29T07:34:35Z</time>
      </trkpt>
      <trkpt lat="44.04355" lon="1.87929">
        <ele>289</ele>
        <time>2020-07-29T07:34:36Z</time>
      </trkpt>
      <trkpt lat="44.04355" lon="1.87919">
        <ele>289.20001220703</ele>
        <time>2020-07-29T07:34:39Z</time>
      </trkpt>
      <trkpt lat="44.04357" lon="1.87917">
        <ele>289.20001220703</ele>
        <time>2020-07-29T07:34:40Z</time>
      </trkpt>
      <trkpt lat="44.04367" lon="1.87918">
        <ele>289.20001220703</ele>
        <time>2020-07-29T07:34:44Z</time>
      </trkpt>
      <trkpt lat="44.04385" lon="1.87925">
        <ele>288.39999389648</ele>
        <time>2020-07-29T07:34:50Z</time>
      </trkpt>
      <trkpt lat="44.04407" lon="1.87933">
        <ele>288.39999389648</ele>
        <time>2020-07-29T07:34:58Z</time>
      </trkpt>
      <trkpt lat="44.0442" lon="1.87926">
        <ele>288.60000610352</ele>
        <time>2020-07-29T07:35:03Z</time>
      </trkpt>
      <trkpt lat="44.0443" lon="1.87908">
        <ele>289.60000610352</ele>
        <time>2020-07-29T07:35:09Z</time>
      </trkpt>
      <trkpt lat="44.04434" lon="1.87902">
        <ele>290</ele>
        <time>2020-07-29T07:35:11Z</time>
      </trkpt>
      <trkpt lat="44.04446" lon="1.8789">
        <ele>290.79998779297</ele>
        <time>2020-07-29T07:35:16Z</time>
      </trkpt>
      <trkpt lat="44.04457" lon="1.87878">
        <ele>291</ele>
        <time>2020-07-29T07:35:21Z</time>
      </trkpt>
      <trkpt lat="44.04464" lon="1.87871">
        <ele>291.20001220703</ele>
        <time>2020-07-29T07:35:24Z</time>
      </trkpt>
      <trkpt lat="44.04476" lon="1.8785">
        <ele>291.39999389648</ele>
        <time>2020-07-29T07:35:31Z</time>
      </trkpt>
      <trkpt lat="44.04492" lon="1.87821">
        <ele>290.79998779297</ele>
        <time>2020-07-29T07:35:38Z</time>
      </trkpt>
      <trkpt lat="44.04499" lon="1.87806">
        <ele>290</ele>
        <time>2020-07-29T07:35:41Z</time>
      </trkpt>
      <trkpt lat="44.04505" lon="1.87789">
        <ele>289.20001220703</ele>
        <time>2020-07-29T07:35:44Z</time>
      </trkpt>
      <trkpt lat="44.04508" lon="1.87783">
        <ele>289.20001220703</ele>
        <time>2020-07-29T07:35:45Z</time>
      </trkpt>
      <trkpt lat="44.04513" lon="1.87771">
        <ele>288.79998779297</ele>
        <time>2020-07-29T07:35:47Z</time>
      </trkpt>
      <trkpt lat="44.04528" lon="1.87737">
        <ele>287.60000610352</ele>
        <time>2020-07-29T07:35:53Z</time>
      </trkpt>
      <trkpt lat="44.0453" lon="1.87732">
        <ele>287.39999389648</ele>
        <time>2020-07-29T07:35:54Z</time>
      </trkpt>
      <trkpt lat="44.04532" lon="1.87728">
        <ele>287.39999389648</ele>
        <time>2020-07-29T07:35:55Z</time>
      </trkpt>
      <trkpt lat="44.04546" lon="1.87699">
        <ele>286.60000610352</ele>
        <time>2020-07-29T07:36:01Z</time>
      </trkpt>
      <trkpt lat="44.04553" lon="1.87683">
        <ele>286.20001220703</ele>
        <time>2020-07-29T07:36:05Z</time>
      </trkpt>
      <trkpt lat="44.04565" lon="1.87657">
        <ele>285.79998779297</ele>
        <time>2020-07-29T07:36:12Z</time>
      </trkpt>
      <trkpt lat="44.04571" lon="1.87644">
        <ele>285.60000610352</ele>
        <time>2020-07-29T07:36:15Z</time>
      </trkpt>
      <trkpt lat="44.04582" lon="1.87622">
        <ele>285</ele>
        <time>2020-07-29T07:36:20Z</time>
      </trkpt>
      <trkpt lat="44.04589" lon="1.87609">
        <ele>284.60000610352</ele>
        <time>2020-07-29T07:36:23Z</time>
      </trkpt>
      <trkpt lat="44.04597" lon="1.87591">
        <ele>284</ele>
        <time>2020-07-29T07:36:27Z</time>
      </trkpt>
      <trkpt lat="44.04606" lon="1.87573">
        <ele>283.39999389648</ele>
        <time>2020-07-29T07:36:31Z</time>
      </trkpt>
      <trkpt lat="44.04615" lon="1.87552">
        <ele>282.79998779297</ele>
        <time>2020-07-29T07:36:35Z</time>
      </trkpt>
      <trkpt lat="44.04622" lon="1.87536">
        <ele>282.20001220703</ele>
        <time>2020-07-29T07:36:38Z</time>
      </trkpt>
      <trkpt lat="44.04629" lon="1.87522">
        <ele>281.79998779297</ele>
        <time>2020-07-29T07:36:41Z</time>
      </trkpt>
      <trkpt lat="44.04638" lon="1.87498">
        <ele>281.20001220703</ele>
        <time>2020-07-29T07:36:46Z</time>
      </trkpt>
      <trkpt lat="44.04642" lon="1.87489">
        <ele>281</ele>
        <time>2020-07-29T07:36:48Z</time>
      </trkpt>
      <trkpt lat="44.04655" lon="1.87459">
        <ele>281.20001220703</ele>
        <time>2020-07-29T07:36:55Z</time>
      </trkpt>
      <trkpt lat="44.04663" lon="1.8743">
        <ele>282</ele>
        <time>2020-07-29T07:37:02Z</time>
      </trkpt>
      <trkpt lat="44.04675" lon="1.87393">
        <ele>282.20001220703</ele>
        <time>2020-07-29T07:37:10Z</time>
      </trkpt>
      <trkpt lat="44.04688" lon="1.8735">
        <ele>281.39999389648</ele>
        <time>2020-07-29T07:37:19Z</time>
      </trkpt>
      <trkpt lat="44.04698" lon="1.87319">
        <ele>281.20001220703</ele>
        <time>2020-07-29T07:37:26Z</time>
      </trkpt>
      <trkpt lat="44.04704" lon="1.87294">
        <ele>280.39999389648</ele>
        <time>2020-07-29T07:37:31Z</time>
      </trkpt>
      <trkpt lat="44.04705" lon="1.87289">
        <ele>280.20001220703</ele>
        <time>2020-07-29T07:37:32Z</time>
      </trkpt>
      <trkpt lat="44.0471" lon="1.87267">
        <ele>279</ele>
        <time>2020-07-29T07:37:36Z</time>
      </trkpt>
      <trkpt lat="44.04712" lon="1.87257">
        <ele>278.79998779297</ele>
        <time>2020-07-29T07:37:38Z</time>
      </trkpt>
      <trkpt lat="44.04722" lon="1.87214">
        <ele>278.79998779297</ele>
        <time>2020-07-29T07:37:47Z</time>
      </trkpt>
      <trkpt lat="44.0473" lon="1.87177">
        <ele>279.20001220703</ele>
        <time>2020-07-29T07:37:55Z</time>
      </trkpt>
      <trkpt lat="44.04741" lon="1.87137">
        <ele>279.79998779297</ele>
        <time>2020-07-29T07:38:04Z</time>
      </trkpt>
      <trkpt lat="44.04742" lon="1.87109">
        <ele>279.39999389648</ele>
        <time>2020-07-29T07:38:10Z</time>
      </trkpt>
      <trkpt lat="44.04745" lon="1.8708">
        <ele>279.39999389648</ele>
        <time>2020-07-29T07:38:16Z</time>
      </trkpt>
      <trkpt lat="44.04749" lon="1.87045">
        <ele>279.39999389648</ele>
        <time>2020-07-29T07:38:24Z</time>
      </trkpt>
      <trkpt lat="44.0475" lon="1.87029">
        <ele>279.39999389648</ele>
        <time>2020-07-29T07:38:29Z</time>
      </trkpt>
      <trkpt lat="44.04749" lon="1.87018">
        <ele>279.39999389648</ele>
        <time>2020-07-29T07:43:21Z</time>
      </trkpt>
      <trkpt lat="44.0475" lon="1.87011">
        <ele>279.39999389648</ele>
        <time>2020-07-29T07:43:23Z</time>
      </trkpt>
      <trkpt lat="44.04759" lon="1.86989">
        <ele>278.79998779297</ele>
        <time>2020-07-29T07:43:28Z</time>
      </trkpt>
      <trkpt lat="44.04769" lon="1.86968">
        <ele>277.79998779297</ele>
        <time>2020-07-29T07:43:32Z</time>
      </trkpt>
      <trkpt lat="44.04773" lon="1.86955">
        <ele>277.20001220703</ele>
        <time>2020-07-29T07:43:34Z</time>
      </trkpt>
      <trkpt lat="44.04775" lon="1.86947">
        <ele>276.79998779297</ele>
        <time>2020-07-29T07:43:35Z</time>
      </trkpt>
      <trkpt lat="44.04782" lon="1.86921">
        <ele>275.60000610352</ele>
        <time>2020-07-29T07:43:38Z</time>
      </trkpt>
      <trkpt lat="44.04784" lon="1.86912">
        <ele>275</ele>
        <time>2020-07-29T07:43:39Z</time>
      </trkpt>
      <trkpt lat="44.04786" lon="1.86903">
        <ele>273.79998779297</ele>
        <time>2020-07-29T07:43:40Z</time>
      </trkpt>
      <trkpt lat="44.04789" lon="1.86887">
        <ele>272.60000610352</ele>
        <time>2020-07-29T07:43:42Z</time>
      </trkpt>
      <trkpt lat="44.0479" lon="1.86872">
        <ele>271.60000610352</ele>
        <time>2020-07-29T07:43:44Z</time>
      </trkpt>
      <trkpt lat="44.0479" lon="1.86866">
        <ele>271.20001220703</ele>
        <time>2020-07-29T07:43:45Z</time>
      </trkpt>
      <trkpt lat="44.04792" lon="1.86837">
        <ele>269.79998779297</ele>
        <time>2020-07-29T07:43:49Z</time>
      </trkpt>
      <trkpt lat="44.04792" lon="1.86822">
        <ele>268.79998779297</ele>
        <time>2020-07-29T07:43:51Z</time>
      </trkpt>
      <trkpt lat="44.04792" lon="1.86814">
        <ele>268.20001220703</ele>
        <time>2020-07-29T07:43:52Z</time>
      </trkpt>
      <trkpt lat="44.04791" lon="1.86799">
        <ele>266.79998779297</ele>
        <time>2020-07-29T07:43:54Z</time>
      </trkpt>
      <trkpt lat="44.04789" lon="1.86784">
        <ele>265</ele>
        <time>2020-07-29T07:43:56Z</time>
      </trkpt>
      <trkpt lat="44.04788" lon="1.86777">
        <ele>264.20001220703</ele>
        <time>2020-07-29T07:43:57Z</time>
      </trkpt>
      <trkpt lat="44.04786" lon="1.8677">
        <ele>263.39999389648</ele>
        <time>2020-07-29T07:43:58Z</time>
      </trkpt>
      <trkpt lat="44.04779" lon="1.86756">
        <ele>261.60000610352</ele>
        <time>2020-07-29T07:44:00Z</time>
      </trkpt>
      <trkpt lat="44.04776" lon="1.86749">
        <ele>260.79998779297</ele>
        <time>2020-07-29T07:44:01Z</time>
      </trkpt>
      <trkpt lat="44.04773" lon="1.86741">
        <ele>260</ele>
        <time>2020-07-29T07:44:02Z</time>
      </trkpt>
      <trkpt lat="44.04767" lon="1.86727">
        <ele>256.79998779297</ele>
        <time>2020-07-29T07:44:04Z</time>
      </trkpt>
      <trkpt lat="44.04764" lon="1.8672">
        <ele>255.80000305176</ele>
        <time>2020-07-29T07:44:05Z</time>
      </trkpt>
      <trkpt lat="44.04762" lon="1.86712">
        <ele>254.80000305176</ele>
        <time>2020-07-29T07:44:06Z</time>
      </trkpt>
      <trkpt lat="44.0476" lon="1.86704">
        <ele>254</ele>
        <time>2020-07-29T07:44:07Z</time>
      </trkpt>
      <trkpt lat="44.04758" lon="1.86695">
        <ele>253.19999694824</ele>
        <time>2020-07-29T07:44:08Z</time>
      </trkpt>
      <trkpt lat="44.04756" lon="1.86687">
        <ele>252.60000610352</ele>
        <time>2020-07-29T07:44:09Z</time>
      </trkpt>
      <trkpt lat="44.04752" lon="1.86675">
        <ele>251.19999694824</ele>
        <time>2020-07-29T07:44:11Z</time>
      </trkpt>
      <trkpt lat="44.0474" lon="1.86674">
        <ele>250.39999389648</ele>
        <time>2020-07-29T07:44:14Z</time>
      </trkpt>
      <trkpt lat="44.04737" lon="1.86678">
        <ele>250.19999694824</ele>
        <time>2020-07-29T07:44:15Z</time>
      </trkpt>
      <trkpt lat="44.04731" lon="1.86686">
        <ele>250</ele>
        <time>2020-07-29T07:44:17Z</time>
      </trkpt>
      <trkpt lat="44.04728" lon="1.86691">
        <ele>250</ele>
        <time>2020-07-29T07:44:18Z</time>
      </trkpt>
      <trkpt lat="44.0472" lon="1.867">
        <ele>249.39999389648</ele>
        <time>2020-07-29T07:44:20Z</time>
      </trkpt>
      <trkpt lat="44.04715" lon="1.86704">
        <ele>249</ele>
        <time>2020-07-29T07:44:21Z</time>
      </trkpt>
      <trkpt lat="44.04709" lon="1.86708">
        <ele>248.39999389648</ele>
        <time>2020-07-29T07:44:22Z</time>
      </trkpt>
      <trkpt lat="44.04704" lon="1.86711">
        <ele>247.60000610352</ele>
        <time>2020-07-29T07:44:23Z</time>
      </trkpt>
      <trkpt lat="44.04698" lon="1.86714">
        <ele>246.39999389648</ele>
        <time>2020-07-29T07:44:24Z</time>
      </trkpt>
      <trkpt lat="44.04693" lon="1.86715">
        <ele>245.39999389648</ele>
        <time>2020-07-29T07:44:25Z</time>
      </trkpt>
      <trkpt lat="44.04689" lon="1.86715">
        <ele>244.19999694824</ele>
        <time>2020-07-29T07:44:26Z</time>
      </trkpt>
      <trkpt lat="44.04683" lon="1.86711">
        <ele>243.19999694824</ele>
        <time>2020-07-29T07:44:28Z</time>
      </trkpt>
      <trkpt lat="44.04681" lon="1.86708">
        <ele>243.39999389648</ele>
        <time>2020-07-29T07:44:29Z</time>
      </trkpt>
      <trkpt lat="44.0468" lon="1.86697">
        <ele>244.39999389648</ele>
        <time>2020-07-29T07:44:32Z</time>
      </trkpt>
      <trkpt lat="44.0468" lon="1.86694">
        <ele>245</ele>
        <time>2020-07-29T07:44:33Z</time>
      </trkpt>
      <trkpt lat="44.04679" lon="1.86688">
        <ele>245.80000305176</ele>
        <time>2020-07-29T07:44:35Z</time>
      </trkpt>
      <trkpt lat="44.04678" lon="1.86677">
        <ele>247</ele>
        <time>2020-07-29T07:44:39Z</time>
      </trkpt>
      <trkpt lat="44.04678" lon="1.86669">
        <ele>248</ele>
        <time>2020-07-29T07:44:42Z</time>
      </trkpt>
      <trkpt lat="44.04677" lon="1.86667">
        <ele>248.39999389648</ele>
        <time>2020-07-29T07:44:43Z</time>
      </trkpt>
      <trkpt lat="44.04673" lon="1.86657">
        <ele>249.19999694824</ele>
        <time>2020-07-29T07:44:47Z</time>
      </trkpt>
      <trkpt lat="44.04668" lon="1.86653">
        <ele>249.19999694824</ele>
        <time>2020-07-29T07:44:49Z</time>
      </trkpt>
      <trkpt lat="44.04654" lon="1.86641">
        <ele>248</ele>
        <time>2020-07-29T07:44:55Z</time>
      </trkpt>
      <trkpt lat="44.04648" lon="1.86634">
        <ele>247.60000610352</ele>
        <time>2020-07-29T07:44:56Z</time>
      </trkpt>
      <trkpt lat="44.04637" lon="1.86624">
        <ele>246.80000305176</ele>
        <time>2020-07-29T07:44:58Z</time>
      </trkpt>
      <trkpt lat="44.04614" lon="1.86608">
        <ele>246</ele>
        <time>2020-07-29T07:45:03Z</time>
      </trkpt>
      <trkpt lat="44.04594" lon="1.86598">
        <ele>245.60000610352</ele>
        <time>2020-07-29T07:45:07Z</time>
      </trkpt>
      <trkpt lat="44.04578" lon="1.86589">
        <ele>244.19999694824</ele>
        <time>2020-07-29T07:45:09Z</time>
      </trkpt>
      <trkpt lat="44.04571" lon="1.86584">
        <ele>243.19999694824</ele>
        <time>2020-07-29T07:45:10Z</time>
      </trkpt>
      <trkpt lat="44.04565" lon="1.8658">
        <ele>242.19999694824</ele>
        <time>2020-07-29T07:45:11Z</time>
      </trkpt>
      <trkpt lat="44.04552" lon="1.86574">
        <ele>241.39999389648</ele>
        <time>2020-07-29T07:45:15Z</time>
      </trkpt>
      <trkpt lat="44.04549" lon="1.86572">
        <ele>244</ele>
        <time>2020-07-29T07:45:17Z</time>
      </trkpt>
      <trkpt lat="44.04546" lon="1.86571">
        <ele>245.39999389648</ele>
        <time>2020-07-29T07:45:19Z</time>
      </trkpt>
      <trkpt lat="44.04543" lon="1.86571">
        <ele>246.39999389648</ele>
        <time>2020-07-29T07:45:21Z</time>
      </trkpt>
      <trkpt lat="44.04541" lon="1.8657">
        <ele>247</ele>
        <time>2020-07-29T07:45:22Z</time>
      </trkpt>
      <trkpt lat="44.04537" lon="1.86567">
        <ele>247.80000305176</ele>
        <time>2020-07-29T07:45:24Z</time>
      </trkpt>
      <trkpt lat="44.0453" lon="1.86564">
        <ele>249</ele>
        <time>2020-07-29T07:45:27Z</time>
      </trkpt>
      <trkpt lat="44.04525" lon="1.86556">
        <ele>249.39999389648</ele>
        <time>2020-07-29T07:45:30Z</time>
      </trkpt>
      <trkpt lat="44.04521" lon="1.86535">
        <ele>249</ele>
        <time>2020-07-29T07:45:34Z</time>
      </trkpt>
      <trkpt lat="44.04517" lon="1.86519">
        <ele>248</ele>
        <time>2020-07-29T07:45:37Z</time>
      </trkpt>
      <trkpt lat="44.04515" lon="1.86515">
        <ele>247.60000610352</ele>
        <time>2020-07-29T07:45:38Z</time>
      </trkpt>
      <trkpt lat="44.04513" lon="1.8651">
        <ele>247.39999389648</ele>
        <time>2020-07-29T07:45:39Z</time>
      </trkpt>
      <trkpt lat="44.04509" lon="1.86507">
        <ele>246.39999389648</ele>
        <time>2020-07-29T07:45:40Z</time>
      </trkpt>
      <trkpt lat="44.045" lon="1.86497">
        <ele>245.19999694824</ele>
        <time>2020-07-29T07:45:42Z</time>
      </trkpt>
      <trkpt lat="44.04496" lon="1.86493">
        <ele>244.60000610352</ele>
        <time>2020-07-29T07:45:43Z</time>
      </trkpt>
      <trkpt lat="44.04493" lon="1.86491">
        <ele>244</ele>
        <time>2020-07-29T07:45:44Z</time>
      </trkpt>
      <trkpt lat="44.04485" lon="1.86481">
        <ele>243</ele>
        <time>2020-07-29T07:45:47Z</time>
      </trkpt>
      <trkpt lat="44.0448" lon="1.86476">
        <ele>242.80000305176</ele>
        <time>2020-07-29T07:45:49Z</time>
      </trkpt>
      <trkpt lat="44.04471" lon="1.8647">
        <ele>242.60000610352</ele>
        <time>2020-07-29T07:45:52Z</time>
      </trkpt>
      <trkpt lat="44.04461" lon="1.86466">
        <ele>242</ele>
        <time>2020-07-29T07:45:54Z</time>
      </trkpt>
      <trkpt lat="44.04457" lon="1.86463">
        <ele>241.60000610352</ele>
        <time>2020-07-29T07:45:55Z</time>
      </trkpt>
      <trkpt lat="44.04447" lon="1.86455">
        <ele>240.19999694824</ele>
        <time>2020-07-29T07:45:57Z</time>
      </trkpt>
      <trkpt lat="44.04443" lon="1.8645">
        <ele>239.39999389648</ele>
        <time>2020-07-29T07:45:58Z</time>
      </trkpt>
      <trkpt lat="44.04439" lon="1.86447">
        <ele>238.60000610352</ele>
        <time>2020-07-29T07:45:59Z</time>
      </trkpt>
      <trkpt lat="44.04432" lon="1.8644">
        <ele>237.19999694824</ele>
        <time>2020-07-29T07:46:01Z</time>
      </trkpt>
      <trkpt lat="44.0443" lon="1.86436">
        <ele>236.60000610352</ele>
        <time>2020-07-29T07:46:02Z</time>
      </trkpt>
      <trkpt lat="44.0443" lon="1.86432">
        <ele>236.19999694824</ele>
        <time>2020-07-29T07:46:03Z</time>
      </trkpt>
      <trkpt lat="44.04433" lon="1.86423">
        <ele>235</ele>
        <time>2020-07-29T07:46:05Z</time>
      </trkpt>
      <trkpt lat="44.04435" lon="1.86418">
        <ele>234.39999389648</ele>
        <time>2020-07-29T07:46:06Z</time>
      </trkpt>
      <trkpt lat="44.04436" lon="1.86413">
        <ele>233.80000305176</ele>
        <time>2020-07-29T07:46:07Z</time>
      </trkpt>
      <trkpt lat="44.04441" lon="1.864">
        <ele>232.19999694824</ele>
        <time>2020-07-29T07:46:09Z</time>
      </trkpt>
      <trkpt lat="44.04443" lon="1.86393">
        <ele>231.39999389648</ele>
        <time>2020-07-29T07:46:10Z</time>
      </trkpt>
      <trkpt lat="44.04442" lon="1.86386">
        <ele>230.60000610352</ele>
        <time>2020-07-29T07:46:11Z</time>
      </trkpt>
      <trkpt lat="44.04439" lon="1.86367">
        <ele>229.19999694824</ele>
        <time>2020-07-29T07:46:13Z</time>
      </trkpt>
      <trkpt lat="44.04439" lon="1.86359">
        <ele>228.80000305176</ele>
        <time>2020-07-29T07:46:14Z</time>
      </trkpt>
      <trkpt lat="44.04443" lon="1.86344">
        <ele>228</ele>
        <time>2020-07-29T07:46:16Z</time>
      </trkpt>
      <trkpt lat="44.04448" lon="1.86331">
        <ele>227.39999389648</ele>
        <time>2020-07-29T07:46:18Z</time>
      </trkpt>
      <trkpt lat="44.04453" lon="1.86317">
        <ele>227.19999694824</ele>
        <time>2020-07-29T07:46:21Z</time>
      </trkpt>
      <trkpt lat="44.04456" lon="1.8629">
        <ele>228.39999389648</ele>
        <time>2020-07-29T07:46:27Z</time>
      </trkpt>
      <trkpt lat="44.04453" lon="1.86275">
        <ele>228.80000305176</ele>
        <time>2020-07-29T07:46:31Z</time>
      </trkpt>
      <trkpt lat="44.0445" lon="1.86271">
        <ele>229.19999694824</ele>
        <time>2020-07-29T07:46:32Z</time>
      </trkpt>
      <trkpt lat="44.0444" lon="1.86264">
        <ele>230</ele>
        <time>2020-07-29T07:46:35Z</time>
      </trkpt>
      <trkpt lat="44.04437" lon="1.86262">
        <ele>230.19999694824</ele>
        <time>2020-07-29T07:46:36Z</time>
      </trkpt>
      <trkpt lat="44.04428" lon="1.86257">
        <ele>230.60000610352</ele>
        <time>2020-07-29T07:46:39Z</time>
      </trkpt>
      <trkpt lat="44.04402" lon="1.86245">
        <ele>231.19999694824</ele>
        <time>2020-07-29T07:46:48Z</time>
      </trkpt>
      <trkpt lat="44.04391" lon="1.86241">
        <ele>231.60000610352</ele>
        <time>2020-07-29T07:46:52Z</time>
      </trkpt>
      <trkpt lat="44.04382" lon="1.86239">
        <ele>231.80000305176</ele>
        <time>2020-07-29T07:46:55Z</time>
      </trkpt>
      <trkpt lat="44.04366" lon="1.86236">
        <ele>231.80000305176</ele>
        <time>2020-07-29T07:46:59Z</time>
      </trkpt>
      <trkpt lat="44.04358" lon="1.86234">
        <ele>231.60000610352</ele>
        <time>2020-07-29T07:47:01Z</time>
      </trkpt>
      <trkpt lat="44.04324" lon="1.86227">
        <ele>230.60000610352</ele>
        <time>2020-07-29T07:47:09Z</time>
      </trkpt>
      <trkpt lat="44.04293" lon="1.8622">
        <ele>231</ele>
        <time>2020-07-29T07:47:17Z</time>
      </trkpt>
      <trkpt lat="44.04264" lon="1.86214">
        <ele>232.60000610352</ele>
        <time>2020-07-29T07:47:25Z</time>
      </trkpt>
      <trkpt lat="44.04235" lon="1.86209">
        <ele>232.80000305176</ele>
        <time>2020-07-29T07:47:33Z</time>
      </trkpt>
      <trkpt lat="44.04206" lon="1.8621">
        <ele>232.19999694824</ele>
        <time>2020-07-29T07:47:40Z</time>
      </trkpt>
      <trkpt lat="44.04175" lon="1.86209">
        <ele>231.60000610352</ele>
        <time>2020-07-29T07:47:47Z</time>
      </trkpt>
      <trkpt lat="44.04144" lon="1.862">
        <ele>231</ele>
        <time>2020-07-29T07:47:54Z</time>
      </trkpt>
      <trkpt lat="44.04131" lon="1.86197">
        <ele>230.19999694824</ele>
        <time>2020-07-29T07:47:58Z</time>
      </trkpt>
      <trkpt lat="44.04119" lon="1.862">
        <ele>229.60000610352</ele>
        <time>2020-07-29T07:48:01Z</time>
      </trkpt>
      <trkpt lat="44.04113" lon="1.86213">
        <ele>229</ele>
        <time>2020-07-29T07:48:03Z</time>
      </trkpt>
      <trkpt lat="44.04112" lon="1.86222">
        <ele>228.60000610352</ele>
        <time>2020-07-29T07:48:04Z</time>
      </trkpt>
      <trkpt lat="44.04111" lon="1.86232">
        <ele>227.39999389648</ele>
        <time>2020-07-29T07:48:05Z</time>
      </trkpt>
      <trkpt lat="44.0411" lon="1.86242">
        <ele>226.60000610352</ele>
        <time>2020-07-29T07:48:06Z</time>
      </trkpt>
      <trkpt lat="44.04109" lon="1.86252">
        <ele>225.39999389648</ele>
        <time>2020-07-29T07:48:07Z</time>
      </trkpt>
      <trkpt lat="44.04108" lon="1.86262">
        <ele>224.39999389648</ele>
        <time>2020-07-29T07:48:08Z</time>
      </trkpt>
      <trkpt lat="44.04105" lon="1.86281">
        <ele>223</ele>
        <time>2020-07-29T07:48:10Z</time>
      </trkpt>
      <trkpt lat="44.04101" lon="1.86321">
        <ele>223</ele>
        <time>2020-07-29T07:48:15Z</time>
      </trkpt>
      <trkpt lat="44.04098" lon="1.86341">
        <ele>224</ele>
        <time>2020-07-29T07:48:19Z</time>
      </trkpt>
      <trkpt lat="44.04095" lon="1.86348">
        <ele>225.19999694824</ele>
        <time>2020-07-29T07:48:21Z</time>
      </trkpt>
      <trkpt lat="44.04093" lon="1.86353">
        <ele>226.19999694824</ele>
        <time>2020-07-29T07:48:23Z</time>
      </trkpt>
      <trkpt lat="44.0409" lon="1.86358">
        <ele>227.19999694824</ele>
        <time>2020-07-29T07:48:25Z</time>
      </trkpt>
      <trkpt lat="44.04089" lon="1.86361">
        <ele>227.60000610352</ele>
        <time>2020-07-29T07:48:26Z</time>
      </trkpt>
      <trkpt lat="44.04085" lon="1.86369">
        <ele>228.80000305176</ele>
        <time>2020-07-29T07:48:29Z</time>
      </trkpt>
      <trkpt lat="44.0408" lon="1.86374">
        <ele>230</ele>
        <time>2020-07-29T07:48:32Z</time>
      </trkpt>
      <trkpt lat="44.04078" lon="1.86376">
        <ele>230.19999694824</ele>
        <time>2020-07-29T07:48:33Z</time>
      </trkpt>
      <trkpt lat="44.04074" lon="1.86382">
        <ele>231</ele>
        <time>2020-07-29T07:48:36Z</time>
      </trkpt>
      <trkpt lat="44.04067" lon="1.86393">
        <ele>232.39999389648</ele>
        <time>2020-07-29T07:48:41Z</time>
      </trkpt>
      <trkpt lat="44.04064" lon="1.86397">
        <ele>232.60000610352</ele>
        <time>2020-07-29T07:48:43Z</time>
      </trkpt>
      <trkpt lat="44.04058" lon="1.86406">
        <ele>233.39999389648</ele>
        <time>2020-07-29T07:48:47Z</time>
      </trkpt>
      <trkpt lat="44.0405" lon="1.86419">
        <ele>234.19999694824</ele>
        <time>2020-07-29T07:48:52Z</time>
      </trkpt>
      <trkpt lat="44.04048" lon="1.86421">
        <ele>234.39999389648</ele>
        <time>2020-07-29T07:48:53Z</time>
      </trkpt>
      <trkpt lat="44.04034" lon="1.86441">
        <ele>234.80000305176</ele>
        <time>2020-07-29T07:48:59Z</time>
      </trkpt>
      <trkpt lat="44.04028" lon="1.86452">
        <ele>234.80000305176</ele>
        <time>2020-07-29T07:49:01Z</time>
      </trkpt>
      <trkpt lat="44.04021" lon="1.86466">
        <ele>234.19999694824</ele>
        <time>2020-07-29T07:49:03Z</time>
      </trkpt>
      <trkpt lat="44.04015" lon="1.86482">
        <ele>232.80000305176</ele>
        <time>2020-07-29T07:49:05Z</time>
      </trkpt>
      <trkpt lat="44.04009" lon="1.86496">
        <ele>231.19999694824</ele>
        <time>2020-07-29T07:49:07Z</time>
      </trkpt>
      <trkpt lat="44.04005" lon="1.86502">
        <ele>230.80000305176</ele>
        <time>2020-07-29T07:49:08Z</time>
      </trkpt>
      <trkpt lat="44.03994" lon="1.86511">
        <ele>230.19999694824</ele>
        <time>2020-07-29T07:49:10Z</time>
      </trkpt>
      <trkpt lat="44.03988" lon="1.86512">
        <ele>230.19999694824</ele>
        <time>2020-07-29T07:49:11Z</time>
      </trkpt>
      <trkpt lat="44.03971" lon="1.86513">
        <ele>230</ele>
        <time>2020-07-29T07:49:14Z</time>
      </trkpt>
      <trkpt lat="44.03967" lon="1.86513">
        <ele>229.80000305176</ele>
        <time>2020-07-29T07:49:15Z</time>
      </trkpt>
      <trkpt lat="44.03955" lon="1.86523">
        <ele>230.60000610352</ele>
        <time>2020-07-29T07:49:19Z</time>
      </trkpt>
      <trkpt lat="44.03953" lon="1.86531">
        <ele>231.39999389648</ele>
        <time>2020-07-29T07:49:21Z</time>
      </trkpt>
      <trkpt lat="44.03953" lon="1.86535">
        <ele>231.60000610352</ele>
        <time>2020-07-29T07:49:22Z</time>
      </trkpt>
      <trkpt lat="44.03952" lon="1.86539">
        <ele>232</ele>
        <time>2020-07-29T07:49:23Z</time>
      </trkpt>
      <trkpt lat="44.03952" lon="1.86551">
        <ele>232.60000610352</ele>
        <time>2020-07-29T07:49:26Z</time>
      </trkpt>
      <trkpt lat="44.03953" lon="1.86562">
        <ele>233.19999694824</ele>
        <time>2020-07-29T07:49:29Z</time>
      </trkpt>
      <trkpt lat="44.03955" lon="1.86569">
        <ele>233.60000610352</ele>
        <time>2020-07-29T07:49:32Z</time>
      </trkpt>
      <trkpt lat="44.03958" lon="1.86577">
        <ele>234.19999694824</ele>
        <time>2020-07-29T07:49:35Z</time>
      </trkpt>
      <trkpt lat="44.0396" lon="1.86583">
        <ele>234.60000610352</ele>
        <time>2020-07-29T07:49:37Z</time>
      </trkpt>
      <trkpt lat="44.03968" lon="1.86597">
        <ele>235.80000305176</ele>
        <time>2020-07-29T07:49:42Z</time>
      </trkpt>
      <trkpt lat="44.03969" lon="1.86599">
        <ele>235.80000305176</ele>
        <time>2020-07-29T07:49:43Z</time>
      </trkpt>
      <trkpt lat="44.03978" lon="1.86612">
        <ele>236.80000305176</ele>
        <time>2020-07-29T07:49:49Z</time>
      </trkpt>
      <trkpt lat="44.03985" lon="1.86624">
        <ele>238</ele>
        <time>2020-07-29T07:49:55Z</time>
      </trkpt>
      <trkpt lat="44.03986" lon="1.86626">
        <ele>238.19999694824</ele>
        <time>2020-07-29T07:49:56Z</time>
      </trkpt>
      <trkpt lat="44.03992" lon="1.86634">
        <ele>239.19999694824</ele>
        <time>2020-07-29T07:50:01Z</time>
      </trkpt>
      <trkpt lat="44.03993" lon="1.86635">
        <ele>239.19999694824</ele>
        <time>2020-07-29T07:50:02Z</time>
      </trkpt>
      <trkpt lat="44.03999" lon="1.86642">
        <ele>240.19999694824</ele>
        <time>2020-07-29T07:50:07Z</time>
      </trkpt>
      <trkpt lat="44.04002" lon="1.86644">
        <ele>240.60000610352</ele>
        <time>2020-07-29T07:50:09Z</time>
      </trkpt>
      <trkpt lat="44.04007" lon="1.86651">
        <ele>241.19999694824</ele>
        <time>2020-07-29T07:50:13Z</time>
      </trkpt>
      <trkpt lat="44.04007" lon="1.86653">
        <ele>241.39999389648</ele>
        <time>2020-07-29T07:50:14Z</time>
      </trkpt>
      <trkpt lat="44.04005" lon="1.86662">
        <ele>242.39999389648</ele>
        <time>2020-07-29T07:50:19Z</time>
      </trkpt>
      <trkpt lat="44.04004" lon="1.86663">
        <ele>242.60000610352</ele>
        <time>2020-07-29T07:50:20Z</time>
      </trkpt>
      <trkpt lat="44.04001" lon="1.86669">
        <ele>243.39999389648</ele>
        <time>2020-07-29T07:50:24Z</time>
      </trkpt>
      <trkpt lat="44.03998" lon="1.86675">
        <ele>244</ele>
        <time>2020-07-29T07:50:27Z</time>
      </trkpt>
      <trkpt lat="44.03996" lon="1.86677">
        <ele>244.80000305176</ele>
        <time>2020-07-29T07:50:29Z</time>
      </trkpt>
      <trkpt lat="44.03991" lon="1.86683">
        <ele>245.60000610352</ele>
        <time>2020-07-29T07:50:34Z</time>
      </trkpt>
      <trkpt lat="44.03989" lon="1.86686">
        <ele>245.80000305176</ele>
        <time>2020-07-29T07:50:36Z</time>
      </trkpt>
      <trkpt lat="44.03981" lon="1.86694">
        <ele>246.60000610352</ele>
        <time>2020-07-29T07:50:42Z</time>
      </trkpt>
      <trkpt lat="44.03977" lon="1.86697">
        <ele>246.80000305176</ele>
        <time>2020-07-29T07:50:45Z</time>
      </trkpt>
      <trkpt lat="44.0397" lon="1.86702">
        <ele>247.60000610352</ele>
        <time>2020-07-29T07:50:50Z</time>
      </trkpt>
      <trkpt lat="44.03967" lon="1.86705">
        <ele>248.19999694824</ele>
        <time>2020-07-29T07:50:53Z</time>
      </trkpt>
      <trkpt lat="44.03962" lon="1.86711">
        <ele>248.39999389648</ele>
        <time>2020-07-29T07:50:57Z</time>
      </trkpt>
      <trkpt lat="44.03954" lon="1.86722">
        <ele>249.19999694824</ele>
        <time>2020-07-29T07:51:04Z</time>
      </trkpt>
      <trkpt lat="44.03953" lon="1.86724">
        <ele>249.39999389648</ele>
        <time>2020-07-29T07:51:05Z</time>
      </trkpt>
      <trkpt lat="44.03946" lon="1.86732">
        <ele>250.39999389648</ele>
        <time>2020-07-29T07:51:11Z</time>
      </trkpt>
      <trkpt lat="44.03942" lon="1.86736">
        <ele>250.80000305176</ele>
        <time>2020-07-29T07:51:14Z</time>
      </trkpt>
      <trkpt lat="44.03939" lon="1.86742">
        <ele>251.60000610352</ele>
        <time>2020-07-29T07:51:17Z</time>
      </trkpt>
      <trkpt lat="44.03934" lon="1.86752">
        <ele>252.39999389648</ele>
        <time>2020-07-29T07:51:22Z</time>
      </trkpt>
      <trkpt lat="44.03933" lon="1.86754">
        <ele>252.60000610352</ele>
        <time>2020-07-29T07:51:23Z</time>
      </trkpt>
      <trkpt lat="44.0393" lon="1.86763">
        <ele>253.19999694824</ele>
        <time>2020-07-29T07:51:29Z</time>
      </trkpt>
      <trkpt lat="44.03927" lon="1.86772">
        <ele>253.60000610352</ele>
        <time>2020-07-29T07:51:33Z</time>
      </trkpt>
      <trkpt lat="44.03925" lon="1.86779">
        <ele>253.80000305176</ele>
        <time>2020-07-29T07:51:36Z</time>
      </trkpt>
      <trkpt lat="44.03919" lon="1.86794">
        <ele>254.80000305176</ele>
        <time>2020-07-29T07:51:43Z</time>
      </trkpt>
      <trkpt lat="44.03918" lon="1.86796">
        <ele>254.80000305176</ele>
        <time>2020-07-29T07:51:44Z</time>
      </trkpt>
      <trkpt lat="44.03913" lon="1.86806">
        <ele>255.80000305176</ele>
        <time>2020-07-29T07:51:49Z</time>
      </trkpt>
      <trkpt lat="44.03912" lon="1.86807">
        <ele>256</ele>
        <time>2020-07-29T07:51:50Z</time>
      </trkpt>
      <trkpt lat="44.03905" lon="1.86818">
        <ele>256.79998779297</ele>
        <time>2020-07-29T07:51:56Z</time>
      </trkpt>
      <trkpt lat="44.03895" lon="1.86832">
        <ele>257.60000610352</ele>
        <time>2020-07-29T07:52:05Z</time>
      </trkpt>
      <trkpt lat="44.03892" lon="1.86837">
        <ele>257.79998779297</ele>
        <time>2020-07-29T07:52:07Z</time>
      </trkpt>
      <trkpt lat="44.03883" lon="1.86854">
        <ele>258</ele>
        <time>2020-07-29T07:52:14Z</time>
      </trkpt>
      <trkpt lat="44.03873" lon="1.86874">
        <ele>258.20001220703</ele>
        <time>2020-07-29T07:52:22Z</time>
      </trkpt>
      <trkpt lat="44.03863" lon="1.86893">
        <ele>258.39999389648</ele>
        <time>2020-07-29T07:52:28Z</time>
      </trkpt>
      <trkpt lat="44.03851" lon="1.86916">
        <ele>257.20001220703</ele>
        <time>2020-07-29T07:52:33Z</time>
      </trkpt>
      <trkpt lat="44.03846" lon="1.86926">
        <ele>256.60000610352</ele>
        <time>2020-07-29T07:52:35Z</time>
      </trkpt>
      <trkpt lat="44.03836" lon="1.86944">
        <ele>256</ele>
        <time>2020-07-29T07:52:40Z</time>
      </trkpt>
      <trkpt lat="44.03824" lon="1.86967">
        <ele>256.79998779297</ele>
        <time>2020-07-29T07:52:48Z</time>
      </trkpt>
      <trkpt lat="44.03814" lon="1.86989">
        <ele>257.60000610352</ele>
        <time>2020-07-29T07:52:55Z</time>
      </trkpt>
      <trkpt lat="44.03811" lon="1.86995">
        <ele>257.79998779297</ele>
        <time>2020-07-29T07:52:57Z</time>
      </trkpt>
      <trkpt lat="44.03803" lon="1.87013">
        <ele>258.60000610352</ele>
        <time>2020-07-29T07:53:03Z</time>
      </trkpt>
      <trkpt lat="44.03802" lon="1.87016">
        <ele>258.60000610352</ele>
        <time>2020-07-29T07:53:04Z</time>
      </trkpt>
      <trkpt lat="44.03799" lon="1.87022">
        <ele>258.79998779297</ele>
        <time>2020-07-29T07:53:06Z</time>
      </trkpt>
      <trkpt lat="44.03795" lon="1.87033">
        <ele>259</ele>
        <time>2020-07-29T07:53:10Z</time>
      </trkpt>
      <trkpt lat="44.0379" lon="1.8705">
        <ele>259.60000610352</ele>
        <time>2020-07-29T07:53:16Z</time>
      </trkpt>
      <trkpt lat="44.03789" lon="1.87053">
        <ele>259.79998779297</ele>
        <time>2020-07-29T07:53:17Z</time>
      </trkpt>
      <trkpt lat="44.0378" lon="1.8707">
        <ele>260.39999389648</ele>
        <time>2020-07-29T07:53:23Z</time>
      </trkpt>
      <trkpt lat="44.03775" lon="1.87075">
        <ele>260.79998779297</ele>
        <time>2020-07-29T07:53:26Z</time>
      </trkpt>
      <trkpt lat="44.03769" lon="1.87079">
        <ele>261.20001220703</ele>
        <time>2020-07-29T07:53:29Z</time>
      </trkpt>
      <trkpt lat="44.03761" lon="1.87083">
        <ele>261.79998779297</ele>
        <time>2020-07-29T07:53:33Z</time>
      </trkpt>
      <trkpt lat="44.03756" lon="1.87085">
        <ele>262.39999389648</ele>
        <time>2020-07-29T07:53:36Z</time>
      </trkpt>
      <trkpt lat="44.0375" lon="1.87085">
        <ele>263</ele>
        <time>2020-07-29T07:53:40Z</time>
      </trkpt>
      <trkpt lat="44.03745" lon="1.87086">
        <ele>263.79998779297</ele>
        <time>2020-07-29T07:53:44Z</time>
      </trkpt>
      <trkpt lat="44.03744" lon="1.87086">
        <ele>264</ele>
        <time>2020-07-29T07:53:45Z</time>
      </trkpt>
      <trkpt lat="44.03736" lon="1.87087">
        <ele>265.20001220703</ele>
        <time>2020-07-29T07:53:50Z</time>
      </trkpt>
      <trkpt lat="44.03734" lon="1.87087">
        <ele>265.39999389648</ele>
        <time>2020-07-29T07:53:51Z</time>
      </trkpt>
      <trkpt lat="44.03724" lon="1.87086">
        <ele>266.39999389648</ele>
        <time>2020-07-29T07:53:56Z</time>
      </trkpt>
      <trkpt lat="44.03719" lon="1.87085">
        <ele>267</ele>
        <time>2020-07-29T07:53:59Z</time>
      </trkpt>
      <trkpt lat="44.03713" lon="1.87082">
        <ele>267.39999389648</ele>
        <time>2020-07-29T07:54:03Z</time>
      </trkpt>
      <trkpt lat="44.03708" lon="1.87082">
        <ele>268.20001220703</ele>
        <time>2020-07-29T07:54:06Z</time>
      </trkpt>
      <trkpt lat="44.03707" lon="1.87081">
        <ele>268.39999389648</ele>
        <time>2020-07-29T07:54:07Z</time>
      </trkpt>
      <trkpt lat="44.03701" lon="1.87077">
        <ele>269.60000610352</ele>
        <time>2020-07-29T07:54:12Z</time>
      </trkpt>
      <trkpt lat="44.03699" lon="1.87076">
        <ele>269.79998779297</ele>
        <time>2020-07-29T07:54:13Z</time>
      </trkpt>
      <trkpt lat="44.03691" lon="1.87071">
        <ele>270.60000610352</ele>
        <time>2020-07-29T07:54:18Z</time>
      </trkpt>
      <trkpt lat="44.03687" lon="1.87068">
        <ele>271.20001220703</ele>
        <time>2020-07-29T07:54:21Z</time>
      </trkpt>
      <trkpt lat="44.03679" lon="1.87065">
        <ele>271.79998779297</ele>
        <time>2020-07-29T07:54:26Z</time>
      </trkpt>
      <trkpt lat="44.03677" lon="1.87065">
        <ele>271.79998779297</ele>
        <time>2020-07-29T07:54:27Z</time>
      </trkpt>
      <trkpt lat="44.03662" lon="1.8706">
        <ele>272.39999389648</ele>
        <time>2020-07-29T07:54:36Z</time>
      </trkpt>
      <trkpt lat="44.03652" lon="1.87061">
        <ele>272.79998779297</ele>
        <time>2020-07-29T07:54:41Z</time>
      </trkpt>
      <trkpt lat="44.03651" lon="1.87062">
        <ele>272.79998779297</ele>
        <time>2020-07-29T07:54:42Z</time>
      </trkpt>
      <trkpt lat="44.0364" lon="1.87073">
        <ele>273.39999389648</ele>
        <time>2020-07-29T07:54:49Z</time>
      </trkpt>
      <trkpt lat="44.03627" lon="1.87089">
        <ele>273.39999389648</ele>
        <time>2020-07-29T07:54:57Z</time>
      </trkpt>
      <trkpt lat="44.03615" lon="1.871">
        <ele>273.79998779297</ele>
        <time>2020-07-29T07:55:04Z</time>
      </trkpt>
      <trkpt lat="44.03613" lon="1.87102">
        <ele>273.79998779297</ele>
        <time>2020-07-29T07:55:05Z</time>
      </trkpt>
      <trkpt lat="44.03592" lon="1.87113">
        <ele>274.60000610352</ele>
        <time>2020-07-29T07:55:15Z</time>
      </trkpt>
      <trkpt lat="44.0359" lon="1.87114">
        <ele>274.79998779297</ele>
        <time>2020-07-29T07:55:16Z</time>
      </trkpt>
      <trkpt lat="44.03574" lon="1.87123">
        <ele>275.39999389648</ele>
        <time>2020-07-29T07:55:23Z</time>
      </trkpt>
      <trkpt lat="44.03572" lon="1.87129">
        <ele>275.60000610352</ele>
        <time>2020-07-29T07:55:25Z</time>
      </trkpt>
      <trkpt lat="44.03573" lon="1.87134">
        <ele>275.60000610352</ele>
        <time>2020-07-29T07:55:27Z</time>
      </trkpt>
      <trkpt lat="44.03578" lon="1.8714">
        <ele>275.60000610352</ele>
        <time>2020-07-29T07:55:29Z</time>
      </trkpt>
      <trkpt lat="44.03583" lon="1.87146">
        <ele>275.39999389648</ele>
        <time>2020-07-29T07:55:31Z</time>
      </trkpt>
      <trkpt lat="44.03604" lon="1.87177">
        <ele>273.60000610352</ele>
        <time>2020-07-29T07:55:38Z</time>
      </trkpt>
      <trkpt lat="44.03621" lon="1.87206">
        <ele>272.60000610352</ele>
        <time>2020-07-29T07:55:44Z</time>
      </trkpt>
      <trkpt lat="44.03627" lon="1.87216">
        <ele>272.20001220703</ele>
        <time>2020-07-29T07:55:46Z</time>
      </trkpt>
      <trkpt lat="44.03637" lon="1.8723">
        <ele>271.39999389648</ele>
        <time>2020-07-29T07:55:49Z</time>
      </trkpt>
      <trkpt lat="44.03639" lon="1.87236">
        <ele>271.20001220703</ele>
        <time>2020-07-29T07:55:50Z</time>
      </trkpt>
      <trkpt lat="44.03643" lon="1.87249">
        <ele>270.79998779297</ele>
        <time>2020-07-29T07:55:52Z</time>
      </trkpt>
      <trkpt lat="44.03652" lon="1.87272">
        <ele>270.79998779297</ele>
        <time>2020-07-29T07:55:57Z</time>
      </trkpt>
      <trkpt lat="44.0367" lon="1.87303">
        <ele>271.60000610352</ele>
        <time>2020-07-29T07:56:05Z</time>
      </trkpt>
      <trkpt lat="44.03684" lon="1.87325">
        <ele>271.60000610352</ele>
        <time>2020-07-29T07:56:12Z</time>
      </trkpt>
      <trkpt lat="44.03697" lon="1.87346">
        <ele>272.39999389648</ele>
        <time>2020-07-29T07:56:19Z</time>
      </trkpt>
      <trkpt lat="44.03699" lon="1.87348">
        <ele>272.60000610352</ele>
        <time>2020-07-29T07:56:20Z</time>
      </trkpt>
      <trkpt lat="44.03705" lon="1.87357">
        <ele>273</ele>
        <time>2020-07-29T07:56:24Z</time>
      </trkpt>
      <trkpt lat="44.03712" lon="1.8737">
        <ele>273.60000610352</ele>
        <time>2020-07-29T07:56:30Z</time>
      </trkpt>
      <trkpt lat="44.03721" lon="1.87384">
        <ele>273.79998779297</ele>
        <time>2020-07-29T07:56:36Z</time>
      </trkpt>
      <trkpt lat="44.03732" lon="1.87407">
        <ele>273.79998779297</ele>
        <time>2020-07-29T07:56:44Z</time>
      </trkpt>
      <trkpt lat="44.03741" lon="1.87422">
        <ele>274.60000610352</ele>
        <time>2020-07-29T07:56:49Z</time>
      </trkpt>
      <trkpt lat="44.03747" lon="1.87433">
        <ele>275.20001220703</ele>
        <time>2020-07-29T07:56:53Z</time>
      </trkpt>
      <trkpt lat="44.03759" lon="1.87456">
        <ele>275.60000610352</ele>
        <time>2020-07-29T07:57:01Z</time>
      </trkpt>
      <trkpt lat="44.03761" lon="1.87459">
        <ele>275.79998779297</ele>
        <time>2020-07-29T07:57:02Z</time>
      </trkpt>
      <trkpt lat="44.03769" lon="1.87476">
        <ele>276</ele>
        <time>2020-07-29T07:57:08Z</time>
      </trkpt>
      <trkpt lat="44.03776" lon="1.87489">
        <ele>276.79998779297</ele>
        <time>2020-07-29T07:57:13Z</time>
      </trkpt>
      <trkpt lat="44.0378" lon="1.87498">
        <ele>277</ele>
        <time>2020-07-29T07:57:16Z</time>
      </trkpt>
      <trkpt lat="44.03792" lon="1.87521">
        <ele>277.60000610352</ele>
        <time>2020-07-29T07:57:24Z</time>
      </trkpt>
      <trkpt lat="44.03794" lon="1.87526">
        <ele>277.79998779297</ele>
        <time>2020-07-29T07:57:26Z</time>
      </trkpt>
      <trkpt lat="44.03809" lon="1.87561">
        <ele>278.60000610352</ele>
        <time>2020-07-29T07:57:37Z</time>
      </trkpt>
      <trkpt lat="44.03813" lon="1.87576">
        <ele>279</ele>
        <time>2020-07-29T07:57:42Z</time>
      </trkpt>
      <trkpt lat="44.03814" lon="1.87579">
        <ele>279.20001220703</ele>
        <time>2020-07-29T07:57:43Z</time>
      </trkpt>
      <trkpt lat="44.0382" lon="1.87597">
        <ele>279.39999389648</ele>
        <time>2020-07-29T07:57:49Z</time>
      </trkpt>
      <trkpt lat="44.03825" lon="1.87616">
        <ele>280.20001220703</ele>
        <time>2020-07-29T07:57:55Z</time>
      </trkpt>
      <trkpt lat="44.03825" lon="1.8762">
        <ele>280.20001220703</ele>
        <time>2020-07-29T07:57:56Z</time>
      </trkpt>
      <trkpt lat="44.0383" lon="1.87637">
        <ele>280.79998779297</ele>
        <time>2020-07-29T07:58:01Z</time>
      </trkpt>
      <trkpt lat="44.03834" lon="1.87651">
        <ele>281.20001220703</ele>
        <time>2020-07-29T07:58:05Z</time>
      </trkpt>
      <trkpt lat="44.03838" lon="1.87664">
        <ele>281.60000610352</ele>
        <time>2020-07-29T07:58:09Z</time>
      </trkpt>
      <trkpt lat="44.03849" lon="1.87688">
        <ele>282.39999389648</ele>
        <time>2020-07-29T07:58:15Z</time>
      </trkpt>
      <trkpt lat="44.03858" lon="1.87716">
        <ele>282.20001220703</ele>
        <time>2020-07-29T07:58:20Z</time>
      </trkpt>
      <trkpt lat="44.0386" lon="1.87722">
        <ele>281.79998779297</ele>
        <time>2020-07-29T07:58:21Z</time>
      </trkpt>
      <trkpt lat="44.03864" lon="1.87732">
        <ele>281.20001220703</ele>
        <time>2020-07-29T07:58:23Z</time>
      </trkpt>
      <trkpt lat="44.03869" lon="1.87749">
        <ele>280</ele>
        <time>2020-07-29T07:58:26Z</time>
      </trkpt>
      <trkpt lat="44.03871" lon="1.87755">
        <ele>279.79998779297</ele>
        <time>2020-07-29T07:58:27Z</time>
      </trkpt>
      <trkpt lat="44.03874" lon="1.87768">
        <ele>278.79998779297</ele>
        <time>2020-07-29T07:58:29Z</time>
      </trkpt>
      <trkpt lat="44.03878" lon="1.87783">
        <ele>277.20001220703</ele>
        <time>2020-07-29T07:58:31Z</time>
      </trkpt>
      <trkpt lat="44.03883" lon="1.87799">
        <ele>276</ele>
        <time>2020-07-29T07:58:33Z</time>
      </trkpt>
      <trkpt lat="44.03889" lon="1.87816">
        <ele>274.79998779297</ele>
        <time>2020-07-29T07:58:35Z</time>
      </trkpt>
      <trkpt lat="44.03895" lon="1.87832">
        <ele>273.79998779297</ele>
        <time>2020-07-29T07:58:37Z</time>
      </trkpt>
      <trkpt lat="44.039" lon="1.8785">
        <ele>272.60000610352</ele>
        <time>2020-07-29T07:58:39Z</time>
      </trkpt>
      <trkpt lat="44.03904" lon="1.87858">
        <ele>272.20001220703</ele>
        <time>2020-07-29T07:58:40Z</time>
      </trkpt>
      <trkpt lat="44.0391" lon="1.87875">
        <ele>271.39999389648</ele>
        <time>2020-07-29T07:58:42Z</time>
      </trkpt>
      <trkpt lat="44.03931" lon="1.87929">
        <ele>270.79998779297</ele>
        <time>2020-07-29T07:58:49Z</time>
      </trkpt>
      <trkpt lat="44.03942" lon="1.87963">
        <ele>270.39999389648</ele>
        <time>2020-07-29T07:58:54Z</time>
      </trkpt>
      <trkpt lat="44.03945" lon="1.87975">
        <ele>270.20001220703</ele>
        <time>2020-07-29T07:58:56Z</time>
      </trkpt>
      <trkpt lat="44.03954" lon="1.88014">
        <ele>270.39999389648</ele>
        <time>2020-07-29T07:59:03Z</time>
      </trkpt>
      <trkpt lat="44.03957" lon="1.88028">
        <ele>271.39999389648</ele>
        <time>2020-07-29T07:59:06Z</time>
      </trkpt>
      <trkpt lat="44.03964" lon="1.88049">
        <ele>272</ele>
        <time>2020-07-29T07:59:11Z</time>
      </trkpt>
      <trkpt lat="44.0397" lon="1.88066">
        <ele>272.60000610352</ele>
        <time>2020-07-29T07:59:15Z</time>
      </trkpt>
      <trkpt lat="44.03981" lon="1.88091">
        <ele>273.20001220703</ele>
        <time>2020-07-29T07:59:21Z</time>
      </trkpt>
      <trkpt lat="44.03991" lon="1.88111">
        <ele>272.79998779297</ele>
        <time>2020-07-29T07:59:27Z</time>
      </trkpt>
      <trkpt lat="44.04011" lon="1.88137">
        <ele>272.60000610352</ele>
        <time>2020-07-29T07:59:34Z</time>
      </trkpt>
      <trkpt lat="44.04033" lon="1.8817">
        <ele>272</ele>
        <time>2020-07-29T07:59:42Z</time>
      </trkpt>
      <trkpt lat="44.04052" lon="1.88207">
        <ele>272.20001220703</ele>
        <time>2020-07-29T07:59:49Z</time>
      </trkpt>
      <trkpt lat="44.04065" lon="1.88243">
        <ele>272.20001220703</ele>
        <time>2020-07-29T07:59:56Z</time>
      </trkpt>
      <trkpt lat="44.04079" lon="1.8828">
        <ele>272</ele>
        <time>2020-07-29T08:00:03Z</time>
      </trkpt>
      <trkpt lat="44.0409" lon="1.88317">
        <ele>271.79998779297</ele>
        <time>2020-07-29T08:00:10Z</time>
      </trkpt>
      <trkpt lat="44.04095" lon="1.88335">
        <ele>271.60000610352</ele>
        <time>2020-07-29T08:00:13Z</time>
      </trkpt>
      <trkpt lat="44.04101" lon="1.88351">
        <ele>271.20001220703</ele>
        <time>2020-07-29T08:00:16Z</time>
      </trkpt>
      <trkpt lat="44.04108" lon="1.8838">
        <ele>271</ele>
        <time>2020-07-29T08:00:22Z</time>
      </trkpt>
      <trkpt lat="44.04117" lon="1.88414">
        <ele>272.20001220703</ele>
        <time>2020-07-29T08:00:30Z</time>
      </trkpt>
      <trkpt lat="44.04119" lon="1.88421">
        <ele>272.60000610352</ele>
        <time>2020-07-29T08:00:32Z</time>
      </trkpt>
      <trkpt lat="44.04131" lon="1.88432">
        <ele>273.20001220703</ele>
        <time>2020-07-29T08:00:37Z</time>
      </trkpt>
      <trkpt lat="44.0415" lon="1.88439">
        <ele>273.39999389648</ele>
        <time>2020-07-29T08:00:44Z</time>
      </trkpt>
      <trkpt lat="44.04157" lon="1.88441">
        <ele>273.79998779297</ele>
        <time>2020-07-29T08:00:47Z</time>
      </trkpt>
      <trkpt lat="44.04169" lon="1.88447">
        <ele>274.60000610352</ele>
        <time>2020-07-29T08:00:53Z</time>
      </trkpt>
      <trkpt lat="44.04171" lon="1.88448">
        <ele>274.79998779297</ele>
        <time>2020-07-29T08:00:54Z</time>
      </trkpt>
      <trkpt lat="44.04183" lon="1.88455">
        <ele>275.79998779297</ele>
        <time>2020-07-29T08:01:00Z</time>
      </trkpt>
      <trkpt lat="44.04185" lon="1.88456">
        <ele>276</ele>
        <time>2020-07-29T08:01:01Z</time>
      </trkpt>
      <trkpt lat="44.04197" lon="1.88464">
        <ele>276.60000610352</ele>
        <time>2020-07-29T08:01:08Z</time>
      </trkpt>
      <trkpt lat="44.04201" lon="1.88466">
        <ele>277</ele>
        <time>2020-07-29T08:01:10Z</time>
      </trkpt>
      <trkpt lat="44.04213" lon="1.88475">
        <ele>278</ele>
        <time>2020-07-29T08:01:17Z</time>
      </trkpt>
      <trkpt lat="44.04229" lon="1.88486">
        <ele>279</ele>
        <time>2020-07-29T08:01:26Z</time>
      </trkpt>
      <trkpt lat="44.04231" lon="1.88487">
        <ele>279.20001220703</ele>
        <time>2020-07-29T08:01:27Z</time>
      </trkpt>
      <trkpt lat="44.04243" lon="1.88495">
        <ele>279.79998779297</ele>
        <time>2020-07-29T08:01:34Z</time>
      </trkpt>
      <trkpt lat="44.04251" lon="1.885">
        <ele>280.20001220703</ele>
        <time>2020-07-29T08:01:38Z</time>
      </trkpt>
      <trkpt lat="44.04264" lon="1.88508">
        <ele>281.20001220703</ele>
        <time>2020-07-29T08:01:45Z</time>
      </trkpt>
      <trkpt lat="44.04266" lon="1.88509">
        <ele>281.39999389648</ele>
        <time>2020-07-29T08:01:46Z</time>
      </trkpt>
      <trkpt lat="44.04277" lon="1.88516">
        <ele>282</ele>
        <time>2020-07-29T08:01:52Z</time>
      </trkpt>
      <trkpt lat="44.04284" lon="1.88524">
        <ele>282.39999389648</ele>
        <time>2020-07-29T08:01:57Z</time>
      </trkpt>
      <trkpt lat="44.04285" lon="1.88526">
        <ele>282.39999389648</ele>
        <time>2020-07-29T08:01:58Z</time>
      </trkpt>
      <trkpt lat="44.04286" lon="1.88535">
        <ele>284</ele>
        <time>2020-07-29T08:05:37Z</time>
      </trkpt>
      <trkpt lat="44.04285" lon="1.88537">
        <ele>284</ele>
        <time>2020-07-29T08:05:38Z</time>
      </trkpt>
      <trkpt lat="44.04283" lon="1.88549">
        <ele>284</ele>
        <time>2020-07-29T08:05:42Z</time>
      </trkpt>
      <trkpt lat="44.04283" lon="1.88552">
        <ele>284</ele>
        <time>2020-07-29T08:05:43Z</time>
      </trkpt>
      <trkpt lat="44.04279" lon="1.88585">
        <ele>284.60000610352</ele>
        <time>2020-07-29T08:05:52Z</time>
      </trkpt>
      <trkpt lat="44.04277" lon="1.88614">
        <ele>285</ele>
        <time>2020-07-29T08:06:00Z</time>
      </trkpt>
      <trkpt lat="44.04277" lon="1.88618">
        <ele>285</ele>
        <time>2020-07-29T08:06:01Z</time>
      </trkpt>
      <trkpt lat="44.04277" lon="1.88642">
        <ele>285.60000610352</ele>
        <time>2020-07-29T08:06:07Z</time>
      </trkpt>
      <trkpt lat="44.04275" lon="1.88679">
        <ele>285.79998779297</ele>
        <time>2020-07-29T08:06:16Z</time>
      </trkpt>
      <trkpt lat="44.04273" lon="1.8871">
        <ele>286</ele>
        <time>2020-07-29T08:06:24Z</time>
      </trkpt>
      <trkpt lat="44.04273" lon="1.88719">
        <ele>286</ele>
        <time>2020-07-29T08:06:26Z</time>
      </trkpt>
      <trkpt lat="44.04269" lon="1.8873">
        <ele>286.20001220703</ele>
        <time>2020-07-29T08:06:29Z</time>
      </trkpt>
      <trkpt lat="44.04255" lon="1.88763">
        <ele>285.60000610352</ele>
        <time>2020-07-29T08:06:37Z</time>
      </trkpt>
      <trkpt lat="44.04237" lon="1.88806">
        <ele>285.20001220703</ele>
        <time>2020-07-29T08:06:46Z</time>
      </trkpt>
      <trkpt lat="44.04235" lon="1.88811">
        <ele>285</ele>
        <time>2020-07-29T08:06:47Z</time>
      </trkpt>
      <trkpt lat="44.04214" lon="1.88849">
        <ele>284.39999389648</ele>
        <time>2020-07-29T08:06:54Z</time>
      </trkpt>
      <trkpt lat="44.04204" lon="1.88863">
        <ele>283.79998779297</ele>
        <time>2020-07-29T08:06:57Z</time>
      </trkpt>
      <trkpt lat="44.04181" lon="1.88887">
        <ele>283.60000610352</ele>
        <time>2020-07-29T08:07:03Z</time>
      </trkpt>
      <trkpt lat="44.04145" lon="1.88914">
        <ele>283.60000610352</ele>
        <time>2020-07-29T08:07:12Z</time>
      </trkpt>
      <trkpt lat="44.04109" lon="1.88938">
        <ele>283.79998779297</ele>
        <time>2020-07-29T08:07:21Z</time>
      </trkpt>
      <trkpt lat="44.04098" lon="1.88951">
        <ele>283.79998779297</ele>
        <time>2020-07-29T08:07:25Z</time>
      </trkpt>
      <trkpt lat="44.04099" lon="1.88956">
        <ele>283.79998779297</ele>
        <time>2020-07-29T08:07:26Z</time>
      </trkpt>
      <trkpt lat="44.04107" lon="1.88967">
        <ele>283.39999389648</ele>
        <time>2020-07-29T08:07:29Z</time>
      </trkpt>
      <trkpt lat="44.0411" lon="1.8897">
        <ele>283.20001220703</ele>
        <time>2020-07-29T08:07:30Z</time>
      </trkpt>
      <trkpt lat="44.04114" lon="1.88973">
        <ele>282.79998779297</ele>
        <time>2020-07-29T08:07:31Z</time>
      </trkpt>
      <trkpt lat="44.0412" lon="1.88979">
        <ele>282.39999389648</ele>
        <time>2020-07-29T08:07:33Z</time>
      </trkpt>
      <trkpt lat="44.04129" lon="1.88991">
        <ele>282.20001220703</ele>
        <time>2020-07-29T08:07:36Z</time>
      </trkpt>
      <trkpt lat="44.04132" lon="1.88995">
        <ele>282.20001220703</ele>
        <time>2020-07-29T08:07:37Z</time>
      </trkpt>
      <trkpt lat="44.04138" lon="1.89003">
        <ele>282.39999389648</ele>
        <time>2020-07-29T08:07:39Z</time>
      </trkpt>
      <trkpt lat="44.04148" lon="1.89022">
        <ele>282.60000610352</ele>
        <time>2020-07-29T08:07:43Z</time>
      </trkpt>
      <trkpt lat="44.04155" lon="1.8905">
        <ele>283.39999389648</ele>
        <time>2020-07-29T08:07:49Z</time>
      </trkpt>
      <trkpt lat="44.04157" lon="1.89063">
        <ele>284</ele>
        <time>2020-07-29T08:07:52Z</time>
      </trkpt>
      <trkpt lat="44.04157" lon="1.89084">
        <ele>284.39999389648</ele>
        <time>2020-07-29T08:07:56Z</time>
      </trkpt>
      <trkpt lat="44.04154" lon="1.89122">
        <ele>283.79998779297</ele>
        <time>2020-07-29T08:08:02Z</time>
      </trkpt>
      <trkpt lat="44.04154" lon="1.89146">
        <ele>283</ele>
        <time>2020-07-29T08:08:05Z</time>
      </trkpt>
      <trkpt lat="44.04154" lon="1.89161">
        <ele>281.79998779297</ele>
        <time>2020-07-29T08:08:07Z</time>
      </trkpt>
      <trkpt lat="44.04156" lon="1.89169">
        <ele>281.20001220703</ele>
        <time>2020-07-29T08:08:08Z</time>
      </trkpt>
      <trkpt lat="44.04159" lon="1.89183">
        <ele>280.79998779297</ele>
        <time>2020-07-29T08:08:10Z</time>
      </trkpt>
      <trkpt lat="44.04167" lon="1.89202">
        <ele>279.79998779297</ele>
        <time>2020-07-29T08:08:13Z</time>
      </trkpt>
      <trkpt lat="44.0417" lon="1.89208">
        <ele>279.20001220703</ele>
        <time>2020-07-29T08:08:14Z</time>
      </trkpt>
      <trkpt lat="44.04184" lon="1.8923">
        <ele>278</ele>
        <time>2020-07-29T08:08:18Z</time>
      </trkpt>
      <trkpt lat="44.04189" lon="1.89236">
        <ele>277.79998779297</ele>
        <time>2020-07-29T08:08:19Z</time>
      </trkpt>
      <trkpt lat="44.04202" lon="1.89246">
        <ele>276.79998779297</ele>
        <time>2020-07-29T08:08:21Z</time>
      </trkpt>
      <trkpt lat="44.04215" lon="1.89258">
        <ele>275.60000610352</ele>
        <time>2020-07-29T08:08:23Z</time>
      </trkpt>
      <trkpt lat="44.0423" lon="1.89273">
        <ele>274</ele>
        <time>2020-07-29T08:08:25Z</time>
      </trkpt>
      <trkpt lat="44.04244" lon="1.89289">
        <ele>272.20001220703</ele>
        <time>2020-07-29T08:08:27Z</time>
      </trkpt>
      <trkpt lat="44.04251" lon="1.89298">
        <ele>271.20001220703</ele>
        <time>2020-07-29T08:08:28Z</time>
      </trkpt>
      <trkpt lat="44.04257" lon="1.89308">
        <ele>270.20001220703</ele>
        <time>2020-07-29T08:08:29Z</time>
      </trkpt>
      <trkpt lat="44.04269" lon="1.89326">
        <ele>268.20001220703</ele>
        <time>2020-07-29T08:08:31Z</time>
      </trkpt>
      <trkpt lat="44.04288" lon="1.89353">
        <ele>266.79998779297</ele>
        <time>2020-07-29T08:08:34Z</time>
      </trkpt>
      <trkpt lat="44.04306" lon="1.89377">
        <ele>265.20001220703</ele>
        <time>2020-07-29T08:08:37Z</time>
      </trkpt>
      <trkpt lat="44.04315" lon="1.89389">
        <ele>264.20001220703</ele>
        <time>2020-07-29T08:08:39Z</time>
      </trkpt>
      <trkpt lat="44.04324" lon="1.89407">
        <ele>263.79998779297</ele>
        <time>2020-07-29T08:08:43Z</time>
      </trkpt>
      <trkpt lat="44.04317" lon="1.89417">
        <ele>264.79998779297</ele>
        <time>2020-07-29T08:08:46Z</time>
      </trkpt>
      <trkpt lat="44.04311" lon="1.89425">
        <ele>265.20001220703</ele>
        <time>2020-07-29T08:08:48Z</time>
      </trkpt>
      <trkpt lat="44.04308" lon="1.89428">
        <ele>265.20001220703</ele>
        <time>2020-07-29T08:08:49Z</time>
      </trkpt>
      <trkpt lat="44.04298" lon="1.89439">
        <ele>265</ele>
        <time>2020-07-29T08:08:52Z</time>
      </trkpt>
      <trkpt lat="44.04291" lon="1.89451">
        <ele>263.79998779297</ele>
        <time>2020-07-29T08:08:55Z</time>
      </trkpt>
      <trkpt lat="44.0429" lon="1.89457">
        <ele>262.79998779297</ele>
        <time>2020-07-29T08:08:57Z</time>
      </trkpt>
      <trkpt lat="44.0429" lon="1.89461">
        <ele>262.60000610352</ele>
        <time>2020-07-29T08:08:58Z</time>
      </trkpt>
      <trkpt lat="44.04293" lon="1.89475">
        <ele>261.20001220703</ele>
        <time>2020-07-29T08:09:02Z</time>
      </trkpt>
      <trkpt lat="44.04294" lon="1.89478">
        <ele>261</ele>
        <time>2020-07-29T08:09:03Z</time>
      </trkpt>
      <trkpt lat="44.04299" lon="1.89489">
        <ele>260.20001220703</ele>
        <time>2020-07-29T08:09:06Z</time>
      </trkpt>
      <trkpt lat="44.04301" lon="1.89503">
        <ele>260.20001220703</ele>
        <time>2020-07-29T08:09:10Z</time>
      </trkpt>
      <trkpt lat="44.04302" lon="1.89506">
        <ele>260.20001220703</ele>
        <time>2020-07-29T08:09:15Z</time>
      </trkpt>
      <trkpt lat="44.04303" lon="1.89513">
        <ele>260.20001220703</ele>
        <time>2020-07-29T08:09:17Z</time>
      </trkpt>
      <trkpt lat="44.04303" lon="1.89533">
        <ele>259.20001220703</ele>
        <time>2020-07-29T08:09:21Z</time>
      </trkpt>
      <trkpt lat="44.04303" lon="1.8955">
        <ele>258</ele>
        <time>2020-07-29T08:09:24Z</time>
      </trkpt>
      <trkpt lat="44.04303" lon="1.89561">
        <ele>256.60000610352</ele>
        <time>2020-07-29T08:09:26Z</time>
      </trkpt>
      <trkpt lat="44.04303" lon="1.89566">
        <ele>255.80000305176</ele>
        <time>2020-07-29T08:09:27Z</time>
      </trkpt>
      <trkpt lat="44.04303" lon="1.89571">
        <ele>255</ele>
        <time>2020-07-29T08:09:28Z</time>
      </trkpt>
      <trkpt lat="44.04302" lon="1.89581">
        <ele>253.80000305176</ele>
        <time>2020-07-29T08:09:30Z</time>
      </trkpt>
      <trkpt lat="44.04299" lon="1.89586">
        <ele>253</ele>
        <time>2020-07-29T08:09:32Z</time>
      </trkpt>
      <trkpt lat="44.04297" lon="1.89588">
        <ele>252.39999389648</ele>
        <time>2020-07-29T08:09:33Z</time>
      </trkpt>
      <trkpt lat="44.04289" lon="1.8959">
        <ele>251</ele>
        <time>2020-07-29T08:09:36Z</time>
      </trkpt>
      <trkpt lat="44.04284" lon="1.8959">
        <ele>250.39999389648</ele>
        <time>2020-07-29T08:09:37Z</time>
      </trkpt>
      <trkpt lat="44.0428" lon="1.89591">
        <ele>249.80000305176</ele>
        <time>2020-07-29T08:09:38Z</time>
      </trkpt>
      <trkpt lat="44.04269" lon="1.89595">
        <ele>248.80000305176</ele>
        <time>2020-07-29T08:09:41Z</time>
      </trkpt>
      <trkpt lat="44.04262" lon="1.89598">
        <ele>248.60000610352</ele>
        <time>2020-07-29T08:09:43Z</time>
      </trkpt>
      <trkpt lat="44.04246" lon="1.89603">
        <ele>249.80000305176</ele>
        <time>2020-07-29T08:09:49Z</time>
      </trkpt>
      <trkpt lat="44.04238" lon="1.89605">
        <ele>251.19999694824</ele>
        <time>2020-07-29T08:09:53Z</time>
      </trkpt>
      <trkpt lat="44.04232" lon="1.8961">
        <ele>251.80000305176</ele>
        <time>2020-07-29T08:09:56Z</time>
      </trkpt>
      <trkpt lat="44.04221" lon="1.89631">
        <ele>252</ele>
        <time>2020-07-29T08:10:03Z</time>
      </trkpt>
      <trkpt lat="44.04219" lon="1.89637">
        <ele>252.19999694824</ele>
        <time>2020-07-29T08:10:05Z</time>
      </trkpt>
      <trkpt lat="44.04214" lon="1.89656">
        <ele>253.39999389648</ele>
        <time>2020-07-29T08:10:12Z</time>
      </trkpt>
      <trkpt lat="44.04207" lon="1.89669">
        <ele>254.39999389648</ele>
        <time>2020-07-29T08:10:18Z</time>
      </trkpt>
      <trkpt lat="44.04205" lon="1.89673">
        <ele>254.80000305176</ele>
        <time>2020-07-29T08:10:20Z</time>
      </trkpt>
      <trkpt lat="44.04203" lon="1.89674">
        <ele>255</ele>
        <time>2020-07-29T08:10:21Z</time>
      </trkpt>
      <trkpt lat="44.042" lon="1.89677">
        <ele>255.39999389648</ele>
        <time>2020-07-29T08:10:23Z</time>
      </trkpt>
      <trkpt lat="44.04196" lon="1.89681">
        <ele>256</ele>
        <time>2020-07-29T08:10:26Z</time>
      </trkpt>
      <trkpt lat="44.04191" lon="1.89685">
        <ele>256.60000610352</ele>
        <time>2020-07-29T08:10:29Z</time>
      </trkpt>
      <trkpt lat="44.04185" lon="1.89692">
        <ele>257.39999389648</ele>
        <time>2020-07-29T08:10:34Z</time>
      </trkpt>
      <trkpt lat="44.04184" lon="1.89695">
        <ele>257.60000610352</ele>
        <time>2020-07-29T08:10:35Z</time>
      </trkpt>
      <trkpt lat="44.04181" lon="1.89711">
        <ele>258.60000610352</ele>
        <time>2020-07-29T08:10:42Z</time>
      </trkpt>
      <trkpt lat="44.04182" lon="1.89727">
        <ele>259.79998779297</ele>
        <time>2020-07-29T08:10:49Z</time>
      </trkpt>
      <trkpt lat="44.04182" lon="1.89733">
        <ele>260.20001220703</ele>
        <time>2020-07-29T08:10:51Z</time>
      </trkpt>
      <trkpt lat="44.04181" lon="1.89744">
        <ele>260.79998779297</ele>
        <time>2020-07-29T08:10:55Z</time>
      </trkpt>
      <trkpt lat="44.04178" lon="1.89755">
        <ele>261.39999389648</ele>
        <time>2020-07-29T08:10:59Z</time>
      </trkpt>
      <trkpt lat="44.04174" lon="1.89762">
        <ele>261.79998779297</ele>
        <time>2020-07-29T08:11:02Z</time>
      </trkpt>
      <trkpt lat="44.04168" lon="1.89767">
        <ele>262.20001220703</ele>
        <time>2020-07-29T08:11:05Z</time>
      </trkpt>
      <trkpt lat="44.04155" lon="1.89767">
        <ele>262.79998779297</ele>
        <time>2020-07-29T08:11:11Z</time>
      </trkpt>
      <trkpt lat="44.04148" lon="1.89765">
        <ele>262.79998779297</ele>
        <time>2020-07-29T08:11:14Z</time>
      </trkpt>
      <trkpt lat="44.04137" lon="1.89761">
        <ele>263.39999389648</ele>
        <time>2020-07-29T08:11:19Z</time>
      </trkpt>
      <trkpt lat="44.04128" lon="1.89759">
        <ele>264</ele>
        <time>2020-07-29T08:11:23Z</time>
      </trkpt>
      <trkpt lat="44.04116" lon="1.89757">
        <ele>264.60000610352</ele>
        <time>2020-07-29T08:11:28Z</time>
      </trkpt>
      <trkpt lat="44.04108" lon="1.89758">
        <ele>265</ele>
        <time>2020-07-29T08:11:32Z</time>
      </trkpt>
      <trkpt lat="44.04097" lon="1.89759">
        <ele>265.39999389648</ele>
        <time>2020-07-29T08:11:36Z</time>
      </trkpt>
      <trkpt lat="44.04076" lon="1.89765">
        <ele>266</ele>
        <time>2020-07-29T08:11:44Z</time>
      </trkpt>
      <trkpt lat="44.04054" lon="1.89775">
        <ele>266.79998779297</ele>
        <time>2020-07-29T08:11:52Z</time>
      </trkpt>
      <trkpt lat="44.04035" lon="1.89784">
        <ele>267</ele>
        <time>2020-07-29T08:11:59Z</time>
      </trkpt>
      <trkpt lat="44.04027" lon="1.89788">
        <ele>267.20001220703</ele>
        <time>2020-07-29T08:12:02Z</time>
      </trkpt>
      <trkpt lat="44.04014" lon="1.89795">
        <ele>267.60000610352</ele>
        <time>2020-07-29T08:12:07Z</time>
      </trkpt>
      <trkpt lat="44.03987" lon="1.89806">
        <ele>267.60000610352</ele>
        <time>2020-07-29T08:12:16Z</time>
      </trkpt>
      <trkpt lat="44.03956" lon="1.8982">
        <ele>267.79998779297</ele>
        <time>2020-07-29T08:12:26Z</time>
      </trkpt>
      <trkpt lat="44.03948" lon="1.89826">
        <ele>268.20001220703</ele>
        <time>2020-07-29T08:12:30Z</time>
      </trkpt>
      <trkpt lat="44.03947" lon="1.8983">
        <ele>268.60000610352</ele>
        <time>2020-07-29T08:12:31Z</time>
      </trkpt>
      <trkpt lat="44.03948" lon="1.89841">
        <ele>269</ele>
        <time>2020-07-29T08:12:34Z</time>
      </trkpt>
      <trkpt lat="44.03948" lon="1.8985">
        <ele>269.20001220703</ele>
        <time>2020-07-29T08:12:36Z</time>
      </trkpt>
      <trkpt lat="44.03949" lon="1.89882">
        <ele>268.60000610352</ele>
        <time>2020-07-29T08:12:43Z</time>
      </trkpt>
      <trkpt lat="44.03949" lon="1.89908">
        <ele>268.20001220703</ele>
        <time>2020-07-29T08:12:49Z</time>
      </trkpt>
      <trkpt lat="44.03945" lon="1.89936">
        <ele>267.39999389648</ele>
        <time>2020-07-29T08:12:54Z</time>
      </trkpt>
      <trkpt lat="44.03944" lon="1.89945">
        <ele>266.60000610352</ele>
        <time>2020-07-29T08:12:55Z</time>
      </trkpt>
      <trkpt lat="44.03943" lon="1.89962">
        <ele>265</ele>
        <time>2020-07-29T08:12:57Z</time>
      </trkpt>
      <trkpt lat="44.03944" lon="1.8997">
        <ele>264</ele>
        <time>2020-07-29T08:12:58Z</time>
      </trkpt>
      <trkpt lat="44.03944" lon="1.89978">
        <ele>263</ele>
        <time>2020-07-29T08:12:59Z</time>
      </trkpt>
      <trkpt lat="44.03945" lon="1.89986">
        <ele>261.79998779297</ele>
        <time>2020-07-29T08:13:00Z</time>
      </trkpt>
      <trkpt lat="44.03948" lon="1.89994">
        <ele>260.79998779297</ele>
        <time>2020-07-29T08:13:01Z</time>
      </trkpt>
      <trkpt lat="44.0395" lon="1.90002">
        <ele>259.60000610352</ele>
        <time>2020-07-29T08:13:02Z</time>
      </trkpt>
      <trkpt lat="44.03957" lon="1.90017">
        <ele>258</ele>
        <time>2020-07-29T08:13:04Z</time>
      </trkpt>
      <trkpt lat="44.03965" lon="1.90029">
        <ele>257</ele>
        <time>2020-07-29T08:13:06Z</time>
      </trkpt>
      <trkpt lat="44.03978" lon="1.9004">
        <ele>255.60000610352</ele>
        <time>2020-07-29T08:13:09Z</time>
      </trkpt>
      <trkpt lat="44.03986" lon="1.90043">
        <ele>255.19999694824</ele>
        <time>2020-07-29T08:13:11Z</time>
      </trkpt>
      <trkpt lat="44.03996" lon="1.90048">
        <ele>255.39999389648</ele>
        <time>2020-07-29T08:13:14Z</time>
      </trkpt>
      <trkpt lat="44.04016" lon="1.90061">
        <ele>256.20001220703</ele>
        <time>2020-07-29T08:13:20Z</time>
      </trkpt>
      <trkpt lat="44.0402" lon="1.90069">
        <ele>256.20001220703</ele>
        <time>2020-07-29T08:13:22Z</time>
      </trkpt>
      <trkpt lat="44.04019" lon="1.90074">
        <ele>256.20001220703</ele>
        <time>2020-07-29T08:13:23Z</time>
      </trkpt>
      <trkpt lat="44.04021" lon="1.90086">
        <ele>255.60000610352</ele>
        <time>2020-07-29T08:13:25Z</time>
      </trkpt>
      <trkpt lat="44.04027" lon="1.90097">
        <ele>254.39999389648</ele>
        <time>2020-07-29T08:13:27Z</time>
      </trkpt>
      <trkpt lat="44.04035" lon="1.90111">
        <ele>252.60000610352</ele>
        <time>2020-07-29T08:13:29Z</time>
      </trkpt>
      <trkpt lat="44.04042" lon="1.90127">
        <ele>251.19999694824</ele>
        <time>2020-07-29T08:13:31Z</time>
      </trkpt>
      <trkpt lat="44.04049" lon="1.90145">
        <ele>250</ele>
        <time>2020-07-29T08:13:33Z</time>
      </trkpt>
      <trkpt lat="44.04055" lon="1.90156">
        <ele>248.80000305176</ele>
        <time>2020-07-29T08:13:35Z</time>
      </trkpt>
      <trkpt lat="44.04057" lon="1.9016">
        <ele>248.39999389648</ele>
        <time>2020-07-29T08:13:36Z</time>
      </trkpt>
      <trkpt lat="44.04058" lon="1.90167">
        <ele>248</ele>
        <time>2020-07-29T08:13:38Z</time>
      </trkpt>
      <trkpt lat="44.04055" lon="1.90176">
        <ele>247.80000305176</ele>
        <time>2020-07-29T08:13:40Z</time>
      </trkpt>
      <trkpt lat="44.04051" lon="1.90184">
        <ele>247.39999389648</ele>
        <time>2020-07-29T08:13:42Z</time>
      </trkpt>
      <trkpt lat="44.04047" lon="1.9019">
        <ele>246.80000305176</ele>
        <time>2020-07-29T08:13:45Z</time>
      </trkpt>
      <trkpt lat="44.0404" lon="1.90197">
        <ele>248</ele>
        <time>2020-07-29T08:13:49Z</time>
      </trkpt>
      <trkpt lat="44.04035" lon="1.90203">
        <ele>249.39999389648</ele>
        <time>2020-07-29T08:13:52Z</time>
      </trkpt>
      <trkpt lat="44.04033" lon="1.90205">
        <ele>249.80000305176</ele>
        <time>2020-07-29T08:13:53Z</time>
      </trkpt>
      <trkpt lat="44.04031" lon="1.90209">
        <ele>250.60000610352</ele>
        <time>2020-07-29T08:13:55Z</time>
      </trkpt>
      <trkpt lat="44.0403" lon="1.90218">
        <ele>251.80000305176</ele>
        <time>2020-07-29T08:13:58Z</time>
      </trkpt>
      <trkpt lat="44.0403" lon="1.9022">
        <ele>252.19999694824</ele>
        <time>2020-07-29T08:13:59Z</time>
      </trkpt>
      <trkpt lat="44.04033" lon="1.9023">
        <ele>253</ele>
        <time>2020-07-29T08:14:02Z</time>
      </trkpt>
      <trkpt lat="44.04035" lon="1.90241">
        <ele>253.39999389648</ele>
        <time>2020-07-29T08:14:05Z</time>
      </trkpt>
      <trkpt lat="44.04033" lon="1.90262">
        <ele>253.60000610352</ele>
        <time>2020-07-29T08:14:12Z</time>
      </trkpt>
      <trkpt lat="44.04029" lon="1.90285">
        <ele>254.19999694824</ele>
        <time>2020-07-29T08:14:20Z</time>
      </trkpt>
      <trkpt lat="44.04028" lon="1.90293">
        <ele>254.39999389648</ele>
        <time>2020-07-29T08:14:23Z</time>
      </trkpt>
      <trkpt lat="44.04024" lon="1.90316">
        <ele>255.19999694824</ele>
        <time>2020-07-29T08:14:31Z</time>
      </trkpt>
      <trkpt lat="44.04018" lon="1.90348">
        <ele>255.80000305176</ele>
        <time>2020-07-29T08:14:41Z</time>
      </trkpt>
      <trkpt lat="44.04014" lon="1.90377">
        <ele>255.39999389648</ele>
        <time>2020-07-29T08:14:48Z</time>
      </trkpt>
      <trkpt lat="44.04009" lon="1.9042">
        <ele>254.39999389648</ele>
        <time>2020-07-29T08:14:58Z</time>
      </trkpt>
      <trkpt lat="44.04007" lon="1.90434">
        <ele>254.19999694824</ele>
        <time>2020-07-29T08:15:00Z</time>
      </trkpt>
      <trkpt lat="44.04005" lon="1.9046">
        <ele>253</ele>
        <time>2020-07-29T08:15:03Z</time>
      </trkpt>
      <trkpt lat="44.04004" lon="1.90476">
        <ele>251.80000305176</ele>
        <time>2020-07-29T08:15:05Z</time>
      </trkpt>
      <trkpt lat="44.04004" lon="1.90487">
        <ele>250.80000305176</ele>
        <time>2020-07-29T08:15:07Z</time>
      </trkpt>
      <trkpt lat="44.04003" lon="1.90508">
        <ele>251.39999389648</ele>
        <time>2020-07-29T08:15:13Z</time>
      </trkpt>
      <trkpt lat="44.04003" lon="1.90511">
        <ele>252</ele>
        <time>2020-07-29T08:15:14Z</time>
      </trkpt>
      <trkpt lat="44.04002" lon="1.90521">
        <ele>253</ele>
        <time>2020-07-29T08:15:17Z</time>
      </trkpt>
      <trkpt lat="44.04" lon="1.90531">
        <ele>253.60000610352</ele>
        <time>2020-07-29T08:15:20Z</time>
      </trkpt>
      <trkpt lat="44.0399" lon="1.90546">
        <ele>253.80000305176</ele>
        <time>2020-07-29T08:15:25Z</time>
      </trkpt>
      <trkpt lat="44.03972" lon="1.90559">
        <ele>253.80000305176</ele>
        <time>2020-07-29T08:15:32Z</time>
      </trkpt>
      <trkpt lat="44.0395" lon="1.90577">
        <ele>253.80000305176</ele>
        <time>2020-07-29T08:15:41Z</time>
      </trkpt>
      <trkpt lat="44.03943" lon="1.90582">
        <ele>254</ele>
        <time>2020-07-29T08:15:44Z</time>
      </trkpt>
      <trkpt lat="44.0393" lon="1.90587">
        <ele>254.60000610352</ele>
        <time>2020-07-29T08:15:49Z</time>
      </trkpt>
      <trkpt lat="44.03909" lon="1.90588">
        <ele>255</ele>
        <time>2020-07-29T08:15:57Z</time>
      </trkpt>
      <trkpt lat="44.03906" lon="1.90587">
        <ele>255.19999694824</ele>
        <time>2020-07-29T08:15:58Z</time>
      </trkpt>
      <trkpt lat="44.03887" lon="1.90584">
        <ele>255.80000305176</ele>
        <time>2020-07-29T08:16:05Z</time>
      </trkpt>
      <trkpt lat="44.03862" lon="1.90585">
        <ele>255.80000305176</ele>
        <time>2020-07-29T08:16:12Z</time>
      </trkpt>
      <trkpt lat="44.03847" lon="1.90591">
        <ele>255.39999389648</ele>
        <time>2020-07-29T08:16:15Z</time>
      </trkpt>
      <trkpt lat="44.03838" lon="1.90598">
        <ele>254.80000305176</ele>
        <time>2020-07-29T08:16:17Z</time>
      </trkpt>
      <trkpt lat="44.0383" lon="1.9061">
        <ele>253.60000610352</ele>
        <time>2020-07-29T08:16:19Z</time>
      </trkpt>
      <trkpt lat="44.03826" lon="1.90623">
        <ele>252.39999389648</ele>
        <time>2020-07-29T08:16:21Z</time>
      </trkpt>
      <trkpt lat="44.03829" lon="1.90639">
        <ele>251.39999389648</ele>
        <time>2020-07-29T08:16:24Z</time>
      </trkpt>
      <trkpt lat="44.03839" lon="1.90648">
        <ele>251.80000305176</ele>
        <time>2020-07-29T08:16:28Z</time>
      </trkpt>
      <trkpt lat="44.03843" lon="1.9065">
        <ele>252.39999389648</ele>
        <time>2020-07-29T08:16:30Z</time>
      </trkpt>
      <trkpt lat="44.03852" lon="1.90654">
        <ele>253.80000305176</ele>
        <time>2020-07-29T08:16:33Z</time>
      </trkpt>
      <trkpt lat="44.03862" lon="1.90661">
        <ele>254.80000305176</ele>
        <time>2020-07-29T08:16:37Z</time>
      </trkpt>
      <trkpt lat="44.03865" lon="1.90663">
        <ele>255</ele>
        <time>2020-07-29T08:16:38Z</time>
      </trkpt>
      <trkpt lat="44.0389" lon="1.90683">
        <ele>255.60000610352</ele>
        <time>2020-07-29T08:16:47Z</time>
      </trkpt>
      <trkpt lat="44.03917" lon="1.90705">
        <ele>255.19999694824</ele>
        <time>2020-07-29T08:16:55Z</time>
      </trkpt>
      <trkpt lat="44.03931" lon="1.90727">
        <ele>255.60000610352</ele>
        <time>2020-07-29T08:17:01Z</time>
      </trkpt>
      <trkpt lat="44.03933" lon="1.9074">
        <ele>255.80000305176</ele>
        <time>2020-07-29T08:17:04Z</time>
      </trkpt>
      <trkpt lat="44.03932" lon="1.90748">
        <ele>256.20001220703</ele>
        <time>2020-07-29T08:17:06Z</time>
      </trkpt>
      <trkpt lat="44.0393" lon="1.90757">
        <ele>256.79998779297</ele>
        <time>2020-07-29T08:17:08Z</time>
      </trkpt>
      <trkpt lat="44.03924" lon="1.90785">
        <ele>257.79998779297</ele>
        <time>2020-07-29T08:17:15Z</time>
      </trkpt>
      <trkpt lat="44.03916" lon="1.90821">
        <ele>257.20001220703</ele>
        <time>2020-07-29T08:17:23Z</time>
      </trkpt>
      <trkpt lat="44.03907" lon="1.90858">
        <ele>256.20001220703</ele>
        <time>2020-07-29T08:17:29Z</time>
      </trkpt>
      <trkpt lat="44.03904" lon="1.9087">
        <ele>255.60000610352</ele>
        <time>2020-07-29T08:17:31Z</time>
      </trkpt>
      <trkpt lat="44.03902" lon="1.90894">
        <ele>254.80000305176</ele>
        <time>2020-07-29T08:17:35Z</time>
      </trkpt>
      <trkpt lat="44.03902" lon="1.90901">
        <ele>254.80000305176</ele>
        <time>2020-07-29T08:17:36Z</time>
      </trkpt>
      <trkpt lat="44.03903" lon="1.90914">
        <ele>254.60000610352</ele>
        <time>2020-07-29T08:17:38Z</time>
      </trkpt>
      <trkpt lat="44.03905" lon="1.90944">
        <ele>254.19999694824</ele>
        <time>2020-07-29T08:17:43Z</time>
      </trkpt>
      <trkpt lat="44.0391" lon="1.90993">
        <ele>254.19999694824</ele>
        <time>2020-07-29T08:17:52Z</time>
      </trkpt>
      <trkpt lat="44.03914" lon="1.91016">
        <ele>254</ele>
        <time>2020-07-29T08:17:56Z</time>
      </trkpt>
      <trkpt lat="44.0392" lon="1.91026">
        <ele>253.80000305176</ele>
        <time>2020-07-29T08:17:58Z</time>
      </trkpt>
      <trkpt lat="44.03926" lon="1.91035">
        <ele>253.60000610352</ele>
        <time>2020-07-29T08:18:00Z</time>
      </trkpt>
      <trkpt lat="44.0393" lon="1.9104">
        <ele>253.39999389648</ele>
        <time>2020-07-29T08:18:01Z</time>
      </trkpt>
      <trkpt lat="44.0394" lon="1.91051">
        <ele>252.80000305176</ele>
        <time>2020-07-29T08:18:04Z</time>
      </trkpt>
      <trkpt lat="44.03954" lon="1.91066">
        <ele>253.60000610352</ele>
        <time>2020-07-29T08:18:10Z</time>
      </trkpt>
      <trkpt lat="44.0396" lon="1.91073">
        <ele>254.39999389648</ele>
        <time>2020-07-29T08:18:13Z</time>
      </trkpt>
      <trkpt lat="44.03967" lon="1.91083">
        <ele>255.39999389648</ele>
        <time>2020-07-29T08:18:17Z</time>
      </trkpt>
      <trkpt lat="44.03969" lon="1.91086">
        <ele>255.60000610352</ele>
        <time>2020-07-29T08:18:18Z</time>
      </trkpt>
      <trkpt lat="44.03977" lon="1.91095">
        <ele>256.79998779297</ele>
        <time>2020-07-29T08:18:22Z</time>
      </trkpt>
      <trkpt lat="44.03981" lon="1.91099">
        <ele>257.39999389648</ele>
        <time>2020-07-29T08:18:24Z</time>
      </trkpt>
      <trkpt lat="44.03988" lon="1.91105">
        <ele>258</ele>
        <time>2020-07-29T08:18:27Z</time>
      </trkpt>
      <trkpt lat="44.03995" lon="1.91118">
        <ele>258.79998779297</ele>
        <time>2020-07-29T08:18:32Z</time>
      </trkpt>
      <trkpt lat="44.03994" lon="1.9112">
        <ele>259</ele>
        <time>2020-07-29T08:18:33Z</time>
      </trkpt>
      <trkpt lat="44.0399" lon="1.91126">
        <ele>259.60000610352</ele>
        <time>2020-07-29T08:18:36Z</time>
      </trkpt>
      <trkpt lat="44.03983" lon="1.91136">
        <ele>260</ele>
        <time>2020-07-29T08:18:40Z</time>
      </trkpt>
      <trkpt lat="44.03973" lon="1.91148">
        <ele>260.20001220703</ele>
        <time>2020-07-29T08:18:45Z</time>
      </trkpt>
      <trkpt lat="44.03954" lon="1.91168">
        <ele>260.39999389648</ele>
        <time>2020-07-29T08:18:54Z</time>
      </trkpt>
      <trkpt lat="44.03941" lon="1.91181">
        <ele>261.20001220703</ele>
        <time>2020-07-29T08:19:00Z</time>
      </trkpt>
      <trkpt lat="44.03933" lon="1.91188">
        <ele>261.60000610352</ele>
        <time>2020-07-29T08:19:04Z</time>
      </trkpt>
      <trkpt lat="44.03926" lon="1.91196">
        <ele>262.20001220703</ele>
        <time>2020-07-29T08:19:08Z</time>
      </trkpt>
      <trkpt lat="44.03918" lon="1.91206">
        <ele>263</ele>
        <time>2020-07-29T08:19:13Z</time>
      </trkpt>
      <trkpt lat="44.03911" lon="1.91215">
        <ele>263.39999389648</ele>
        <time>2020-07-29T08:19:17Z</time>
      </trkpt>
      <trkpt lat="44.03906" lon="1.91222">
        <ele>263.60000610352</ele>
        <time>2020-07-29T08:19:20Z</time>
      </trkpt>
      <trkpt lat="44.0389" lon="1.91242">
        <ele>263.79998779297</ele>
        <time>2020-07-29T08:19:28Z</time>
      </trkpt>
      <trkpt lat="44.03881" lon="1.91253">
        <ele>264.39999389648</ele>
        <time>2020-07-29T08:19:33Z</time>
      </trkpt>
      <trkpt lat="44.03872" lon="1.91265">
        <ele>264.79998779297</ele>
        <time>2020-07-29T08:19:38Z</time>
      </trkpt>
      <trkpt lat="44.0386" lon="1.9128">
        <ele>265.39999389648</ele>
        <time>2020-07-29T08:19:44Z</time>
      </trkpt>
      <trkpt lat="44.03856" lon="1.91285">
        <ele>265.60000610352</ele>
        <time>2020-07-29T08:19:46Z</time>
      </trkpt>
      <trkpt lat="44.03843" lon="1.91308">
        <ele>266</ele>
        <time>2020-07-29T08:19:54Z</time>
      </trkpt>
      <trkpt lat="44.03834" lon="1.91337">
        <ele>266.60000610352</ele>
        <time>2020-07-29T08:20:02Z</time>
      </trkpt>
      <trkpt lat="44.03828" lon="1.91376">
        <ele>267</ele>
        <time>2020-07-29T08:20:11Z</time>
      </trkpt>
      <trkpt lat="44.03819" lon="1.91393">
        <ele>267.20001220703</ele>
        <time>2020-07-29T08:20:16Z</time>
      </trkpt>
      <trkpt lat="44.03808" lon="1.91411">
        <ele>267.60000610352</ele>
        <time>2020-07-29T08:20:21Z</time>
      </trkpt>
      <trkpt lat="44.03801" lon="1.91422">
        <ele>267.60000610352</ele>
        <time>2020-07-29T08:20:24Z</time>
      </trkpt>
      <trkpt lat="44.03787" lon="1.91441">
        <ele>267.60000610352</ele>
        <time>2020-07-29T08:20:30Z</time>
      </trkpt>
      <trkpt lat="44.03784" lon="1.91464">
        <ele>267.39999389648</ele>
        <time>2020-07-29T08:20:35Z</time>
      </trkpt>
      <trkpt lat="44.03782" lon="1.91497">
        <ele>266.39999389648</ele>
        <time>2020-07-29T08:20:41Z</time>
      </trkpt>
      <trkpt lat="44.03781" lon="1.91519">
        <ele>264.79998779297</ele>
        <time>2020-07-29T08:20:44Z</time>
      </trkpt>
      <trkpt lat="44.0378" lon="1.91526">
        <ele>264</ele>
        <time>2020-07-29T08:20:45Z</time>
      </trkpt>
      <trkpt lat="44.03779" lon="1.91532">
        <ele>263.20001220703</ele>
        <time>2020-07-29T08:20:46Z</time>
      </trkpt>
      <trkpt lat="44.03776" lon="1.91544">
        <ele>262.20001220703</ele>
        <time>2020-07-29T08:20:48Z</time>
      </trkpt>
      <trkpt lat="44.03771" lon="1.91565">
        <ele>261.20001220703</ele>
        <time>2020-07-29T08:20:52Z</time>
      </trkpt>
      <trkpt lat="44.03769" lon="1.91575">
        <ele>259.79998779297</ele>
        <time>2020-07-29T08:20:55Z</time>
      </trkpt>
      <trkpt lat="44.03768" lon="1.91579">
        <ele>259</ele>
        <time>2020-07-29T08:20:56Z</time>
      </trkpt>
      <trkpt lat="44.03768" lon="1.91587">
        <ele>258.60000610352</ele>
        <time>2020-07-29T08:20:58Z</time>
      </trkpt>
      <trkpt lat="44.03767" lon="1.91599">
        <ele>257.20001220703</ele>
        <time>2020-07-29T08:21:01Z</time>
      </trkpt>
      <trkpt lat="44.03768" lon="1.91604">
        <ele>256.39999389648</ele>
        <time>2020-07-29T08:21:02Z</time>
      </trkpt>
      <trkpt lat="44.03768" lon="1.91609">
        <ele>255.60000610352</ele>
        <time>2020-07-29T08:21:03Z</time>
      </trkpt>
      <trkpt lat="44.03772" lon="1.91616">
        <ele>253.80000305176</ele>
        <time>2020-07-29T08:21:05Z</time>
      </trkpt>
      <trkpt lat="44.03774" lon="1.91619">
        <ele>253</ele>
        <time>2020-07-29T08:21:06Z</time>
      </trkpt>
      <trkpt lat="44.03777" lon="1.91622">
        <ele>252.39999389648</ele>
        <time>2020-07-29T08:21:07Z</time>
      </trkpt>
      <trkpt lat="44.03786" lon="1.91629">
        <ele>251.19999694824</ele>
        <time>2020-07-29T08:21:10Z</time>
      </trkpt>
      <trkpt lat="44.03795" lon="1.91636">
        <ele>249.80000305176</ele>
        <time>2020-07-29T08:21:13Z</time>
      </trkpt>
      <trkpt lat="44.03798" lon="1.91639">
        <ele>249.19999694824</ele>
        <time>2020-07-29T08:21:14Z</time>
      </trkpt>
      <trkpt lat="44.038" lon="1.91642">
        <ele>248.39999389648</ele>
        <time>2020-07-29T08:21:15Z</time>
      </trkpt>
      <trkpt lat="44.03805" lon="1.9165">
        <ele>247</ele>
        <time>2020-07-29T08:21:17Z</time>
      </trkpt>
      <trkpt lat="44.03807" lon="1.91655">
        <ele>246.39999389648</ele>
        <time>2020-07-29T08:21:18Z</time>
      </trkpt>
      <trkpt lat="44.03809" lon="1.91661">
        <ele>245.60000610352</ele>
        <time>2020-07-29T08:21:19Z</time>
      </trkpt>
      <trkpt lat="44.03811" lon="1.91666">
        <ele>243.80000305176</ele>
        <time>2020-07-29T08:21:20Z</time>
      </trkpt>
      <trkpt lat="44.03813" lon="1.91673">
        <ele>242.39999389648</ele>
        <time>2020-07-29T08:21:22Z</time>
      </trkpt>
      <trkpt lat="44.03814" lon="1.91677">
        <ele>242</ele>
        <time>2020-07-29T08:21:23Z</time>
      </trkpt>
      <trkpt lat="44.03824" lon="1.91703">
        <ele>241.19999694824</ele>
        <time>2020-07-29T08:21:28Z</time>
      </trkpt>
      <trkpt lat="44.03834" lon="1.91722">
        <ele>240</ele>
        <time>2020-07-29T08:21:31Z</time>
      </trkpt>
      <trkpt lat="44.03841" lon="1.91736">
        <ele>239</ele>
        <time>2020-07-29T08:21:33Z</time>
      </trkpt>
      <trkpt lat="44.03849" lon="1.9175">
        <ele>237.80000305176</ele>
        <time>2020-07-29T08:21:35Z</time>
      </trkpt>
      <trkpt lat="44.03857" lon="1.91763">
        <ele>236.60000610352</ele>
        <time>2020-07-29T08:21:37Z</time>
      </trkpt>
      <trkpt lat="44.03865" lon="1.91776">
        <ele>235.39999389648</ele>
        <time>2020-07-29T08:21:39Z</time>
      </trkpt>
      <trkpt lat="44.03879" lon="1.91795">
        <ele>234.39999389648</ele>
        <time>2020-07-29T08:21:42Z</time>
      </trkpt>
      <trkpt lat="44.03889" lon="1.91806">
        <ele>233.60000610352</ele>
        <time>2020-07-29T08:21:44Z</time>
      </trkpt>
      <trkpt lat="44.03895" lon="1.91811">
        <ele>233.19999694824</ele>
        <time>2020-07-29T08:21:45Z</time>
      </trkpt>
      <trkpt lat="44.03914" lon="1.91825">
        <ele>231.60000610352</ele>
        <time>2020-07-29T08:21:48Z</time>
      </trkpt>
      <trkpt lat="44.03926" lon="1.91834">
        <ele>230.39999389648</ele>
        <time>2020-07-29T08:21:50Z</time>
      </trkpt>
      <trkpt lat="44.03932" lon="1.91839">
        <ele>229.60000610352</ele>
        <time>2020-07-29T08:21:51Z</time>
      </trkpt>
      <trkpt lat="44.03938" lon="1.91844">
        <ele>229.19999694824</ele>
        <time>2020-07-29T08:21:52Z</time>
      </trkpt>
      <trkpt lat="44.03956" lon="1.91859">
        <ele>228</ele>
        <time>2020-07-29T08:21:55Z</time>
      </trkpt>
      <trkpt lat="44.03969" lon="1.91873">
        <ele>227.80000305176</ele>
        <time>2020-07-29T08:21:58Z</time>
      </trkpt>
      <trkpt lat="44.03982" lon="1.91891">
        <ele>228.60000610352</ele>
        <time>2020-07-29T08:22:03Z</time>
      </trkpt>
      <trkpt lat="44.03987" lon="1.91898">
        <ele>229.19999694824</ele>
        <time>2020-07-29T08:22:05Z</time>
      </trkpt>
      <trkpt lat="44.04" lon="1.91914">
        <ele>229.60000610352</ele>
        <time>2020-07-29T08:22:10Z</time>
      </trkpt>
      <trkpt lat="44.04019" lon="1.91932">
        <ele>228.39999389648</ele>
        <time>2020-07-29T08:22:15Z</time>
      </trkpt>
      <trkpt lat="44.04025" lon="1.91936">
        <ele>227.80000305176</ele>
        <time>2020-07-29T08:22:16Z</time>
      </trkpt>
      <trkpt lat="44.04035" lon="1.91946">
        <ele>226.39999389648</ele>
        <time>2020-07-29T08:22:18Z</time>
      </trkpt>
      <trkpt lat="44.0404" lon="1.91952">
        <ele>225.80000305176</ele>
        <time>2020-07-29T08:22:19Z</time>
      </trkpt>
      <trkpt lat="44.04045" lon="1.91959">
        <ele>225.39999389648</ele>
        <time>2020-07-29T08:22:20Z</time>
      </trkpt>
      <trkpt lat="44.04049" lon="1.91966">
        <ele>225</ele>
        <time>2020-07-29T08:22:21Z</time>
      </trkpt>
      <trkpt lat="44.0406" lon="1.91987">
        <ele>224.19999694824</ele>
        <time>2020-07-29T08:22:24Z</time>
      </trkpt>
      <trkpt lat="44.04063" lon="1.91994">
        <ele>223.80000305176</ele>
        <time>2020-07-29T08:22:25Z</time>
      </trkpt>
      <trkpt lat="44.04064" lon="1.92">
        <ele>223.39999389648</ele>
        <time>2020-07-29T08:22:26Z</time>
      </trkpt>
      <trkpt lat="44.04064" lon="1.92019">
        <ele>223.19999694824</ele>
        <time>2020-07-29T08:22:29Z</time>
      </trkpt>
      <trkpt lat="44.04063" lon="1.92025">
        <ele>223</ele>
        <time>2020-07-29T08:22:30Z</time>
      </trkpt>
      <trkpt lat="44.04059" lon="1.9204">
        <ele>223</ele>
        <time>2020-07-29T08:22:33Z</time>
      </trkpt>
      <trkpt lat="44.04052" lon="1.92053">
        <ele>223</ele>
        <time>2020-07-29T08:22:36Z</time>
      </trkpt>
      <trkpt lat="44.04036" lon="1.92076">
        <ele>223</ele>
        <time>2020-07-29T08:22:42Z</time>
      </trkpt>
      <trkpt lat="44.04015" lon="1.921">
        <ele>222.19999694824</ele>
        <time>2020-07-29T08:22:48Z</time>
      </trkpt>
      <trkpt lat="44.04012" lon="1.92104">
        <ele>222</ele>
        <time>2020-07-29T08:22:49Z</time>
      </trkpt>
      <trkpt lat="44.04001" lon="1.92119">
        <ele>220.60000610352</ele>
        <time>2020-07-29T08:22:52Z</time>
      </trkpt>
      <trkpt lat="44.03993" lon="1.9213">
        <ele>219</ele>
        <time>2020-07-29T08:22:54Z</time>
      </trkpt>
      <trkpt lat="44.03989" lon="1.92136">
        <ele>218.39999389648</ele>
        <time>2020-07-29T08:22:55Z</time>
      </trkpt>
      <trkpt lat="44.03986" lon="1.92141">
        <ele>216.80000305176</ele>
        <time>2020-07-29T08:22:56Z</time>
      </trkpt>
      <trkpt lat="44.0398" lon="1.92151">
        <ele>215.39999389648</ele>
        <time>2020-07-29T08:22:58Z</time>
      </trkpt>
      <trkpt lat="44.03979" lon="1.92155">
        <ele>214.60000610352</ele>
        <time>2020-07-29T08:22:59Z</time>
      </trkpt>
      <trkpt lat="44.03979" lon="1.92158">
        <ele>214</ele>
        <time>2020-07-29T08:23:00Z</time>
      </trkpt>
      <trkpt lat="44.0398" lon="1.9216">
        <ele>213</ele>
        <time>2020-07-29T08:23:02Z</time>
      </trkpt>
      <trkpt lat="44.03982" lon="1.92161">
        <ele>212.60000610352</ele>
        <time>2020-07-29T08:23:03Z</time>
      </trkpt>
      <trkpt lat="44.03986" lon="1.92163">
        <ele>211.60000610352</ele>
        <time>2020-07-29T08:23:05Z</time>
      </trkpt>
      <trkpt lat="44.0399" lon="1.92165">
        <ele>210.80000305176</ele>
        <time>2020-07-29T08:23:06Z</time>
      </trkpt>
      <trkpt lat="44.03993" lon="1.92167">
        <ele>210</ele>
        <time>2020-07-29T08:23:07Z</time>
      </trkpt>
      <trkpt lat="44.03999" lon="1.9217">
        <ele>208.80000305176</ele>
        <time>2020-07-29T08:23:09Z</time>
      </trkpt>
      <trkpt lat="44.04001" lon="1.92172">
        <ele>208.60000610352</ele>
        <time>2020-07-29T08:23:10Z</time>
      </trkpt>
      <trkpt lat="44.0401" lon="1.92186">
        <ele>208.19999694824</ele>
        <time>2020-07-29T08:23:15Z</time>
      </trkpt>
      <trkpt lat="44.04022" lon="1.92202">
        <ele>208</ele>
        <time>2020-07-29T08:23:20Z</time>
      </trkpt>
      <trkpt lat="44.04045" lon="1.92207">
        <ele>208.39999389648</ele>
        <time>2020-07-29T08:23:26Z</time>
      </trkpt>
      <trkpt lat="44.04063" lon="1.92203">
        <ele>208.39999389648</ele>
        <time>2020-07-29T08:23:31Z</time>
      </trkpt>
      <trkpt lat="44.04089" lon="1.92191">
        <ele>208</ele>
        <time>2020-07-29T08:23:38Z</time>
      </trkpt>
      <trkpt lat="44.04101" lon="1.92183">
        <ele>207.80000305176</ele>
        <time>2020-07-29T08:23:41Z</time>
      </trkpt>
      <trkpt lat="44.04116" lon="1.92167">
        <ele>207.39999389648</ele>
        <time>2020-07-29T08:23:45Z</time>
      </trkpt>
      <trkpt lat="44.04127" lon="1.92151">
        <ele>206.80000305176</ele>
        <time>2020-07-29T08:23:48Z</time>
      </trkpt>
      <trkpt lat="44.04139" lon="1.92133">
        <ele>205.80000305176</ele>
        <time>2020-07-29T08:23:51Z</time>
      </trkpt>
      <trkpt lat="44.04143" lon="1.92127">
        <ele>205.60000610352</ele>
        <time>2020-07-29T08:23:52Z</time>
      </trkpt>
      <trkpt lat="44.04156" lon="1.92106">
        <ele>204.60000610352</ele>
        <time>2020-07-29T08:23:55Z</time>
      </trkpt>
      <trkpt lat="44.04164" lon="1.92092">
        <ele>204</ele>
        <time>2020-07-29T08:23:57Z</time>
      </trkpt>
      <trkpt lat="44.0417" lon="1.92079">
        <ele>203.39999389648</ele>
        <time>2020-07-29T08:23:59Z</time>
      </trkpt>
      <trkpt lat="44.04181" lon="1.92054">
        <ele>203.39999389648</ele>
        <time>2020-07-29T08:24:03Z</time>
      </trkpt>
      <trkpt lat="44.04191" lon="1.92026">
        <ele>204.80000305176</ele>
        <time>2020-07-29T08:24:08Z</time>
      </trkpt>
      <trkpt lat="44.04199" lon="1.9201">
        <ele>205.19999694824</ele>
        <time>2020-07-29T08:24:11Z</time>
      </trkpt>
      <trkpt lat="44.04216" lon="1.91983">
        <ele>205.60000610352</ele>
        <time>2020-07-29T08:24:18Z</time>
      </trkpt>
      <trkpt lat="44.04218" lon="1.9198">
        <ele>205.80000305176</ele>
        <time>2020-07-29T08:24:19Z</time>
      </trkpt>
      <trkpt lat="44.04223" lon="1.91972">
        <ele>207</ele>
        <time>2020-07-29T08:24:22Z</time>
      </trkpt>
      <trkpt lat="44.0423" lon="1.91964">
        <ele>208.19999694824</ele>
        <time>2020-07-29T08:24:26Z</time>
      </trkpt>
      <trkpt lat="44.0424" lon="1.91956">
        <ele>209.19999694824</ele>
        <time>2020-07-29T08:24:31Z</time>
      </trkpt>
      <trkpt lat="44.04247" lon="1.91952">
        <ele>210</ele>
        <time>2020-07-29T08:24:35Z</time>
      </trkpt>
      <trkpt lat="44.04249" lon="1.91951">
        <ele>210.19999694824</ele>
        <time>2020-07-29T08:24:36Z</time>
      </trkpt>
      <trkpt lat="44.04258" lon="1.91944">
        <ele>211.19999694824</ele>
        <time>2020-07-29T08:24:42Z</time>
      </trkpt>
      <trkpt lat="44.0426" lon="1.91943">
        <ele>211.39999389648</ele>
        <time>2020-07-29T08:24:43Z</time>
      </trkpt>
      <trkpt lat="44.04267" lon="1.91937">
        <ele>212.39999389648</ele>
        <time>2020-07-29T08:24:48Z</time>
      </trkpt>
      <trkpt lat="44.04273" lon="1.91932">
        <ele>213.39999389648</ele>
        <time>2020-07-29T08:24:53Z</time>
      </trkpt>
      <trkpt lat="44.04274" lon="1.91931">
        <ele>213.60000610352</ele>
        <time>2020-07-29T08:24:54Z</time>
      </trkpt>
      <trkpt lat="44.04281" lon="1.91927">
        <ele>214.39999389648</ele>
        <time>2020-07-29T08:24:59Z</time>
      </trkpt>
      <trkpt lat="44.04282" lon="1.91926">
        <ele>214.60000610352</ele>
        <time>2020-07-29T08:25:00Z</time>
      </trkpt>
      <trkpt lat="44.04283" lon="1.91925">
        <ele>214.80000305176</ele>
        <time>2020-07-29T08:25:01Z</time>
      </trkpt>
      <trkpt lat="44.04291" lon="1.91919">
        <ele>215.80000305176</ele>
        <time>2020-07-29T08:25:06Z</time>
      </trkpt>
      <trkpt lat="44.04295" lon="1.91915">
        <ele>216.39999389648</ele>
        <time>2020-07-29T08:25:09Z</time>
      </trkpt>
      <trkpt lat="44.04299" lon="1.91913">
        <ele>216.80000305176</ele>
        <time>2020-07-29T08:25:12Z</time>
      </trkpt>
      <trkpt lat="44.04305" lon="1.91908">
        <ele>217.60000610352</ele>
        <time>2020-07-29T08:25:16Z</time>
      </trkpt>
      <trkpt lat="44.04308" lon="1.91906">
        <ele>218</ele>
        <time>2020-07-29T08:25:18Z</time>
      </trkpt>
      <trkpt lat="44.04315" lon="1.91902">
        <ele>219</ele>
        <time>2020-07-29T08:25:23Z</time>
      </trkpt>
      <trkpt lat="44.04321" lon="1.91898">
        <ele>219.80000305176</ele>
        <time>2020-07-29T08:25:27Z</time>
      </trkpt>
      <trkpt lat="44.04324" lon="1.91897">
        <ele>220.19999694824</ele>
        <time>2020-07-29T08:25:29Z</time>
      </trkpt>
      <trkpt lat="44.04332" lon="1.91892">
        <ele>221.19999694824</ele>
        <time>2020-07-29T08:25:35Z</time>
      </trkpt>
      <trkpt lat="44.04336" lon="1.9189">
        <ele>221.80000305176</ele>
        <time>2020-07-29T08:25:38Z</time>
      </trkpt>
      <trkpt lat="44.04339" lon="1.91889">
        <ele>222.19999694824</ele>
        <time>2020-07-29T08:25:40Z</time>
      </trkpt>
      <trkpt lat="44.04342" lon="1.91887">
        <ele>222.60000610352</ele>
        <time>2020-07-29T08:25:42Z</time>
      </trkpt>
      <trkpt lat="44.04345" lon="1.91885">
        <ele>223.19999694824</ele>
        <time>2020-07-29T08:25:45Z</time>
      </trkpt>
      <trkpt lat="44.0435" lon="1.91885">
        <ele>223.80000305176</ele>
        <time>2020-07-29T08:25:48Z</time>
      </trkpt>
      <trkpt lat="44.04353" lon="1.91883">
        <ele>224.39999389648</ele>
        <time>2020-07-29T08:25:51Z</time>
      </trkpt>
      <trkpt lat="44.04362" lon="1.91879">
        <ele>225.39999389648</ele>
        <time>2020-07-29T08:25:58Z</time>
      </trkpt>
      <trkpt lat="44.04363" lon="1.91879">
        <ele>225.60000610352</ele>
        <time>2020-07-29T08:25:59Z</time>
      </trkpt>
      <trkpt lat="44.0437" lon="1.91876">
        <ele>226.60000610352</ele>
        <time>2020-07-29T08:26:04Z</time>
      </trkpt>
      <trkpt lat="44.04374" lon="1.91874">
        <ele>227.19999694824</ele>
        <time>2020-07-29T08:26:07Z</time>
      </trkpt>
      <trkpt lat="44.04376" lon="1.91873">
        <ele>227.80000305176</ele>
        <time>2020-07-29T08:26:09Z</time>
      </trkpt>
      <trkpt lat="44.04383" lon="1.91869">
        <ele>228.80000305176</ele>
        <time>2020-07-29T08:26:15Z</time>
      </trkpt>
      <trkpt lat="44.04384" lon="1.91869">
        <ele>229</ele>
        <time>2020-07-29T08:26:16Z</time>
      </trkpt>
      <trkpt lat="44.0439" lon="1.91867">
        <ele>230</ele>
        <time>2020-07-29T08:26:21Z</time>
      </trkpt>
      <trkpt lat="44.04393" lon="1.91866">
        <ele>230.60000610352</ele>
        <time>2020-07-29T08:26:24Z</time>
      </trkpt>
      <trkpt lat="44.04396" lon="1.91865">
        <ele>231</ele>
        <time>2020-07-29T08:26:26Z</time>
      </trkpt>
      <trkpt lat="44.04398" lon="1.91863">
        <ele>231.60000610352</ele>
        <time>2020-07-29T08:26:28Z</time>
      </trkpt>
      <trkpt lat="44.04401" lon="1.91861">
        <ele>232.19999694824</ele>
        <time>2020-07-29T08:26:31Z</time>
      </trkpt>
      <trkpt lat="44.04406" lon="1.91857">
        <ele>233.39999389648</ele>
        <time>2020-07-29T08:26:35Z</time>
      </trkpt>
      <trkpt lat="44.04412" lon="1.91854">
        <ele>234.60000610352</ele>
        <time>2020-07-29T08:26:40Z</time>
      </trkpt>
      <trkpt lat="44.04416" lon="1.91851">
        <ele>235.19999694824</ele>
        <time>2020-07-29T08:26:43Z</time>
      </trkpt>
      <trkpt lat="44.04418" lon="1.91848">
        <ele>235.60000610352</ele>
        <time>2020-07-29T08:26:45Z</time>
      </trkpt>
      <trkpt lat="44.04423" lon="1.91842">
        <ele>236.60000610352</ele>
        <time>2020-07-29T08:26:50Z</time>
      </trkpt>
      <trkpt lat="44.04424" lon="1.91841">
        <ele>236.80000305176</ele>
        <time>2020-07-29T08:26:51Z</time>
      </trkpt>
      <trkpt lat="44.0443" lon="1.91837">
        <ele>237.80000305176</ele>
        <time>2020-07-29T08:26:55Z</time>
      </trkpt>
      <trkpt lat="44.04435" lon="1.91834">
        <ele>238.80000305176</ele>
        <time>2020-07-29T08:26:59Z</time>
      </trkpt>
      <trkpt lat="44.04444" lon="1.91829">
        <ele>239.80000305176</ele>
        <time>2020-07-29T08:27:06Z</time>
      </trkpt>
      <trkpt lat="44.04453" lon="1.91827">
        <ele>240.60000610352</ele>
        <time>2020-07-29T08:27:14Z</time>
      </trkpt>
      <trkpt lat="44.04456" lon="1.91827">
        <ele>240.80000305176</ele>
        <time>2020-07-29T08:27:16Z</time>
      </trkpt>
      <trkpt lat="44.04465" lon="1.91827">
        <ele>241.80000305176</ele>
        <time>2020-07-29T08:27:22Z</time>
      </trkpt>
      <trkpt lat="44.04466" lon="1.91827">
        <ele>242</ele>
        <time>2020-07-29T08:27:23Z</time>
      </trkpt>
      <trkpt lat="44.04475" lon="1.91824">
        <ele>243.19999694824</ele>
        <time>2020-07-29T08:27:30Z</time>
      </trkpt>
      <trkpt lat="44.04483" lon="1.91821">
        <ele>244.39999389648</ele>
        <time>2020-07-29T08:27:36Z</time>
      </trkpt>
      <trkpt lat="44.04486" lon="1.91821">
        <ele>244.60000610352</ele>
        <time>2020-07-29T08:27:38Z</time>
      </trkpt>
      <trkpt lat="44.0449" lon="1.91821">
        <ele>245.39999389648</ele>
        <time>2020-07-29T08:27:42Z</time>
      </trkpt>
      <trkpt lat="44.04494" lon="1.91821">
        <ele>246.19999694824</ele>
        <time>2020-07-29T08:27:46Z</time>
      </trkpt>
      <trkpt lat="44.04516" lon="1.91826">
        <ele>247.60000610352</ele>
        <time>2020-07-29T08:28:05Z</time>
      </trkpt>
      <trkpt lat="44.0452" lon="1.91824">
        <ele>248</ele>
        <time>2020-07-29T08:28:08Z</time>
      </trkpt>
      <trkpt lat="44.0453" lon="1.91817">
        <ele>248.60000610352</ele>
        <time>2020-07-29T08:28:14Z</time>
      </trkpt>
      <trkpt lat="44.04535" lon="1.9181">
        <ele>249.60000610352</ele>
        <time>2020-07-29T08:28:18Z</time>
      </trkpt>
      <trkpt lat="44.04536" lon="1.91808">
        <ele>249.80000305176</ele>
        <time>2020-07-29T08:28:19Z</time>
      </trkpt>
      <trkpt lat="44.04544" lon="1.91796">
        <ele>250</ele>
        <time>2020-07-29T08:28:23Z</time>
      </trkpt>
      <trkpt lat="44.04558" lon="1.91784">
        <ele>248.80000305176</ele>
        <time>2020-07-29T08:28:27Z</time>
      </trkpt>
      <trkpt lat="44.04565" lon="1.91776">
        <ele>247.80000305176</ele>
        <time>2020-07-29T08:28:29Z</time>
      </trkpt>
      <trkpt lat="44.0457" lon="1.91771">
        <ele>247.39999389648</ele>
        <time>2020-07-29T08:28:30Z</time>
      </trkpt>
      <trkpt lat="44.0458" lon="1.91762">
        <ele>246</ele>
        <time>2020-07-29T08:28:32Z</time>
      </trkpt>
      <trkpt lat="44.04592" lon="1.91755">
        <ele>244.39999389648</ele>
        <time>2020-07-29T08:28:34Z</time>
      </trkpt>
      <trkpt lat="44.04606" lon="1.91748">
        <ele>242.60000610352</ele>
        <time>2020-07-29T08:28:36Z</time>
      </trkpt>
      <trkpt lat="44.0462" lon="1.9174">
        <ele>241</ele>
        <time>2020-07-29T08:28:38Z</time>
      </trkpt>
      <trkpt lat="44.04635" lon="1.91734">
        <ele>239.39999389648</ele>
        <time>2020-07-29T08:28:40Z</time>
      </trkpt>
      <trkpt lat="44.04642" lon="1.91732">
        <ele>238.60000610352</ele>
        <time>2020-07-29T08:28:41Z</time>
      </trkpt>
      <trkpt lat="44.04651" lon="1.9173">
        <ele>237.60000610352</ele>
        <time>2020-07-29T08:28:42Z</time>
      </trkpt>
      <trkpt lat="44.04667" lon="1.91725">
        <ele>236.39999389648</ele>
        <time>2020-07-29T08:28:44Z</time>
      </trkpt>
      <trkpt lat="44.04683" lon="1.9172">
        <ele>235.39999389648</ele>
        <time>2020-07-29T08:28:46Z</time>
      </trkpt>
      <trkpt lat="44.04705" lon="1.91711">
        <ele>234.39999389648</ele>
        <time>2020-07-29T08:28:49Z</time>
      </trkpt>
      <trkpt lat="44.04712" lon="1.91708">
        <ele>234.19999694824</ele>
        <time>2020-07-29T08:28:50Z</time>
      </trkpt>
      <trkpt lat="44.04744" lon="1.91691">
        <ele>232.80000305176</ele>
        <time>2020-07-29T08:28:55Z</time>
      </trkpt>
      <trkpt lat="44.04749" lon="1.91688">
        <ele>231.39999389648</ele>
        <time>2020-07-29T08:28:56Z</time>
      </trkpt>
      <trkpt lat="44.04762" lon="1.91686">
        <ele>230</ele>
        <time>2020-07-29T08:28:58Z</time>
      </trkpt>
      <trkpt lat="44.04768" lon="1.91687">
        <ele>229.39999389648</ele>
        <time>2020-07-29T08:28:59Z</time>
      </trkpt>
      <trkpt lat="44.04779" lon="1.91693">
        <ele>228.80000305176</ele>
        <time>2020-07-29T08:29:01Z</time>
      </trkpt>
      <trkpt lat="44.04787" lon="1.91701">
        <ele>228.60000610352</ele>
        <time>2020-07-29T08:29:03Z</time>
      </trkpt>
      <trkpt lat="44.0479" lon="1.91706">
        <ele>228.60000610352</ele>
        <time>2020-07-29T08:29:04Z</time>
      </trkpt>
      <trkpt lat="44.04793" lon="1.9171">
        <ele>228.80000305176</ele>
        <time>2020-07-29T08:29:05Z</time>
      </trkpt>
      <trkpt lat="44.048" lon="1.91721">
        <ele>229.19999694824</ele>
        <time>2020-07-29T08:29:08Z</time>
      </trkpt>
      <trkpt lat="44.04806" lon="1.91729">
        <ele>230</ele>
        <time>2020-07-29T08:29:11Z</time>
      </trkpt>
      <trkpt lat="44.0481" lon="1.91738">
        <ele>230.60000610352</ele>
        <time>2020-07-29T08:29:14Z</time>
      </trkpt>
      <trkpt lat="44.04816" lon="1.91759">
        <ele>230.80000305176</ele>
        <time>2020-07-29T08:29:20Z</time>
      </trkpt>
      <trkpt lat="44.04826" lon="1.91798">
        <ele>230</ele>
        <time>2020-07-29T08:29:28Z</time>
      </trkpt>
      <trkpt lat="44.04831" lon="1.9183">
        <ele>229.39999389648</ele>
        <time>2020-07-29T08:29:33Z</time>
      </trkpt>
      <trkpt lat="44.04832" lon="1.91843">
        <ele>228.80000305176</ele>
        <time>2020-07-29T08:29:35Z</time>
      </trkpt>
      <trkpt lat="44.04831" lon="1.91859">
        <ele>227.60000610352</ele>
        <time>2020-07-29T08:29:38Z</time>
      </trkpt>
      <trkpt lat="44.04827" lon="1.91877">
        <ele>226.19999694824</ele>
        <time>2020-07-29T08:29:41Z</time>
      </trkpt>
      <trkpt lat="44.04825" lon="1.91884">
        <ele>225.60000610352</ele>
        <time>2020-07-29T08:29:42Z</time>
      </trkpt>
      <trkpt lat="44.04824" lon="1.91891">
        <ele>225</ele>
        <time>2020-07-29T08:29:43Z</time>
      </trkpt>
      <trkpt lat="44.04822" lon="1.91898">
        <ele>223.60000610352</ele>
        <time>2020-07-29T08:29:44Z</time>
      </trkpt>
      <trkpt lat="44.04817" lon="1.91915">
        <ele>222.60000610352</ele>
        <time>2020-07-29T08:29:47Z</time>
      </trkpt>
      <trkpt lat="44.04814" lon="1.91925">
        <ele>222.60000610352</ele>
        <time>2020-07-29T08:29:49Z</time>
      </trkpt>
      <trkpt lat="44.04805" lon="1.91962">
        <ele>222.60000610352</ele>
        <time>2020-07-29T08:29:55Z</time>
      </trkpt>
      <trkpt lat="44.04794" lon="1.91997">
        <ele>222.39999389648</ele>
        <time>2020-07-29T08:30:01Z</time>
      </trkpt>
      <trkpt lat="44.04788" lon="1.92013">
        <ele>223.80000305176</ele>
        <time>2020-07-29T08:30:05Z</time>
      </trkpt>
      <trkpt lat="44.04785" lon="1.92024">
        <ele>225.19999694824</ele>
        <time>2020-07-29T08:30:08Z</time>
      </trkpt>
      <trkpt lat="44.04776" lon="1.92049">
        <ele>226</ele>
        <time>2020-07-29T08:30:14Z</time>
      </trkpt>
      <trkpt lat="44.04762" lon="1.92081">
        <ele>226.19999694824</ele>
        <time>2020-07-29T08:30:21Z</time>
      </trkpt>
      <trkpt lat="44.0476" lon="1.92086">
        <ele>226.19999694824</ele>
        <time>2020-07-29T08:30:22Z</time>
      </trkpt>
      <trkpt lat="44.04746" lon="1.92111">
        <ele>225.80000305176</ele>
        <time>2020-07-29T08:30:27Z</time>
      </trkpt>
      <trkpt lat="44.04743" lon="1.92115">
        <ele>225.60000610352</ele>
        <time>2020-07-29T08:30:28Z</time>
      </trkpt>
      <trkpt lat="44.04737" lon="1.92124">
        <ele>225.19999694824</ele>
        <time>2020-07-29T08:30:30Z</time>
      </trkpt>
      <trkpt lat="44.04726" lon="1.92134">
        <ele>224.80000305176</ele>
        <time>2020-07-29T08:30:33Z</time>
      </trkpt>
      <trkpt lat="44.04703" lon="1.9215">
        <ele>224</ele>
        <time>2020-07-29T08:30:38Z</time>
      </trkpt>
      <trkpt lat="44.04698" lon="1.92153">
        <ele>223.60000610352</ele>
        <time>2020-07-29T08:30:39Z</time>
      </trkpt>
      <trkpt lat="44.04689" lon="1.9216">
        <ele>222.80000305176</ele>
        <time>2020-07-29T08:30:41Z</time>
      </trkpt>
      <trkpt lat="44.04674" lon="1.92169">
        <ele>222.19999694824</ele>
        <time>2020-07-29T08:30:45Z</time>
      </trkpt>
      <trkpt lat="44.04663" lon="1.92174">
        <ele>223.60000610352</ele>
        <time>2020-07-29T08:30:50Z</time>
      </trkpt>
      <trkpt lat="44.04661" lon="1.92175">
        <ele>224</ele>
        <time>2020-07-29T08:30:51Z</time>
      </trkpt>
      <trkpt lat="44.04657" lon="1.92178">
        <ele>225</ele>
        <time>2020-07-29T08:30:54Z</time>
      </trkpt>
      <trkpt lat="44.04655" lon="1.92182">
        <ele>225.80000305176</ele>
        <time>2020-07-29T08:30:56Z</time>
      </trkpt>
      <trkpt lat="44.04654" lon="1.92185">
        <ele>226.39999389648</ele>
        <time>2020-07-29T08:30:57Z</time>
      </trkpt>
      <trkpt lat="44.04654" lon="1.92202">
        <ele>227</ele>
        <time>2020-07-29T08:31:02Z</time>
      </trkpt>
      <trkpt lat="44.04656" lon="1.92228">
        <ele>226.80000305176</ele>
        <time>2020-07-29T08:31:09Z</time>
      </trkpt>
      <trkpt lat="44.04667" lon="1.92253">
        <ele>226.80000305176</ele>
        <time>2020-07-29T08:31:16Z</time>
      </trkpt>
      <trkpt lat="44.04681" lon="1.92277">
        <ele>226.80000305176</ele>
        <time>2020-07-29T08:31:22Z</time>
      </trkpt>
      <trkpt lat="44.04683" lon="1.92296">
        <ele>227.80000305176</ele>
        <time>2020-07-29T08:31:27Z</time>
      </trkpt>
      <trkpt lat="44.04685" lon="1.923">
        <ele>228.19999694824</ele>
        <time>2020-07-29T08:31:28Z</time>
      </trkpt>
      <trkpt lat="44.04687" lon="1.92312">
        <ele>229</ele>
        <time>2020-07-29T08:31:31Z</time>
      </trkpt>
      <trkpt lat="44.04687" lon="1.92325">
        <ele>229.39999389648</ele>
        <time>2020-07-29T08:31:35Z</time>
      </trkpt>
      <trkpt lat="44.04687" lon="1.92338">
        <ele>230.19999694824</ele>
        <time>2020-07-29T08:31:39Z</time>
      </trkpt>
      <trkpt lat="44.04688" lon="1.92353">
        <ele>230.80000305176</ele>
        <time>2020-07-29T08:31:43Z</time>
      </trkpt>
      <trkpt lat="44.04692" lon="1.92379">
        <ele>231</ele>
        <time>2020-07-29T08:31:49Z</time>
      </trkpt>
      <trkpt lat="44.04694" lon="1.92404">
        <ele>230.80000305176</ele>
        <time>2020-07-29T08:31:55Z</time>
      </trkpt>
      <trkpt lat="44.04692" lon="1.92443">
        <ele>230.19999694824</ele>
        <time>2020-07-29T08:32:03Z</time>
      </trkpt>
      <trkpt lat="44.04689" lon="1.92483">
        <ele>229</ele>
        <time>2020-07-29T08:32:10Z</time>
      </trkpt>
      <trkpt lat="44.04688" lon="1.92488">
        <ele>229</ele>
        <time>2020-07-29T08:32:11Z</time>
      </trkpt>
      <trkpt lat="44.0468" lon="1.9251">
        <ele>228.60000610352</ele>
        <time>2020-07-29T08:32:16Z</time>
      </trkpt>
      <trkpt lat="44.04668" lon="1.92529">
        <ele>230.19999694824</ele>
        <time>2020-07-29T08:32:23Z</time>
      </trkpt>
      <trkpt lat="44.0466" lon="1.92541">
        <ele>231.19999694824</ele>
        <time>2020-07-29T08:32:28Z</time>
      </trkpt>
      <trkpt lat="44.04658" lon="1.92543">
        <ele>231.19999694824</ele>
        <time>2020-07-29T08:32:29Z</time>
      </trkpt>
      <trkpt lat="44.04651" lon="1.92551">
        <ele>232.19999694824</ele>
        <time>2020-07-29T08:32:33Z</time>
      </trkpt>
      <trkpt lat="44.04648" lon="1.92555">
        <ele>232.60000610352</ele>
        <time>2020-07-29T08:32:35Z</time>
      </trkpt>
      <trkpt lat="44.04642" lon="1.92567">
        <ele>233.39999389648</ele>
        <time>2020-07-29T08:32:41Z</time>
      </trkpt>
      <trkpt lat="44.04641" lon="1.9257">
        <ele>233.39999389648</ele>
        <time>2020-07-29T08:32:42Z</time>
      </trkpt>
      <trkpt lat="44.04638" lon="1.9259">
        <ele>233.60000610352</ele>
        <time>2020-07-29T08:32:47Z</time>
      </trkpt>
      <trkpt lat="44.04638" lon="1.92608">
        <ele>232.80000305176</ele>
        <time>2020-07-29T08:32:50Z</time>
      </trkpt>
      <trkpt lat="44.04637" lon="1.92624">
        <ele>232</ele>
        <time>2020-07-29T08:32:52Z</time>
      </trkpt>
      <trkpt lat="44.04633" lon="1.92639">
        <ele>230.80000305176</ele>
        <time>2020-07-29T08:32:54Z</time>
      </trkpt>
      <trkpt lat="44.04629" lon="1.92654">
        <ele>229.39999389648</ele>
        <time>2020-07-29T08:32:56Z</time>
      </trkpt>
      <trkpt lat="44.04627" lon="1.92661">
        <ele>228.19999694824</ele>
        <time>2020-07-29T08:32:57Z</time>
      </trkpt>
      <trkpt lat="44.04623" lon="1.92677">
        <ele>227.19999694824</ele>
        <time>2020-07-29T08:32:59Z</time>
      </trkpt>
      <trkpt lat="44.0462" lon="1.92685">
        <ele>226.80000305176</ele>
        <time>2020-07-29T08:33:00Z</time>
      </trkpt>
      <trkpt lat="44.04618" lon="1.92692">
        <ele>226.39999389648</ele>
        <time>2020-07-29T08:33:01Z</time>
      </trkpt>
      <trkpt lat="44.04612" lon="1.92704">
        <ele>225.60000610352</ele>
        <time>2020-07-29T08:33:03Z</time>
      </trkpt>
      <trkpt lat="44.04602" lon="1.92718">
        <ele>225.19999694824</ele>
        <time>2020-07-29T08:33:06Z</time>
      </trkpt>
      <trkpt lat="44.04598" lon="1.92728">
        <ele>225.39999389648</ele>
        <time>2020-07-29T08:33:08Z</time>
      </trkpt>
      <trkpt lat="44.04589" lon="1.92746">
        <ele>226</ele>
        <time>2020-07-29T08:33:12Z</time>
      </trkpt>
      <trkpt lat="44.04581" lon="1.92763">
        <ele>225.60000610352</ele>
        <time>2020-07-29T08:33:15Z</time>
      </trkpt>
      <trkpt lat="44.04572" lon="1.9278">
        <ele>224.80000305176</ele>
        <time>2020-07-29T08:33:18Z</time>
      </trkpt>
      <trkpt lat="44.04565" lon="1.92789">
        <ele>224.39999389648</ele>
        <time>2020-07-29T08:33:20Z</time>
      </trkpt>
      <trkpt lat="44.04558" lon="1.92796">
        <ele>223.80000305176</ele>
        <time>2020-07-29T08:33:23Z</time>
      </trkpt>
      <trkpt lat="44.04551" lon="1.928">
        <ele>225.19999694824</ele>
        <time>2020-07-29T08:33:28Z</time>
      </trkpt>
      <trkpt lat="44.0455" lon="1.92802">
        <ele>225.39999389648</ele>
        <time>2020-07-29T08:33:29Z</time>
      </trkpt>
      <trkpt lat="44.04543" lon="1.9282">
        <ele>224</ele>
        <time>2020-07-29T08:33:34Z</time>
      </trkpt>
      <trkpt lat="44.04542" lon="1.92826">
        <ele>223</ele>
        <time>2020-07-29T08:33:35Z</time>
      </trkpt>
      <trkpt lat="44.0454" lon="1.92832">
        <ele>221.80000305176</ele>
        <time>2020-07-29T08:33:36Z</time>
      </trkpt>
      <trkpt lat="44.04538" lon="1.92838">
        <ele>220.39999389648</ele>
        <time>2020-07-29T08:33:37Z</time>
      </trkpt>
      <trkpt lat="44.04536" lon="1.92844">
        <ele>219.39999389648</ele>
        <time>2020-07-29T08:33:38Z</time>
      </trkpt>
      <trkpt lat="44.04535" lon="1.9285">
        <ele>218.39999389648</ele>
        <time>2020-07-29T08:33:39Z</time>
      </trkpt>
      <trkpt lat="44.04534" lon="1.92856">
        <ele>217.60000610352</ele>
        <time>2020-07-29T08:33:40Z</time>
      </trkpt>
      <trkpt lat="44.04531" lon="1.92867">
        <ele>216.60000610352</ele>
        <time>2020-07-29T08:33:42Z</time>
      </trkpt>
      <trkpt lat="44.0453" lon="1.92876">
        <ele>216.19999694824</ele>
        <time>2020-07-29T08:33:44Z</time>
      </trkpt>
      <trkpt lat="44.04526" lon="1.9289">
        <ele>217.60000610352</ele>
        <time>2020-07-29T08:33:47Z</time>
      </trkpt>
      <trkpt lat="44.04524" lon="1.92902">
        <ele>218.39999389648</ele>
        <time>2020-07-29T08:33:50Z</time>
      </trkpt>
      <trkpt lat="44.04522" lon="1.92909">
        <ele>218.80000305176</ele>
        <time>2020-07-29T08:33:52Z</time>
      </trkpt>
      <trkpt lat="44.04518" lon="1.92918">
        <ele>219.39999389648</ele>
        <time>2020-07-29T08:33:55Z</time>
      </trkpt>
      <trkpt lat="44.04515" lon="1.92924">
        <ele>220</ele>
        <time>2020-07-29T08:33:57Z</time>
      </trkpt>
      <trkpt lat="44.04509" lon="1.92933">
        <ele>221.19999694824</ele>
        <time>2020-07-29T08:34:01Z</time>
      </trkpt>
      <trkpt lat="44.04504" lon="1.92941">
        <ele>222</ele>
        <time>2020-07-29T08:34:05Z</time>
      </trkpt>
      <trkpt lat="44.04502" lon="1.92946">
        <ele>222.19999694824</ele>
        <time>2020-07-29T08:34:06Z</time>
      </trkpt>
      <trkpt lat="44.04495" lon="1.92956">
        <ele>223.39999389648</ele>
        <time>2020-07-29T08:34:11Z</time>
      </trkpt>
      <trkpt lat="44.04491" lon="1.92962">
        <ele>223.80000305176</ele>
        <time>2020-07-29T08:34:14Z</time>
      </trkpt>
      <trkpt lat="44.04487" lon="1.92968">
        <ele>224.39999389648</ele>
        <time>2020-07-29T08:34:18Z</time>
      </trkpt>
      <trkpt lat="44.04484" lon="1.92973">
        <ele>224.80000305176</ele>
        <time>2020-07-29T08:34:21Z</time>
      </trkpt>
      <trkpt lat="44.04482" lon="1.92985">
        <ele>224.39999389648</ele>
        <time>2020-07-29T08:34:25Z</time>
      </trkpt>
      <trkpt lat="44.0448" lon="1.92996">
        <ele>223.19999694824</ele>
        <time>2020-07-29T08:34:27Z</time>
      </trkpt>
      <trkpt lat="44.04476" lon="1.93007">
        <ele>221.19999694824</ele>
        <time>2020-07-29T08:34:29Z</time>
      </trkpt>
      <trkpt lat="44.04474" lon="1.93013">
        <ele>220.19999694824</ele>
        <time>2020-07-29T08:34:30Z</time>
      </trkpt>
      <trkpt lat="44.04472" lon="1.93017">
        <ele>219.19999694824</ele>
        <time>2020-07-29T08:34:31Z</time>
      </trkpt>
      <trkpt lat="44.04468" lon="1.93026">
        <ele>216.39999389648</ele>
        <time>2020-07-29T08:34:33Z</time>
      </trkpt>
      <trkpt lat="44.04465" lon="1.93032">
        <ele>215.39999389648</ele>
        <time>2020-07-29T08:34:34Z</time>
      </trkpt>
      <trkpt lat="44.04463" lon="1.93037">
        <ele>214.60000610352</ele>
        <time>2020-07-29T08:34:35Z</time>
      </trkpt>
      <trkpt lat="44.04457" lon="1.93045">
        <ele>212.60000610352</ele>
        <time>2020-07-29T08:34:37Z</time>
      </trkpt>
      <trkpt lat="44.04453" lon="1.9305">
        <ele>211.60000610352</ele>
        <time>2020-07-29T08:34:38Z</time>
      </trkpt>
      <trkpt lat="44.04449" lon="1.93056">
        <ele>210.60000610352</ele>
        <time>2020-07-29T08:34:39Z</time>
      </trkpt>
      <trkpt lat="44.04442" lon="1.93067">
        <ele>208.60000610352</ele>
        <time>2020-07-29T08:34:41Z</time>
      </trkpt>
      <trkpt lat="44.04439" lon="1.93072">
        <ele>207.60000610352</ele>
        <time>2020-07-29T08:34:42Z</time>
      </trkpt>
      <trkpt lat="44.04437" lon="1.93078">
        <ele>206.80000305176</ele>
        <time>2020-07-29T08:34:43Z</time>
      </trkpt>
      <trkpt lat="44.04432" lon="1.93091">
        <ele>205.60000610352</ele>
        <time>2020-07-29T08:34:45Z</time>
      </trkpt>
      <trkpt lat="44.04431" lon="1.93096">
        <ele>205.39999389648</ele>
        <time>2020-07-29T08:34:46Z</time>
      </trkpt>
      <trkpt lat="44.04425" lon="1.93115">
        <ele>205.39999389648</ele>
        <time>2020-07-29T08:34:50Z</time>
      </trkpt>
      <trkpt lat="44.04423" lon="1.93119">
        <ele>205.60000610352</ele>
        <time>2020-07-29T08:34:51Z</time>
      </trkpt>
      <trkpt lat="44.0442" lon="1.93138">
        <ele>206.39999389648</ele>
        <time>2020-07-29T08:34:56Z</time>
      </trkpt>
      <trkpt lat="44.04421" lon="1.9314">
        <ele>206.80000305176</ele>
        <time>2020-07-29T08:34:57Z</time>
      </trkpt>
      <trkpt lat="44.04429" lon="1.9315">
        <ele>207.19999694824</ele>
        <time>2020-07-29T08:35:04Z</time>
      </trkpt>
      <trkpt lat="44.04438" lon="1.93165">
        <ele>207</ele>
        <time>2020-07-29T08:35:09Z</time>
      </trkpt>
      <trkpt lat="44.04445" lon="1.93192">
        <ele>207.60000610352</ele>
        <time>2020-07-29T08:35:16Z</time>
      </trkpt>
      <trkpt lat="44.04448" lon="1.93203">
        <ele>208</ele>
        <time>2020-07-29T08:35:19Z</time>
      </trkpt>
      <trkpt lat="44.04449" lon="1.93218">
        <ele>209.19999694824</ele>
        <time>2020-07-29T08:35:23Z</time>
      </trkpt>
      <trkpt lat="44.04449" lon="1.93231">
        <ele>210.39999389648</ele>
        <time>2020-07-29T08:35:27Z</time>
      </trkpt>
      <trkpt lat="44.04447" lon="1.93241">
        <ele>211.39999389648</ele>
        <time>2020-07-29T08:35:31Z</time>
      </trkpt>
      <trkpt lat="44.04447" lon="1.93244">
        <ele>211.60000610352</ele>
        <time>2020-07-29T08:35:32Z</time>
      </trkpt>
      <trkpt lat="44.04447" lon="1.93261">
        <ele>212</ele>
        <time>2020-07-29T08:35:36Z</time>
      </trkpt>
      <trkpt lat="44.04444" lon="1.93281">
        <ele>211</ele>
        <time>2020-07-29T08:35:41Z</time>
      </trkpt>
      <trkpt lat="44.04438" lon="1.93303">
        <ele>211</ele>
        <time>2020-07-29T08:35:47Z</time>
      </trkpt>
      <trkpt lat="44.04427" lon="1.93333">
        <ele>210.60000610352</ele>
        <time>2020-07-29T08:35:55Z</time>
      </trkpt>
      <trkpt lat="44.04426" lon="1.93337">
        <ele>210.39999389648</ele>
        <time>2020-07-29T08:35:56Z</time>
      </trkpt>
      <trkpt lat="44.04414" lon="1.93351">
        <ele>209.60000610352</ele>
        <time>2020-07-29T08:36:00Z</time>
      </trkpt>
      <trkpt lat="44.04411" lon="1.93354">
        <ele>209.39999389648</ele>
        <time>2020-07-29T08:36:01Z</time>
      </trkpt>
      <trkpt lat="44.04396" lon="1.93364">
        <ele>208.39999389648</ele>
        <time>2020-07-29T08:36:06Z</time>
      </trkpt>
      <trkpt lat="44.04395" lon="1.93366">
        <ele>208.19999694824</ele>
        <time>2020-07-29T08:36:07Z</time>
      </trkpt>
      <trkpt lat="44.04392" lon="1.93376">
        <ele>207.39999389648</ele>
        <time>2020-07-29T08:36:11Z</time>
      </trkpt>
      <trkpt lat="44.04394" lon="1.93378">
        <ele>207.19999694824</ele>
        <time>2020-07-29T08:36:13Z</time>
      </trkpt>
      <trkpt lat="44.04396" lon="1.93378">
        <ele>207.19999694824</ele>
        <time>2020-07-29T08:36:14Z</time>
      </trkpt>
      <trkpt lat="44.04399" lon="1.93378">
        <ele>206.80000305176</ele>
        <time>2020-07-29T08:36:15Z</time>
      </trkpt>
      <trkpt lat="44.04406" lon="1.93378">
        <ele>205.39999389648</ele>
        <time>2020-07-29T08:36:17Z</time>
      </trkpt>
      <trkpt lat="44.04419" lon="1.93383">
        <ele>204</ele>
        <time>2020-07-29T08:36:19Z</time>
      </trkpt>
      <trkpt lat="44.04432" lon="1.93391">
        <ele>202.60000610352</ele>
        <time>2020-07-29T08:36:21Z</time>
      </trkpt>
      <trkpt lat="44.04445" lon="1.93403">
        <ele>201</ele>
        <time>2020-07-29T08:36:23Z</time>
      </trkpt>
      <trkpt lat="44.04452" lon="1.93409">
        <ele>200</ele>
        <time>2020-07-29T08:36:24Z</time>
      </trkpt>
      <trkpt lat="44.0446" lon="1.93416">
        <ele>198.80000305176</ele>
        <time>2020-07-29T08:36:25Z</time>
      </trkpt>
      <trkpt lat="44.04468" lon="1.93422">
        <ele>197.80000305176</ele>
        <time>2020-07-29T08:36:26Z</time>
      </trkpt>
      <trkpt lat="44.04477" lon="1.93427">
        <ele>196.60000610352</ele>
        <time>2020-07-29T08:36:27Z</time>
      </trkpt>
      <trkpt lat="44.04486" lon="1.93433">
        <ele>195.39999389648</ele>
        <time>2020-07-29T08:36:28Z</time>
      </trkpt>
      <trkpt lat="44.04495" lon="1.93437">
        <ele>194.19999694824</ele>
        <time>2020-07-29T08:36:29Z</time>
      </trkpt>
      <trkpt lat="44.04504" lon="1.93442">
        <ele>193</ele>
        <time>2020-07-29T08:36:30Z</time>
      </trkpt>
      <trkpt lat="44.04513" lon="1.93446">
        <ele>191.80000305176</ele>
        <time>2020-07-29T08:36:31Z</time>
      </trkpt>
      <trkpt lat="44.0453" lon="1.93455">
        <ele>189.39999389648</ele>
        <time>2020-07-29T08:36:33Z</time>
      </trkpt>
      <trkpt lat="44.04537" lon="1.93459">
        <ele>189.19999694824</ele>
        <time>2020-07-29T08:36:34Z</time>
      </trkpt>
      <trkpt lat="44.0457" lon="1.93473">
        <ele>189.60000610352</ele>
        <time>2020-07-29T08:36:39Z</time>
      </trkpt>
      <trkpt lat="44.04579" lon="1.93478">
        <ele>190.80000305176</ele>
        <time>2020-07-29T08:36:41Z</time>
      </trkpt>
      <trkpt lat="44.04584" lon="1.93486">
        <ele>192.39999389648</ele>
        <time>2020-07-29T08:36:43Z</time>
      </trkpt>
      <trkpt lat="44.04585" lon="1.93495">
        <ele>194</ele>
        <time>2020-07-29T08:36:45Z</time>
      </trkpt>
      <trkpt lat="44.04585" lon="1.935">
        <ele>194.60000610352</ele>
        <time>2020-07-29T08:36:46Z</time>
      </trkpt>
      <trkpt lat="44.04586" lon="1.93504">
        <ele>195.19999694824</ele>
        <time>2020-07-29T08:36:47Z</time>
      </trkpt>
      <trkpt lat="44.04586" lon="1.93515">
        <ele>196.19999694824</ele>
        <time>2020-07-29T08:36:50Z</time>
      </trkpt>
      <trkpt lat="44.04586" lon="1.93534">
        <ele>197.19999694824</ele>
        <time>2020-07-29T08:36:55Z</time>
      </trkpt>
      <trkpt lat="44.04586" lon="1.93537">
        <ele>197.39999389648</ele>
        <time>2020-07-29T08:36:56Z</time>
      </trkpt>
      <trkpt lat="44.04585" lon="1.93555">
        <ele>198.39999389648</ele>
        <time>2020-07-29T08:37:02Z</time>
      </trkpt>
      <trkpt lat="44.04583" lon="1.93574">
        <ele>199.39999389648</ele>
        <time>2020-07-29T08:37:09Z</time>
      </trkpt>
      <trkpt lat="44.04584" lon="1.93582">
        <ele>199.80000305176</ele>
        <time>2020-07-29T08:37:12Z</time>
      </trkpt>
      <trkpt lat="44.04584" lon="1.936">
        <ele>200.39999389648</ele>
        <time>2020-07-29T08:37:18Z</time>
      </trkpt>
      <trkpt lat="44.04584" lon="1.93609">
        <ele>201</ele>
        <time>2020-07-29T08:37:21Z</time>
      </trkpt>
      <trkpt lat="44.04584" lon="1.93625">
        <ele>201.60000610352</ele>
        <time>2020-07-29T08:37:26Z</time>
      </trkpt>
      <trkpt lat="44.04584" lon="1.93634">
        <ele>202</ele>
        <time>2020-07-29T08:37:29Z</time>
      </trkpt>
      <trkpt lat="44.04584" lon="1.93645">
        <ele>202.80000305176</ele>
        <time>2020-07-29T08:37:33Z</time>
      </trkpt>
      <trkpt lat="44.04584" lon="1.9365">
        <ele>203</ele>
        <time>2020-07-29T08:37:35Z</time>
      </trkpt>
      <trkpt lat="44.04584" lon="1.9366">
        <ele>203.80000305176</ele>
        <time>2020-07-29T08:37:39Z</time>
      </trkpt>
      <trkpt lat="44.04583" lon="1.93672">
        <ele>204.80000305176</ele>
        <time>2020-07-29T08:37:44Z</time>
      </trkpt>
      <trkpt lat="44.04584" lon="1.93685">
        <ele>205.80000305176</ele>
        <time>2020-07-29T08:37:49Z</time>
      </trkpt>
      <trkpt lat="44.04584" lon="1.93693">
        <ele>206</ele>
        <time>2020-07-29T08:37:52Z</time>
      </trkpt>
      <trkpt lat="44.04583" lon="1.93719">
        <ele>205.80000305176</ele>
        <time>2020-07-29T08:38:01Z</time>
      </trkpt>
      <trkpt lat="44.04587" lon="1.93731">
        <ele>205.60000610352</ele>
        <time>2020-07-29T08:38:06Z</time>
      </trkpt>
      <trkpt lat="44.04593" lon="1.93745">
        <ele>206.60000610352</ele>
        <time>2020-07-29T08:38:13Z</time>
      </trkpt>
      <trkpt lat="44.04594" lon="1.93749">
        <ele>207</ele>
        <time>2020-07-29T08:38:15Z</time>
      </trkpt>
      <trkpt lat="44.04594" lon="1.93761">
        <ele>207.80000305176</ele>
        <time>2020-07-29T08:38:20Z</time>
      </trkpt>
      <trkpt lat="44.04594" lon="1.93763">
        <ele>208</ele>
        <time>2020-07-29T08:38:21Z</time>
      </trkpt>
      <trkpt lat="44.04594" lon="1.93779">
        <ele>209</ele>
        <time>2020-07-29T08:38:28Z</time>
      </trkpt>
      <trkpt lat="44.04593" lon="1.93791">
        <ele>210</ele>
        <time>2020-07-29T08:38:33Z</time>
      </trkpt>
      <trkpt lat="44.04594" lon="1.93796">
        <ele>210.19999694824</ele>
        <time>2020-07-29T08:38:35Z</time>
      </trkpt>
      <trkpt lat="44.04595" lon="1.938">
        <ele>210.60000610352</ele>
        <time>2020-07-29T08:38:37Z</time>
      </trkpt>
      <trkpt lat="44.046" lon="1.938">
        <ele>211.19999694824</ele>
        <time>2020-07-29T08:38:40Z</time>
      </trkpt>
      <trkpt lat="44.0461" lon="1.93811">
        <ele>214.19999694824</ele>
        <time>2020-07-29T08:49:03Z</time>
      </trkpt>
      <trkpt lat="44.04613" lon="1.93824">
        <ele>214.80000305176</ele>
        <time>2020-07-29T08:49:09Z</time>
      </trkpt>
      <trkpt lat="44.04613" lon="1.93829">
        <ele>215.19999694824</ele>
        <time>2020-07-29T08:49:11Z</time>
      </trkpt>
      <trkpt lat="44.04612" lon="1.9383">
        <ele>215.60000610352</ele>
        <time>2020-07-29T08:49:12Z</time>
      </trkpt>
      <trkpt lat="44.04612" lon="1.93836">
        <ele>216.39999389648</ele>
        <time>2020-07-29T08:49:15Z</time>
      </trkpt>
      <trkpt lat="44.04612" lon="1.93838">
        <ele>216.60000610352</ele>
        <time>2020-07-29T08:49:16Z</time>
      </trkpt>
      <trkpt lat="44.04611" lon="1.93843">
        <ele>217.39999389648</ele>
        <time>2020-07-29T08:49:19Z</time>
      </trkpt>
      <trkpt lat="44.04611" lon="1.93851">
        <ele>218.60000610352</ele>
        <time>2020-07-29T08:49:23Z</time>
      </trkpt>
      <trkpt lat="44.0461" lon="1.93858">
        <ele>219.60000610352</ele>
        <time>2020-07-29T08:49:27Z</time>
      </trkpt>
      <trkpt lat="44.0461" lon="1.93865">
        <ele>220.60000610352</ele>
        <time>2020-07-29T08:49:31Z</time>
      </trkpt>
      <trkpt lat="44.0461" lon="1.93866">
        <ele>220.80000305176</ele>
        <time>2020-07-29T08:49:32Z</time>
      </trkpt>
      <trkpt lat="44.04611" lon="1.93924">
        <ele>229.60000610352</ele>
        <time>2020-07-29T08:50:57Z</time>
      </trkpt>
      <trkpt lat="44.0461" lon="1.93933">
        <ele>230.19999694824</ele>
        <time>2020-07-29T08:51:01Z</time>
      </trkpt>
      <trkpt lat="44.0461" lon="1.93937">
        <ele>230.60000610352</ele>
        <time>2020-07-29T08:51:03Z</time>
      </trkpt>
      <trkpt lat="44.0461" lon="1.93939">
        <ele>230.80000305176</ele>
        <time>2020-07-29T08:51:04Z</time>
      </trkpt>
      <trkpt lat="44.04608" lon="1.9395">
        <ele>231.80000305176</ele>
        <time>2020-07-29T08:51:09Z</time>
      </trkpt>
      <trkpt lat="44.04607" lon="1.93952">
        <ele>232</ele>
        <time>2020-07-29T08:51:10Z</time>
      </trkpt>
      <trkpt lat="44.04606" lon="1.93961">
        <ele>232.80000305176</ele>
        <time>2020-07-29T08:51:15Z</time>
      </trkpt>
      <trkpt lat="44.04605" lon="1.93963">
        <ele>233.19999694824</ele>
        <time>2020-07-29T08:51:16Z</time>
      </trkpt>
      <trkpt lat="44.04605" lon="1.93972">
        <ele>234</ele>
        <time>2020-07-29T08:51:21Z</time>
      </trkpt>
      <trkpt lat="44.04604" lon="1.93978">
        <ele>234.80000305176</ele>
        <time>2020-07-29T08:51:24Z</time>
      </trkpt>
      <trkpt lat="44.04604" lon="1.9398">
        <ele>234.80000305176</ele>
        <time>2020-07-29T08:51:25Z</time>
      </trkpt>
      <trkpt lat="44.04604" lon="1.93982">
        <ele>235</ele>
        <time>2020-07-29T08:51:26Z</time>
      </trkpt>
      <trkpt lat="44.04603" lon="1.93994">
        <ele>236</ele>
        <time>2020-07-29T08:51:32Z</time>
      </trkpt>
      <trkpt lat="44.04603" lon="1.93996">
        <ele>236</ele>
        <time>2020-07-29T08:51:33Z</time>
      </trkpt>
      <trkpt lat="44.04601" lon="1.94007">
        <ele>237</ele>
        <time>2020-07-29T08:51:39Z</time>
      </trkpt>
      <trkpt lat="44.04601" lon="1.94009">
        <ele>237.19999694824</ele>
        <time>2020-07-29T08:51:40Z</time>
      </trkpt>
      <trkpt lat="44.04601" lon="1.94021">
        <ele>238</ele>
        <time>2020-07-29T08:51:46Z</time>
      </trkpt>
      <trkpt lat="44.04601" lon="1.94027">
        <ele>238.39999389648</ele>
        <time>2020-07-29T08:51:49Z</time>
      </trkpt>
      <trkpt lat="44.04602" lon="1.94039">
        <ele>238.80000305176</ele>
        <time>2020-07-29T08:51:55Z</time>
      </trkpt>
      <trkpt lat="44.04602" lon="1.94044">
        <ele>239</ele>
        <time>2020-07-29T08:52:07Z</time>
      </trkpt>
      <trkpt lat="44.04603" lon="1.94046">
        <ele>239</ele>
        <time>2020-07-29T08:52:08Z</time>
      </trkpt>
      <trkpt lat="44.04603" lon="1.94054">
        <ele>239</ele>
        <time>2020-07-29T08:52:11Z</time>
      </trkpt>
      <trkpt lat="44.04606" lon="1.94069">
        <ele>239</ele>
        <time>2020-07-29T08:52:17Z</time>
      </trkpt>
      <trkpt lat="44.04608" lon="1.94085">
        <ele>239.39999389648</ele>
        <time>2020-07-29T08:52:23Z</time>
      </trkpt>
      <trkpt lat="44.0461" lon="1.94102">
        <ele>240</ele>
        <time>2020-07-29T08:52:30Z</time>
      </trkpt>
      <trkpt lat="44.0461" lon="1.94109">
        <ele>240.39999389648</ele>
        <time>2020-07-29T08:52:33Z</time>
      </trkpt>
      <trkpt lat="44.04611" lon="1.94119">
        <ele>241</ele>
        <time>2020-07-29T08:52:37Z</time>
      </trkpt>
      <trkpt lat="44.04612" lon="1.94122">
        <ele>241.60000610352</ele>
        <time>2020-07-29T08:52:39Z</time>
      </trkpt>
      <trkpt lat="44.04611" lon="1.94131">
        <ele>242</ele>
        <time>2020-07-29T08:52:43Z</time>
      </trkpt>
      <trkpt lat="44.04612" lon="1.9414">
        <ele>242.80000305176</ele>
        <time>2020-07-29T08:52:47Z</time>
      </trkpt>
      <trkpt lat="44.04613" lon="1.94149">
        <ele>243.39999389648</ele>
        <time>2020-07-29T08:52:51Z</time>
      </trkpt>
      <trkpt lat="44.04613" lon="1.94157">
        <ele>243.80000305176</ele>
        <time>2020-07-29T08:52:55Z</time>
      </trkpt>
      <trkpt lat="44.04614" lon="1.94167">
        <ele>245</ele>
        <time>2020-07-29T08:53:00Z</time>
      </trkpt>
      <trkpt lat="44.04614" lon="1.94179">
        <ele>246</ele>
        <time>2020-07-29T08:53:06Z</time>
      </trkpt>
      <trkpt lat="44.04615" lon="1.94181">
        <ele>246</ele>
        <time>2020-07-29T08:53:07Z</time>
      </trkpt>
      <trkpt lat="44.04618" lon="1.94193">
        <ele>247</ele>
        <time>2020-07-29T08:53:13Z</time>
      </trkpt>
      <trkpt lat="44.04618" lon="1.94194">
        <ele>247.19999694824</ele>
        <time>2020-07-29T08:53:14Z</time>
      </trkpt>
      <trkpt lat="44.0462" lon="1.94206">
        <ele>248.19999694824</ele>
        <time>2020-07-29T08:53:20Z</time>
      </trkpt>
      <trkpt lat="44.04621" lon="1.9421">
        <ele>248.60000610352</ele>
        <time>2020-07-29T08:53:22Z</time>
      </trkpt>
      <trkpt lat="44.04619" lon="1.94218">
        <ele>249.39999389648</ele>
        <time>2020-07-29T08:53:26Z</time>
      </trkpt>
      <trkpt lat="44.04618" lon="1.94224">
        <ele>249.80000305176</ele>
        <time>2020-07-29T08:53:29Z</time>
      </trkpt>
      <trkpt lat="44.04617" lon="1.94225">
        <ele>249.80000305176</ele>
        <time>2020-07-29T08:53:30Z</time>
      </trkpt>
      <trkpt lat="44.04616" lon="1.94233">
        <ele>250.39999389648</ele>
        <time>2020-07-29T08:53:34Z</time>
      </trkpt>
      <trkpt lat="44.04615" lon="1.94237">
        <ele>250.60000610352</ele>
        <time>2020-07-29T08:53:36Z</time>
      </trkpt>
      <trkpt lat="44.04609" lon="1.94248">
        <ele>251.39999389648</ele>
        <time>2020-07-29T08:53:44Z</time>
      </trkpt>
      <trkpt lat="44.04607" lon="1.9425">
        <ele>251.39999389648</ele>
        <time>2020-07-29T08:53:45Z</time>
      </trkpt>
      <trkpt lat="44.04601" lon="1.94258">
        <ele>252</ele>
        <time>2020-07-29T08:53:51Z</time>
      </trkpt>
      <trkpt lat="44.04593" lon="1.94264">
        <ele>252.39999389648</ele>
        <time>2020-07-29T08:53:57Z</time>
      </trkpt>
      <trkpt lat="44.04592" lon="1.94265">
        <ele>252.60000610352</ele>
        <time>2020-07-29T08:53:58Z</time>
      </trkpt>
      <trkpt lat="44.04582" lon="1.9427">
        <ele>253.60000610352</ele>
        <time>2020-07-29T08:54:05Z</time>
      </trkpt>
      <trkpt lat="44.0458" lon="1.94272">
        <ele>254</ele>
        <time>2020-07-29T08:54:07Z</time>
      </trkpt>
      <trkpt lat="44.04575" lon="1.94274">
        <ele>254.80000305176</ele>
        <time>2020-07-29T08:54:11Z</time>
      </trkpt>
      <trkpt lat="44.0457" lon="1.94275">
        <ele>255.19999694824</ele>
        <time>2020-07-29T08:54:14Z</time>
      </trkpt>
      <trkpt lat="44.04567" lon="1.94275">
        <ele>255.80000305176</ele>
        <time>2020-07-29T08:54:17Z</time>
      </trkpt>
      <trkpt lat="44.04561" lon="1.94275">
        <ele>256.20001220703</ele>
        <time>2020-07-29T08:54:21Z</time>
      </trkpt>
      <trkpt lat="44.04554" lon="1.94275">
        <ele>257</ele>
        <time>2020-07-29T08:54:26Z</time>
      </trkpt>
      <trkpt lat="44.04548" lon="1.94275">
        <ele>257.39999389648</ele>
        <time>2020-07-29T08:54:30Z</time>
      </trkpt>
      <trkpt lat="44.04544" lon="1.94276">
        <ele>258</ele>
        <time>2020-07-29T08:54:33Z</time>
      </trkpt>
      <trkpt lat="44.04537" lon="1.94278">
        <ele>259</ele>
        <time>2020-07-29T08:54:39Z</time>
      </trkpt>
      <trkpt lat="44.04529" lon="1.94278">
        <ele>260</ele>
        <time>2020-07-29T08:54:45Z</time>
      </trkpt>
      <trkpt lat="44.04526" lon="1.9428">
        <ele>260.60000610352</ele>
        <time>2020-07-29T08:54:48Z</time>
      </trkpt>
      <trkpt lat="44.04523" lon="1.94281">
        <ele>261.20001220703</ele>
        <time>2020-07-29T08:54:50Z</time>
      </trkpt>
      <trkpt lat="44.04515" lon="1.94283">
        <ele>262.20001220703</ele>
        <time>2020-07-29T08:54:56Z</time>
      </trkpt>
      <trkpt lat="44.04514" lon="1.94283">
        <ele>262.20001220703</ele>
        <time>2020-07-29T08:54:57Z</time>
      </trkpt>
      <trkpt lat="44.04506" lon="1.94288">
        <ele>263.20001220703</ele>
        <time>2020-07-29T08:55:03Z</time>
      </trkpt>
      <trkpt lat="44.04504" lon="1.94291">
        <ele>263.39999389648</ele>
        <time>2020-07-29T08:55:05Z</time>
      </trkpt>
      <trkpt lat="44.045" lon="1.94299">
        <ele>264.39999389648</ele>
        <time>2020-07-29T08:55:11Z</time>
      </trkpt>
      <trkpt lat="44.04499" lon="1.94302">
        <ele>264.60000610352</ele>
        <time>2020-07-29T08:55:13Z</time>
      </trkpt>
      <trkpt lat="44.04495" lon="1.94313">
        <ele>265.39999389648</ele>
        <time>2020-07-29T08:55:20Z</time>
      </trkpt>
      <trkpt lat="44.04493" lon="1.94322">
        <ele>266.39999389648</ele>
        <time>2020-07-29T08:55:25Z</time>
      </trkpt>
      <trkpt lat="44.04492" lon="1.94329">
        <ele>267.20001220703</ele>
        <time>2020-07-29T08:55:29Z</time>
      </trkpt>
      <trkpt lat="44.04492" lon="1.94332">
        <ele>267.60000610352</ele>
        <time>2020-07-29T08:55:31Z</time>
      </trkpt>
      <trkpt lat="44.04492" lon="1.94339">
        <ele>268.60000610352</ele>
        <time>2020-07-29T08:55:36Z</time>
      </trkpt>
      <trkpt lat="44.04491" lon="1.94342">
        <ele>269</ele>
        <time>2020-07-29T08:55:38Z</time>
      </trkpt>
      <trkpt lat="44.0449" lon="1.94351">
        <ele>269.79998779297</ele>
        <time>2020-07-29T08:55:43Z</time>
      </trkpt>
      <trkpt lat="44.04489" lon="1.94355">
        <ele>270</ele>
        <time>2020-07-29T08:55:45Z</time>
      </trkpt>
      <trkpt lat="44.04488" lon="1.94363">
        <ele>270.79998779297</ele>
        <time>2020-07-29T08:55:49Z</time>
      </trkpt>
      <trkpt lat="44.04488" lon="1.94369">
        <ele>271.20001220703</ele>
        <time>2020-07-29T08:55:52Z</time>
      </trkpt>
      <trkpt lat="44.04487" lon="1.94374">
        <ele>271.60000610352</ele>
        <time>2020-07-29T08:55:55Z</time>
      </trkpt>
      <trkpt lat="44.04487" lon="1.9438">
        <ele>272</ele>
        <time>2020-07-29T08:55:58Z</time>
      </trkpt>
      <trkpt lat="44.04487" lon="1.94382">
        <ele>272</ele>
        <time>2020-07-29T08:55:59Z</time>
      </trkpt>
      <trkpt lat="44.04487" lon="1.94389">
        <ele>272.20001220703</ele>
        <time>2020-07-29T08:56:03Z</time>
      </trkpt>
      <trkpt lat="44.04488" lon="1.94398">
        <ele>273</ele>
        <time>2020-07-29T08:56:08Z</time>
      </trkpt>
      <trkpt lat="44.04488" lon="1.94407">
        <ele>274</ele>
        <time>2020-07-29T08:56:13Z</time>
      </trkpt>
      <trkpt lat="44.04487" lon="1.94412">
        <ele>274.39999389648</ele>
        <time>2020-07-29T08:56:15Z</time>
      </trkpt>
      <trkpt lat="44.04486" lon="1.94423">
        <ele>275.20001220703</ele>
        <time>2020-07-29T08:56:21Z</time>
      </trkpt>
      <trkpt lat="44.04485" lon="1.94424">
        <ele>275.20001220703</ele>
        <time>2020-07-29T08:56:22Z</time>
      </trkpt>
      <trkpt lat="44.04482" lon="1.94436">
        <ele>276.20001220703</ele>
        <time>2020-07-29T08:56:28Z</time>
      </trkpt>
      <trkpt lat="44.04483" lon="1.94438">
        <ele>276.39999389648</ele>
        <time>2020-07-29T08:56:29Z</time>
      </trkpt>
      <trkpt lat="44.04482" lon="1.94445">
        <ele>276.79998779297</ele>
        <time>2020-07-29T08:56:33Z</time>
      </trkpt>
      <trkpt lat="44.04483" lon="1.94451">
        <ele>277.39999389648</ele>
        <time>2020-07-29T08:56:36Z</time>
      </trkpt>
      <trkpt lat="44.04484" lon="1.94456">
        <ele>277.60000610352</ele>
        <time>2020-07-29T08:56:39Z</time>
      </trkpt>
      <trkpt lat="44.04484" lon="1.94465">
        <ele>278.20001220703</ele>
        <time>2020-07-29T08:56:44Z</time>
      </trkpt>
      <trkpt lat="44.04486" lon="1.94468">
        <ele>278.39999389648</ele>
        <time>2020-07-29T08:56:46Z</time>
      </trkpt>
      <trkpt lat="44.04485" lon="1.94475">
        <ele>280.60000610352</ele>
        <time>2020-07-29T09:03:49Z</time>
      </trkpt>
      <trkpt lat="44.04483" lon="1.94479">
        <ele>280.60000610352</ele>
        <time>2020-07-29T09:03:51Z</time>
      </trkpt>
      <trkpt lat="44.04483" lon="1.94485">
        <ele>280.60000610352</ele>
        <time>2020-07-29T09:03:55Z</time>
      </trkpt>
      <trkpt lat="44.04483" lon="1.94487">
        <ele>280.60000610352</ele>
        <time>2020-07-29T09:03:56Z</time>
      </trkpt>
      <trkpt lat="44.04484" lon="1.94499">
        <ele>281.20001220703</ele>
        <time>2020-07-29T09:04:02Z</time>
      </trkpt>
      <trkpt lat="44.04489" lon="1.94513">
        <ele>281.60000610352</ele>
        <time>2020-07-29T09:04:07Z</time>
      </trkpt>
      <trkpt lat="44.04489" lon="1.94519">
        <ele>281.79998779297</ele>
        <time>2020-07-29T09:04:09Z</time>
      </trkpt>
      <trkpt lat="44.04489" lon="1.94534">
        <ele>282.60000610352</ele>
        <time>2020-07-29T09:04:14Z</time>
      </trkpt>
      <trkpt lat="44.04489" lon="1.94537">
        <ele>282.79998779297</ele>
        <time>2020-07-29T09:04:15Z</time>
      </trkpt>
      <trkpt lat="44.04486" lon="1.94551">
        <ele>283.20001220703</ele>
        <time>2020-07-29T09:04:20Z</time>
      </trkpt>
      <trkpt lat="44.04475" lon="1.94558">
        <ele>283.20001220703</ele>
        <time>2020-07-29T09:04:25Z</time>
      </trkpt>
      <trkpt lat="44.04466" lon="1.94568">
        <ele>282.79998779297</ele>
        <time>2020-07-29T09:04:29Z</time>
      </trkpt>
      <trkpt lat="44.04462" lon="1.94576">
        <ele>282.79998779297</ele>
        <time>2020-07-29T09:04:31Z</time>
      </trkpt>
      <trkpt lat="44.04458" lon="1.94599">
        <ele>281.79998779297</ele>
        <time>2020-07-29T09:04:36Z</time>
      </trkpt>
      <trkpt lat="44.04458" lon="1.94604">
        <ele>281.79998779297</ele>
        <time>2020-07-29T09:04:37Z</time>
      </trkpt>
      <trkpt lat="44.04458" lon="1.94616">
        <ele>281.79998779297</ele>
        <time>2020-07-29T09:04:40Z</time>
      </trkpt>
      <trkpt lat="44.04456" lon="1.94617">
        <ele>282</ele>
        <time>2020-07-29T09:04:41Z</time>
      </trkpt>
      <trkpt lat="44.04448" lon="1.9462">
        <ele>282.20001220703</ele>
        <time>2020-07-29T09:04:43Z</time>
      </trkpt>
      <trkpt lat="44.04442" lon="1.94633">
        <ele>282</ele>
        <time>2020-07-29T09:04:46Z</time>
      </trkpt>
      <trkpt lat="44.04432" lon="1.94648">
        <ele>281</ele>
        <time>2020-07-29T09:04:50Z</time>
      </trkpt>
      <trkpt lat="44.04429" lon="1.94658">
        <ele>280.60000610352</ele>
        <time>2020-07-29T09:04:52Z</time>
      </trkpt>
      <trkpt lat="44.04428" lon="1.94667">
        <ele>280.20001220703</ele>
        <time>2020-07-29T09:04:54Z</time>
      </trkpt>
      <trkpt lat="44.04423" lon="1.94669">
        <ele>279.60000610352</ele>
        <time>2020-07-29T09:04:56Z</time>
      </trkpt>
      <trkpt lat="44.04419" lon="1.94671">
        <ele>279.39999389648</ele>
        <time>2020-07-29T09:04:57Z</time>
      </trkpt>
      <trkpt lat="44.04412" lon="1.94685">
        <ele>278.79998779297</ele>
        <time>2020-07-29T09:05:00Z</time>
      </trkpt>
      <trkpt lat="44.04408" lon="1.9469">
        <ele>277.79998779297</ele>
        <time>2020-07-29T09:05:01Z</time>
      </trkpt>
      <trkpt lat="44.04402" lon="1.94701">
        <ele>276.79998779297</ele>
        <time>2020-07-29T09:05:03Z</time>
      </trkpt>
      <trkpt lat="44.044" lon="1.94708">
        <ele>276.39999389648</ele>
        <time>2020-07-29T09:05:04Z</time>
      </trkpt>
      <trkpt lat="44.04397" lon="1.9472">
        <ele>275.20001220703</ele>
        <time>2020-07-29T09:05:06Z</time>
      </trkpt>
      <trkpt lat="44.04392" lon="1.94742">
        <ele>274.20001220703</ele>
        <time>2020-07-29T09:05:10Z</time>
      </trkpt>
      <trkpt lat="44.0439" lon="1.94746">
        <ele>274.20001220703</ele>
        <time>2020-07-29T09:05:11Z</time>
      </trkpt>
      <trkpt lat="44.04386" lon="1.94756">
        <ele>274.20001220703</ele>
        <time>2020-07-29T09:05:14Z</time>
      </trkpt>
      <trkpt lat="44.04381" lon="1.94779">
        <ele>274.20001220703</ele>
        <time>2020-07-29T09:05:19Z</time>
      </trkpt>
      <trkpt lat="44.04383" lon="1.94788">
        <ele>274</ele>
        <time>2020-07-29T09:05:21Z</time>
      </trkpt>
      <trkpt lat="44.04384" lon="1.94791">
        <ele>273.79998779297</ele>
        <time>2020-07-29T09:05:22Z</time>
      </trkpt>
      <trkpt lat="44.04386" lon="1.94806">
        <ele>274.60000610352</ele>
        <time>2020-07-29T09:05:26Z</time>
      </trkpt>
      <trkpt lat="44.04386" lon="1.9481">
        <ele>275</ele>
        <time>2020-07-29T09:05:27Z</time>
      </trkpt>
      <trkpt lat="44.04386" lon="1.94814">
        <ele>275.20001220703</ele>
        <time>2020-07-29T09:05:28Z</time>
      </trkpt>
      <trkpt lat="44.04383" lon="1.9482">
        <ele>275.39999389648</ele>
        <time>2020-07-29T09:05:30Z</time>
      </trkpt>
      <trkpt lat="44.0438" lon="1.94828">
        <ele>275.39999389648</ele>
        <time>2020-07-29T09:05:32Z</time>
      </trkpt>
      <trkpt lat="44.04381" lon="1.9484">
        <ele>274.20001220703</ele>
        <time>2020-07-29T09:05:36Z</time>
      </trkpt>
      <trkpt lat="44.04384" lon="1.94841">
        <ele>273.79998779297</ele>
        <time>2020-07-29T09:05:38Z</time>
      </trkpt>
      <trkpt lat="44.0439" lon="1.94846">
        <ele>275.20001220703</ele>
        <time>2020-07-29T09:05:43Z</time>
      </trkpt>
      <trkpt lat="44.0439" lon="1.94849">
        <ele>275.60000610352</ele>
        <time>2020-07-29T09:05:44Z</time>
      </trkpt>
      <trkpt lat="44.04389" lon="1.94855">
        <ele>276.39999389648</ele>
        <time>2020-07-29T09:05:46Z</time>
      </trkpt>
      <trkpt lat="44.04387" lon="1.94864">
        <ele>277</ele>
        <time>2020-07-29T09:05:49Z</time>
      </trkpt>
      <trkpt lat="44.04384" lon="1.94874">
        <ele>276.79998779297</ele>
        <time>2020-07-29T09:05:52Z</time>
      </trkpt>
      <trkpt lat="44.04385" lon="1.94878">
        <ele>276.60000610352</ele>
        <time>2020-07-29T09:05:53Z</time>
      </trkpt>
      <trkpt lat="44.04385" lon="1.94881">
        <ele>276.20001220703</ele>
        <time>2020-07-29T09:05:54Z</time>
      </trkpt>
      <trkpt lat="44.04389" lon="1.94884">
        <ele>276</ele>
        <time>2020-07-29T09:05:56Z</time>
      </trkpt>
      <trkpt lat="44.04391" lon="1.94885">
        <ele>275.79998779297</ele>
        <time>2020-07-29T09:05:57Z</time>
      </trkpt>
      <trkpt lat="44.04392" lon="1.94886">
        <ele>275.79998779297</ele>
        <time>2020-07-29T09:05:58Z</time>
      </trkpt>
      <trkpt lat="44.04394" lon="1.94897">
        <ele>277.79998779297</ele>
        <time>2020-07-29T09:06:03Z</time>
      </trkpt>
      <trkpt lat="44.04396" lon="1.94903">
        <ele>278.39999389648</ele>
        <time>2020-07-29T09:06:06Z</time>
      </trkpt>
      <trkpt lat="44.04397" lon="1.94907">
        <ele>278.79998779297</ele>
        <time>2020-07-29T09:06:08Z</time>
      </trkpt>
      <trkpt lat="44.04398" lon="1.94914">
        <ele>279.20001220703</ele>
        <time>2020-07-29T09:06:11Z</time>
      </trkpt>
      <trkpt lat="44.04405" lon="1.94925">
        <ele>279.79998779297</ele>
        <time>2020-07-29T09:06:18Z</time>
      </trkpt>
      <trkpt lat="44.04406" lon="1.94926">
        <ele>280</ele>
        <time>2020-07-29T09:06:19Z</time>
      </trkpt>
      <trkpt lat="44.04409" lon="1.94931">
        <ele>280.60000610352</ele>
        <time>2020-07-29T09:06:22Z</time>
      </trkpt>
      <trkpt lat="44.0441" lon="1.94935">
        <ele>281.20001220703</ele>
        <time>2020-07-29T09:06:24Z</time>
      </trkpt>
      <trkpt lat="44.04411" lon="1.94937">
        <ele>281.39999389648</ele>
        <time>2020-07-29T09:06:25Z</time>
      </trkpt>
      <trkpt lat="44.04414" lon="1.94943">
        <ele>282.20001220703</ele>
        <time>2020-07-29T09:06:29Z</time>
      </trkpt>
      <trkpt lat="44.04415" lon="1.94946">
        <ele>282.20001220703</ele>
        <time>2020-07-29T09:06:30Z</time>
      </trkpt>
      <trkpt lat="44.04416" lon="1.94951">
        <ele>282.39999389648</ele>
        <time>2020-07-29T09:06:32Z</time>
      </trkpt>
      <trkpt lat="44.04425" lon="1.94966">
        <ele>282.79998779297</ele>
        <time>2020-07-29T09:06:40Z</time>
      </trkpt>
      <trkpt lat="44.0443" lon="1.94971">
        <ele>283.20001220703</ele>
        <time>2020-07-29T09:06:43Z</time>
      </trkpt>
      <trkpt lat="44.04433" lon="1.94978">
        <ele>283.79998779297</ele>
        <time>2020-07-29T09:06:46Z</time>
      </trkpt>
      <trkpt lat="44.04436" lon="1.94989">
        <ele>284.20001220703</ele>
        <time>2020-07-29T09:06:50Z</time>
      </trkpt>
      <trkpt lat="44.04436" lon="1.94992">
        <ele>284.20001220703</ele>
        <time>2020-07-29T09:06:51Z</time>
      </trkpt>
      <trkpt lat="44.04435" lon="1.94998">
        <ele>284.39999389648</ele>
        <time>2020-07-29T09:06:53Z</time>
      </trkpt>
      <trkpt lat="44.04429" lon="1.95023">
        <ele>284.20001220703</ele>
        <time>2020-07-29T09:07:00Z</time>
      </trkpt>
      <trkpt lat="44.04427" lon="1.95042">
        <ele>284</ele>
        <time>2020-07-29T09:07:05Z</time>
      </trkpt>
      <trkpt lat="44.04417" lon="1.95054">
        <ele>284</ele>
        <time>2020-07-29T09:07:09Z</time>
      </trkpt>
      <trkpt lat="44.04411" lon="1.95062">
        <ele>283.79998779297</ele>
        <time>2020-07-29T09:07:11Z</time>
      </trkpt>
      <trkpt lat="44.04409" lon="1.95072">
        <ele>283.20001220703</ele>
        <time>2020-07-29T09:07:13Z</time>
      </trkpt>
      <trkpt lat="44.04404" lon="1.95083">
        <ele>282.20001220703</ele>
        <time>2020-07-29T09:07:15Z</time>
      </trkpt>
      <trkpt lat="44.04404" lon="1.95088">
        <ele>282</ele>
        <time>2020-07-29T09:07:16Z</time>
      </trkpt>
      <trkpt lat="44.04404" lon="1.95093">
        <ele>281.79998779297</ele>
        <time>2020-07-29T09:07:17Z</time>
      </trkpt>
      <trkpt lat="44.04405" lon="1.95102">
        <ele>281.39999389648</ele>
        <time>2020-07-29T09:07:19Z</time>
      </trkpt>
      <trkpt lat="44.04403" lon="1.95121">
        <ele>281</ele>
        <time>2020-07-29T09:07:23Z</time>
      </trkpt>
      <trkpt lat="44.04404" lon="1.9514">
        <ele>281</ele>
        <time>2020-07-29T09:07:27Z</time>
      </trkpt>
      <trkpt lat="44.04401" lon="1.95167">
        <ele>281.20001220703</ele>
        <time>2020-07-29T09:07:33Z</time>
      </trkpt>
      <trkpt lat="44.044" lon="1.95192">
        <ele>281</ele>
        <time>2020-07-29T09:07:38Z</time>
      </trkpt>
      <trkpt lat="44.044" lon="1.95217">
        <ele>280.39999389648</ele>
        <time>2020-07-29T09:07:43Z</time>
      </trkpt>
      <trkpt lat="44.04399" lon="1.95226">
        <ele>280.20001220703</ele>
        <time>2020-07-29T09:07:45Z</time>
      </trkpt>
      <trkpt lat="44.04399" lon="1.95241">
        <ele>280</ele>
        <time>2020-07-29T09:07:47Z</time>
      </trkpt>
      <trkpt lat="44.04399" lon="1.95249">
        <ele>279.60000610352</ele>
        <time>2020-07-29T09:07:48Z</time>
      </trkpt>
      <trkpt lat="44.044" lon="1.95257">
        <ele>278.39999389648</ele>
        <time>2020-07-29T09:07:49Z</time>
      </trkpt>
      <trkpt lat="44.04401" lon="1.95271">
        <ele>276.79998779297</ele>
        <time>2020-07-29T09:07:51Z</time>
      </trkpt>
      <trkpt lat="44.04401" lon="1.95276">
        <ele>276.39999389648</ele>
        <time>2020-07-29T09:07:52Z</time>
      </trkpt>
      <trkpt lat="44.044" lon="1.95305">
        <ele>276.79998779297</ele>
        <time>2020-07-29T09:07:58Z</time>
      </trkpt>
      <trkpt lat="44.04399" lon="1.95344">
        <ele>277.60000610352</ele>
        <time>2020-07-29T09:08:07Z</time>
      </trkpt>
      <trkpt lat="44.04398" lon="1.95352">
        <ele>278</ele>
        <time>2020-07-29T09:08:09Z</time>
      </trkpt>
      <trkpt lat="44.04396" lon="1.95374">
        <ele>278.39999389648</ele>
        <time>2020-07-29T09:08:14Z</time>
      </trkpt>
      <trkpt lat="44.04393" lon="1.95415">
        <ele>277.79998779297</ele>
        <time>2020-07-29T09:08:22Z</time>
      </trkpt>
      <trkpt lat="44.04391" lon="1.9543">
        <ele>277.79998779297</ele>
        <time>2020-07-29T09:08:27Z</time>
      </trkpt>
      <trkpt lat="44.04385" lon="1.9544">
        <ele>277.79998779297</ele>
        <time>2020-07-29T09:08:31Z</time>
      </trkpt>
      <trkpt lat="44.04383" lon="1.95448">
        <ele>277.79998779297</ele>
        <time>2020-07-29T09:08:33Z</time>
      </trkpt>
      <trkpt lat="44.0438" lon="1.95456">
        <ele>276.79998779297</ele>
        <time>2020-07-29T09:08:36Z</time>
      </trkpt>
      <trkpt lat="44.04379" lon="1.9546">
        <ele>276</ele>
        <time>2020-07-29T09:08:58Z</time>
      </trkpt>
      <trkpt lat="44.0438" lon="1.95457">
        <ele>276.20001220703</ele>
        <time>2020-07-29T09:09:00Z</time>
      </trkpt>
      <trkpt lat="44.04381" lon="1.95452">
        <ele>276.20001220703</ele>
        <time>2020-07-29T09:09:04Z</time>
      </trkpt>
      <trkpt lat="44.04382" lon="1.9545">
        <ele>276.20001220703</ele>
        <time>2020-07-29T09:09:05Z</time>
      </trkpt>
      <trkpt lat="44.04386" lon="1.95434">
        <ele>276.60000610352</ele>
        <time>2020-07-29T09:09:12Z</time>
      </trkpt>
      <trkpt lat="44.04388" lon="1.95432">
        <ele>276.79998779297</ele>
        <time>2020-07-29T09:09:13Z</time>
      </trkpt>
      <trkpt lat="44.04391" lon="1.95432">
        <ele>277</ele>
        <time>2020-07-29T09:09:16Z</time>
      </trkpt>
      <trkpt lat="44.04391" lon="1.95439">
        <ele>277.79998779297</ele>
        <time>2020-07-29T09:09:20Z</time>
      </trkpt>
      <trkpt lat="44.0439" lon="1.95441">
        <ele>278</ele>
        <time>2020-07-29T09:09:21Z</time>
      </trkpt>
      <trkpt lat="44.04389" lon="1.95448">
        <ele>278.39999389648</ele>
        <time>2020-07-29T09:09:24Z</time>
      </trkpt>
      <trkpt lat="44.04389" lon="1.95453">
        <ele>278.60000610352</ele>
        <time>2020-07-29T09:09:26Z</time>
      </trkpt>
      <trkpt lat="44.04387" lon="1.95465">
        <ele>279</ele>
        <time>2020-07-29T09:09:31Z</time>
      </trkpt>
      <trkpt lat="44.04387" lon="1.95473">
        <ele>279.20001220703</ele>
        <time>2020-07-29T09:09:34Z</time>
      </trkpt>
      <trkpt lat="44.04383" lon="1.95499">
        <ele>279.39999389648</ele>
        <time>2020-07-29T09:09:43Z</time>
      </trkpt>
      <trkpt lat="44.0438" lon="1.95521">
        <ele>279.60000610352</ele>
        <time>2020-07-29T09:09:51Z</time>
      </trkpt>
      <trkpt lat="44.04379" lon="1.95533">
        <ele>280</ele>
        <time>2020-07-29T09:09:56Z</time>
      </trkpt>
      <trkpt lat="44.0438" lon="1.95525">
        <ele>280</ele>
        <time>2020-07-29T09:10:30Z</time>
      </trkpt>
      <trkpt lat="44.0438" lon="1.95523">
        <ele>280</ele>
        <time>2020-07-29T09:10:31Z</time>
      </trkpt>
      <trkpt lat="44.04383" lon="1.95511">
        <ele>280</ele>
        <time>2020-07-29T09:10:35Z</time>
      </trkpt>
      <trkpt lat="44.04384" lon="1.95503">
        <ele>279.79998779297</ele>
        <time>2020-07-29T09:10:37Z</time>
      </trkpt>
      <trkpt lat="44.04388" lon="1.95474">
        <ele>279.20001220703</ele>
        <time>2020-07-29T09:10:45Z</time>
      </trkpt>
      <trkpt lat="44.0439" lon="1.95455">
        <ele>279.20001220703</ele>
        <time>2020-07-29T09:10:51Z</time>
      </trkpt>
      <trkpt lat="44.04388" lon="1.95454">
        <ele>279.20001220703</ele>
        <time>2020-07-29T09:13:50Z</time>
      </trkpt>
      <trkpt lat="44.04388" lon="1.95456">
        <ele>279.20001220703</ele>
        <time>2020-07-29T09:13:51Z</time>
      </trkpt>
      <trkpt lat="44.04386" lon="1.95476">
        <ele>279.20001220703</ele>
        <time>2020-07-29T09:13:58Z</time>
      </trkpt>
      <trkpt lat="44.04383" lon="1.95498">
        <ele>279.20001220703</ele>
        <time>2020-07-29T09:14:04Z</time>
      </trkpt>
      <trkpt lat="44.0438" lon="1.95522">
        <ele>279.60000610352</ele>
        <time>2020-07-29T09:14:11Z</time>
      </trkpt>
      <trkpt lat="44.0438" lon="1.95531">
        <ele>279.79998779297</ele>
        <time>2020-07-29T09:14:14Z</time>
      </trkpt>
      <trkpt lat="44.04382" lon="1.95535">
        <ele>279.79998779297</ele>
        <time>2020-07-29T09:14:16Z</time>
      </trkpt>
      <trkpt lat="44.04389" lon="1.95536">
        <ele>280.39999389648</ele>
        <time>2020-07-29T09:14:21Z</time>
      </trkpt>
      <trkpt lat="44.04391" lon="1.95537">
        <ele>280.60000610352</ele>
        <time>2020-07-29T09:14:22Z</time>
      </trkpt>
      <trkpt lat="44.04394" lon="1.95538">
        <ele>281</ele>
        <time>2020-07-29T09:14:24Z</time>
      </trkpt>
      <trkpt lat="44.04401" lon="1.95541">
        <ele>282</ele>
        <time>2020-07-29T09:14:28Z</time>
      </trkpt>
      <trkpt lat="44.04403" lon="1.95542">
        <ele>282.20001220703</ele>
        <time>2020-07-29T09:14:29Z</time>
      </trkpt>
      <trkpt lat="44.04404" lon="1.95542">
        <ele>282.39999389648</ele>
        <time>2020-07-29T09:14:30Z</time>
      </trkpt>
      <trkpt lat="44.04409" lon="1.95544">
        <ele>283</ele>
        <time>2020-07-29T09:14:33Z</time>
      </trkpt>
      <trkpt lat="44.04411" lon="1.95545">
        <ele>283.20001220703</ele>
        <time>2020-07-29T09:14:34Z</time>
      </trkpt>
      <trkpt lat="44.0442" lon="1.95549">
        <ele>284</ele>
        <time>2020-07-29T09:14:40Z</time>
      </trkpt>
      <trkpt lat="44.04425" lon="1.9555">
        <ele>284.39999389648</ele>
        <time>2020-07-29T09:14:43Z</time>
      </trkpt>
      <trkpt lat="44.04431" lon="1.95553">
        <ele>285</ele>
        <time>2020-07-29T09:14:47Z</time>
      </trkpt>
      <trkpt lat="44.04437" lon="1.95556">
        <ele>285.39999389648</ele>
        <time>2020-07-29T09:14:51Z</time>
      </trkpt>
      <trkpt lat="44.04442" lon="1.95557">
        <ele>285.79998779297</ele>
        <time>2020-07-29T09:14:54Z</time>
      </trkpt>
      <trkpt lat="44.04455" lon="1.95562">
        <ele>286.20001220703</ele>
        <time>2020-07-29T09:15:01Z</time>
      </trkpt>
      <trkpt lat="44.04456" lon="1.95563">
        <ele>286.39999389648</ele>
        <time>2020-07-29T09:15:02Z</time>
      </trkpt>
      <trkpt lat="44.04468" lon="1.95563">
        <ele>286.79998779297</ele>
        <time>2020-07-29T09:15:09Z</time>
      </trkpt>
      <trkpt lat="44.04475" lon="1.95564">
        <ele>287.20001220703</ele>
        <time>2020-07-29T09:16:25Z</time>
      </trkpt>
      <trkpt lat="44.04476" lon="1.95565">
        <ele>287.20001220703</ele>
        <time>2020-07-29T09:16:26Z</time>
      </trkpt>
      <trkpt lat="44.04493" lon="1.95579">
        <ele>287</ele>
        <time>2020-07-29T09:16:35Z</time>
      </trkpt>
      <trkpt lat="44.04507" lon="1.95591">
        <ele>287.39999389648</ele>
        <time>2020-07-29T09:16:42Z</time>
      </trkpt>
      <trkpt lat="44.04509" lon="1.95592">
        <ele>287.39999389648</ele>
        <time>2020-07-29T09:16:43Z</time>
      </trkpt>
      <trkpt lat="44.04525" lon="1.95606">
        <ele>287.60000610352</ele>
        <time>2020-07-29T09:16:50Z</time>
      </trkpt>
      <trkpt lat="44.0454" lon="1.95619">
        <ele>287.39999389648</ele>
        <time>2020-07-29T09:16:55Z</time>
      </trkpt>
      <trkpt lat="44.04543" lon="1.95622">
        <ele>287.39999389648</ele>
        <time>2020-07-29T09:16:56Z</time>
      </trkpt>
      <trkpt lat="44.04565" lon="1.95642">
        <ele>287.20001220703</ele>
        <time>2020-07-29T09:17:03Z</time>
      </trkpt>
      <trkpt lat="44.04586" lon="1.95662">
        <ele>286.39999389648</ele>
        <time>2020-07-29T09:17:09Z</time>
      </trkpt>
      <trkpt lat="44.04594" lon="1.9567">
        <ele>286</ele>
        <time>2020-07-29T09:17:11Z</time>
      </trkpt>
      <trkpt lat="44.04612" lon="1.95687">
        <ele>285.20001220703</ele>
        <time>2020-07-29T09:17:15Z</time>
      </trkpt>
      <trkpt lat="44.04624" lon="1.957">
        <ele>284.20001220703</ele>
        <time>2020-07-29T09:17:18Z</time>
      </trkpt>
      <trkpt lat="44.04654" lon="1.95731">
        <ele>283.79998779297</ele>
        <time>2020-07-29T09:17:26Z</time>
      </trkpt>
      <trkpt lat="44.04676" lon="1.95759">
        <ele>285</ele>
        <time>2020-07-29T09:17:34Z</time>
      </trkpt>
      <trkpt lat="44.04679" lon="1.95763">
        <ele>285.20001220703</ele>
        <time>2020-07-29T09:17:35Z</time>
      </trkpt>
      <trkpt lat="44.04697" lon="1.95782">
        <ele>285.60000610352</ele>
        <time>2020-07-29T09:17:40Z</time>
      </trkpt>
      <trkpt lat="44.047" lon="1.95788">
        <ele>285.39999389648</ele>
        <time>2020-07-29T09:17:41Z</time>
      </trkpt>
      <trkpt lat="44.04706" lon="1.95802">
        <ele>284.39999389648</ele>
        <time>2020-07-29T09:17:43Z</time>
      </trkpt>
      <trkpt lat="44.04708" lon="1.95811">
        <ele>283.79998779297</ele>
        <time>2020-07-29T09:17:44Z</time>
      </trkpt>
      <trkpt lat="44.04714" lon="1.95828">
        <ele>282.60000610352</ele>
        <time>2020-07-29T09:17:46Z</time>
      </trkpt>
      <trkpt lat="44.04721" lon="1.95845">
        <ele>281.39999389648</ele>
        <time>2020-07-29T09:17:48Z</time>
      </trkpt>
      <trkpt lat="44.04729" lon="1.95863">
        <ele>279.39999389648</ele>
        <time>2020-07-29T09:17:50Z</time>
      </trkpt>
      <trkpt lat="44.04734" lon="1.95871">
        <ele>278.60000610352</ele>
        <time>2020-07-29T09:17:51Z</time>
      </trkpt>
      <trkpt lat="44.0474" lon="1.95879">
        <ele>277.60000610352</ele>
        <time>2020-07-29T09:17:52Z</time>
      </trkpt>
      <trkpt lat="44.04746" lon="1.95885">
        <ele>276.79998779297</ele>
        <time>2020-07-29T09:17:53Z</time>
      </trkpt>
      <trkpt lat="44.04752" lon="1.9589">
        <ele>275.79998779297</ele>
        <time>2020-07-29T09:17:54Z</time>
      </trkpt>
      <trkpt lat="44.04766" lon="1.95897">
        <ele>274.20001220703</ele>
        <time>2020-07-29T09:17:56Z</time>
      </trkpt>
      <trkpt lat="44.04772" lon="1.95899">
        <ele>273.79998779297</ele>
        <time>2020-07-29T09:17:57Z</time>
      </trkpt>
      <trkpt lat="44.04778" lon="1.959">
        <ele>273.60000610352</ele>
        <time>2020-07-29T09:17:58Z</time>
      </trkpt>
      <trkpt lat="44.04793" lon="1.95901">
        <ele>274</ele>
        <time>2020-07-29T09:18:01Z</time>
      </trkpt>
      <trkpt lat="44.04813" lon="1.95899">
        <ele>275.39999389648</ele>
        <time>2020-07-29T09:18:06Z</time>
      </trkpt>
      <trkpt lat="44.04815" lon="1.95899">
        <ele>275.39999389648</ele>
        <time>2020-07-29T09:18:07Z</time>
      </trkpt>
      <trkpt lat="44.04821" lon="1.95896">
        <ele>276.39999389648</ele>
        <time>2020-07-29T09:18:10Z</time>
      </trkpt>
      <trkpt lat="44.04823" lon="1.95892">
        <ele>277</ele>
        <time>2020-07-29T09:18:12Z</time>
      </trkpt>
      <trkpt lat="44.04826" lon="1.95886">
        <ele>277.39999389648</ele>
        <time>2020-07-29T09:18:14Z</time>
      </trkpt>
      <trkpt lat="44.04831" lon="1.95875">
        <ele>277.20001220703</ele>
        <time>2020-07-29T09:18:17Z</time>
      </trkpt>
      <trkpt lat="44.04836" lon="1.95864">
        <ele>276.20001220703</ele>
        <time>2020-07-29T09:18:20Z</time>
      </trkpt>
      <trkpt lat="44.04844" lon="1.95843">
        <ele>275.20001220703</ele>
        <time>2020-07-29T09:18:25Z</time>
      </trkpt>
      <trkpt lat="44.04844" lon="1.9584">
        <ele>275</ele>
        <time>2020-07-29T09:18:26Z</time>
      </trkpt>
      <trkpt lat="44.04845" lon="1.95831">
        <ele>275</ele>
        <time>2020-07-29T09:18:47Z</time>
      </trkpt>
      <trkpt lat="44.04846" lon="1.95823">
        <ele>275</ele>
        <time>2020-07-29T09:18:49Z</time>
      </trkpt>
      <trkpt lat="44.04851" lon="1.95798">
        <ele>274.60000610352</ele>
        <time>2020-07-29T09:18:54Z</time>
      </trkpt>
      <trkpt lat="44.04855" lon="1.95786">
        <ele>274.20001220703</ele>
        <time>2020-07-29T09:18:56Z</time>
      </trkpt>
      <trkpt lat="44.0486" lon="1.95768">
        <ele>273.39999389648</ele>
        <time>2020-07-29T09:18:59Z</time>
      </trkpt>
      <trkpt lat="44.04863" lon="1.95762">
        <ele>273</ele>
        <time>2020-07-29T09:19:00Z</time>
      </trkpt>
      <trkpt lat="44.04869" lon="1.9575">
        <ele>271.79998779297</ele>
        <time>2020-07-29T09:19:02Z</time>
      </trkpt>
      <trkpt lat="44.04878" lon="1.9573">
        <ele>271</ele>
        <time>2020-07-29T09:19:05Z</time>
      </trkpt>
      <trkpt lat="44.04882" lon="1.95723">
        <ele>270.60000610352</ele>
        <time>2020-07-29T09:19:06Z</time>
      </trkpt>
      <trkpt lat="44.0489" lon="1.95701">
        <ele>269.20001220703</ele>
        <time>2020-07-29T09:19:09Z</time>
      </trkpt>
      <trkpt lat="44.04893" lon="1.95693">
        <ele>268.79998779297</ele>
        <time>2020-07-29T09:19:10Z</time>
      </trkpt>
      <trkpt lat="44.04896" lon="1.95677">
        <ele>268</ele>
        <time>2020-07-29T09:19:12Z</time>
      </trkpt>
      <trkpt lat="44.049" lon="1.95652">
        <ele>266.60000610352</ele>
        <time>2020-07-29T09:19:15Z</time>
      </trkpt>
      <trkpt lat="44.04902" lon="1.95634">
        <ele>266.20001220703</ele>
        <time>2020-07-29T09:19:17Z</time>
      </trkpt>
      <trkpt lat="44.04909" lon="1.95598">
        <ele>265.60000610352</ele>
        <time>2020-07-29T09:19:21Z</time>
      </trkpt>
      <trkpt lat="44.04913" lon="1.95579">
        <ele>264.79998779297</ele>
        <time>2020-07-29T09:19:23Z</time>
      </trkpt>
      <trkpt lat="44.04918" lon="1.95561">
        <ele>264.20001220703</ele>
        <time>2020-07-29T09:19:25Z</time>
      </trkpt>
      <trkpt lat="44.04927" lon="1.95524">
        <ele>263</ele>
        <time>2020-07-29T09:19:29Z</time>
      </trkpt>
      <trkpt lat="44.04932" lon="1.95497">
        <ele>261.39999389648</ele>
        <time>2020-07-29T09:19:32Z</time>
      </trkpt>
      <trkpt lat="44.04935" lon="1.9548">
        <ele>260.20001220703</ele>
        <time>2020-07-29T09:19:34Z</time>
      </trkpt>
      <trkpt lat="44.04938" lon="1.95465">
        <ele>259.39999389648</ele>
        <time>2020-07-29T09:19:36Z</time>
      </trkpt>
      <trkpt lat="44.04938" lon="1.95458">
        <ele>259</ele>
        <time>2020-07-29T09:19:37Z</time>
      </trkpt>
      <trkpt lat="44.04938" lon="1.95438">
        <ele>257.79998779297</ele>
        <time>2020-07-29T09:19:40Z</time>
      </trkpt>
      <trkpt lat="44.04936" lon="1.95424">
        <ele>256.60000610352</ele>
        <time>2020-07-29T09:19:42Z</time>
      </trkpt>
      <trkpt lat="44.04936" lon="1.95417">
        <ele>256</ele>
        <time>2020-07-29T09:19:43Z</time>
      </trkpt>
      <trkpt lat="44.04935" lon="1.95411">
        <ele>255.19999694824</ele>
        <time>2020-07-29T09:19:44Z</time>
      </trkpt>
      <trkpt lat="44.04933" lon="1.95396">
        <ele>254</ele>
        <time>2020-07-29T09:19:46Z</time>
      </trkpt>
      <trkpt lat="44.04932" lon="1.95389">
        <ele>253.60000610352</ele>
        <time>2020-07-29T09:19:47Z</time>
      </trkpt>
      <trkpt lat="44.04931" lon="1.95382">
        <ele>253.19999694824</ele>
        <time>2020-07-29T09:19:48Z</time>
      </trkpt>
      <trkpt lat="44.0493" lon="1.95374">
        <ele>252.39999389648</ele>
        <time>2020-07-29T09:19:49Z</time>
      </trkpt>
      <trkpt lat="44.04929" lon="1.95367">
        <ele>251</ele>
        <time>2020-07-29T09:19:50Z</time>
      </trkpt>
      <trkpt lat="44.04927" lon="1.95354">
        <ele>249.80000305176</ele>
        <time>2020-07-29T09:19:52Z</time>
      </trkpt>
      <trkpt lat="44.04926" lon="1.95347">
        <ele>249.19999694824</ele>
        <time>2020-07-29T09:19:53Z</time>
      </trkpt>
      <trkpt lat="44.04926" lon="1.9534">
        <ele>248.60000610352</ele>
        <time>2020-07-29T09:19:54Z</time>
      </trkpt>
      <trkpt lat="44.04925" lon="1.95326">
        <ele>247.39999389648</ele>
        <time>2020-07-29T09:19:56Z</time>
      </trkpt>
      <trkpt lat="44.04926" lon="1.95319">
        <ele>246.80000305176</ele>
        <time>2020-07-29T09:19:57Z</time>
      </trkpt>
      <trkpt lat="44.04926" lon="1.95313">
        <ele>246</ele>
        <time>2020-07-29T09:19:58Z</time>
      </trkpt>
      <trkpt lat="44.04927" lon="1.95306">
        <ele>245.39999389648</ele>
        <time>2020-07-29T09:19:59Z</time>
      </trkpt>
      <trkpt lat="44.04928" lon="1.95299">
        <ele>244.80000305176</ele>
        <time>2020-07-29T09:20:00Z</time>
      </trkpt>
      <trkpt lat="44.04929" lon="1.95292">
        <ele>244.19999694824</ele>
        <time>2020-07-29T09:20:01Z</time>
      </trkpt>
      <trkpt lat="44.04931" lon="1.95286">
        <ele>243.60000610352</ele>
        <time>2020-07-29T09:20:02Z</time>
      </trkpt>
      <trkpt lat="44.04932" lon="1.95272">
        <ele>242.19999694824</ele>
        <time>2020-07-29T09:20:04Z</time>
      </trkpt>
      <trkpt lat="44.04933" lon="1.95265">
        <ele>241.39999389648</ele>
        <time>2020-07-29T09:20:05Z</time>
      </trkpt>
      <trkpt lat="44.04934" lon="1.95259">
        <ele>240.80000305176</ele>
        <time>2020-07-29T09:20:06Z</time>
      </trkpt>
      <trkpt lat="44.04934" lon="1.95247">
        <ele>239</ele>
        <time>2020-07-29T09:20:08Z</time>
      </trkpt>
      <trkpt lat="44.04935" lon="1.95238">
        <ele>237.19999694824</ele>
        <time>2020-07-29T09:20:10Z</time>
      </trkpt>
      <trkpt lat="44.04936" lon="1.95234">
        <ele>236.19999694824</ele>
        <time>2020-07-29T09:20:11Z</time>
      </trkpt>
      <trkpt lat="44.04937" lon="1.95231">
        <ele>235.80000305176</ele>
        <time>2020-07-29T09:20:12Z</time>
      </trkpt>
      <trkpt lat="44.0494" lon="1.95222">
        <ele>235.19999694824</ele>
        <time>2020-07-29T09:20:14Z</time>
      </trkpt>
      <trkpt lat="44.04954" lon="1.95199">
        <ele>234.39999389648</ele>
        <time>2020-07-29T09:20:18Z</time>
      </trkpt>
      <trkpt lat="44.04962" lon="1.95188">
        <ele>233</ele>
        <time>2020-07-29T09:20:20Z</time>
      </trkpt>
      <trkpt lat="44.0497" lon="1.95175">
        <ele>231.39999389648</ele>
        <time>2020-07-29T09:20:22Z</time>
      </trkpt>
      <trkpt lat="44.04975" lon="1.9517">
        <ele>230.80000305176</ele>
        <time>2020-07-29T09:20:23Z</time>
      </trkpt>
      <trkpt lat="44.0498" lon="1.95166">
        <ele>230</ele>
        <time>2020-07-29T09:20:24Z</time>
      </trkpt>
      <trkpt lat="44.04992" lon="1.95158">
        <ele>228.60000610352</ele>
        <time>2020-07-29T09:20:26Z</time>
      </trkpt>
      <trkpt lat="44.05002" lon="1.95151">
        <ele>227.39999389648</ele>
        <time>2020-07-29T09:20:28Z</time>
      </trkpt>
      <trkpt lat="44.05006" lon="1.95148">
        <ele>226.80000305176</ele>
        <time>2020-07-29T09:20:29Z</time>
      </trkpt>
      <trkpt lat="44.05013" lon="1.95142">
        <ele>226</ele>
        <time>2020-07-29T09:20:31Z</time>
      </trkpt>
      <trkpt lat="44.05021" lon="1.95135">
        <ele>225.39999389648</ele>
        <time>2020-07-29T09:20:33Z</time>
      </trkpt>
      <trkpt lat="44.0503" lon="1.9513">
        <ele>225</ele>
        <time>2020-07-29T09:20:35Z</time>
      </trkpt>
      <trkpt lat="44.0504" lon="1.95124">
        <ele>224.39999389648</ele>
        <time>2020-07-29T09:20:37Z</time>
      </trkpt>
      <trkpt lat="44.05046" lon="1.95121">
        <ele>223.60000610352</ele>
        <time>2020-07-29T09:20:38Z</time>
      </trkpt>
      <trkpt lat="44.05061" lon="1.95119">
        <ele>222.39999389648</ele>
        <time>2020-07-29T09:20:41Z</time>
      </trkpt>
      <trkpt lat="44.05065" lon="1.95119">
        <ele>222.19999694824</ele>
        <time>2020-07-29T09:20:42Z</time>
      </trkpt>
      <trkpt lat="44.05079" lon="1.95115">
        <ele>222.39999389648</ele>
        <time>2020-07-29T09:20:46Z</time>
      </trkpt>
      <trkpt lat="44.05083" lon="1.95113">
        <ele>222.80000305176</ele>
        <time>2020-07-29T09:20:47Z</time>
      </trkpt>
      <trkpt lat="44.05091" lon="1.95109">
        <ele>223.39999389648</ele>
        <time>2020-07-29T09:20:49Z</time>
      </trkpt>
      <trkpt lat="44.05098" lon="1.95106">
        <ele>223.60000610352</ele>
        <time>2020-07-29T09:20:51Z</time>
      </trkpt>
      <trkpt lat="44.05109" lon="1.95097">
        <ele>223.60000610352</ele>
        <time>2020-07-29T09:20:55Z</time>
      </trkpt>
      <trkpt lat="44.05117" lon="1.95088">
        <ele>222.19999694824</ele>
        <time>2020-07-29T09:21:00Z</time>
      </trkpt>
      <trkpt lat="44.0512" lon="1.95087">
        <ele>221.80000305176</ele>
        <time>2020-07-29T09:21:01Z</time>
      </trkpt>
      <trkpt lat="44.05122" lon="1.95085">
        <ele>221</ele>
        <time>2020-07-29T09:21:02Z</time>
      </trkpt>
      <trkpt lat="44.0513" lon="1.95077">
        <ele>219.39999389648</ele>
        <time>2020-07-29T09:21:05Z</time>
      </trkpt>
      <trkpt lat="44.05137" lon="1.95072">
        <ele>218.39999389648</ele>
        <time>2020-07-29T09:21:07Z</time>
      </trkpt>
      <trkpt lat="44.05143" lon="1.95065">
        <ele>217</ele>
        <time>2020-07-29T09:21:09Z</time>
      </trkpt>
      <trkpt lat="44.05145" lon="1.95061">
        <ele>216.60000610352</ele>
        <time>2020-07-29T09:21:10Z</time>
      </trkpt>
      <trkpt lat="44.05148" lon="1.95056">
        <ele>216</ele>
        <time>2020-07-29T09:21:11Z</time>
      </trkpt>
      <trkpt lat="44.05151" lon="1.95051">
        <ele>215.19999694824</ele>
        <time>2020-07-29T09:21:12Z</time>
      </trkpt>
      <trkpt lat="44.05154" lon="1.95047">
        <ele>214.39999389648</ele>
        <time>2020-07-29T09:21:13Z</time>
      </trkpt>
      <trkpt lat="44.05156" lon="1.95043">
        <ele>213.19999694824</ele>
        <time>2020-07-29T09:21:14Z</time>
      </trkpt>
      <trkpt lat="44.05159" lon="1.95038">
        <ele>212.19999694824</ele>
        <time>2020-07-29T09:21:15Z</time>
      </trkpt>
      <trkpt lat="44.05163" lon="1.9503">
        <ele>210.39999389648</ele>
        <time>2020-07-29T09:21:17Z</time>
      </trkpt>
      <trkpt lat="44.05166" lon="1.95024">
        <ele>209.60000610352</ele>
        <time>2020-07-29T09:21:19Z</time>
      </trkpt>
      <trkpt lat="44.05166" lon="1.95023">
        <ele>209.19999694824</ele>
        <time>2020-07-29T09:21:20Z</time>
      </trkpt>
      <trkpt lat="44.05166" lon="1.95022">
        <ele>208.80000305176</ele>
        <time>2020-07-29T09:21:24Z</time>
      </trkpt>
      <trkpt lat="44.05167" lon="1.95018">
        <ele>208.80000305176</ele>
        <time>2020-07-29T09:21:25Z</time>
      </trkpt>
      <trkpt lat="44.05169" lon="1.95016">
        <ele>208.80000305176</ele>
        <time>2020-07-29T09:21:26Z</time>
      </trkpt>
      <trkpt lat="44.05175" lon="1.95009">
        <ele>208.19999694824</ele>
        <time>2020-07-29T09:21:29Z</time>
      </trkpt>
      <trkpt lat="44.05178" lon="1.95006">
        <ele>207.80000305176</ele>
        <time>2020-07-29T09:21:30Z</time>
      </trkpt>
      <trkpt lat="44.05191" lon="1.95001">
        <ele>206.80000305176</ele>
        <time>2020-07-29T09:21:34Z</time>
      </trkpt>
      <trkpt lat="44.05203" lon="1.94987">
        <ele>205.80000305176</ele>
        <time>2020-07-29T09:24:05Z</time>
      </trkpt>
      <trkpt lat="44.05205" lon="1.94984">
        <ele>205.60000610352</ele>
        <time>2020-07-29T09:24:06Z</time>
      </trkpt>
      <trkpt lat="44.05207" lon="1.94971">
        <ele>205.39999389648</ele>
        <time>2020-07-29T09:24:10Z</time>
      </trkpt>
      <trkpt lat="44.05207" lon="1.94967">
        <ele>205.39999389648</ele>
        <time>2020-07-29T09:24:11Z</time>
      </trkpt>
      <trkpt lat="44.05203" lon="1.94952">
        <ele>206.39999389648</ele>
        <time>2020-07-29T09:24:31Z</time>
      </trkpt>
      <trkpt lat="44.05203" lon="1.94956">
        <ele>206.39999389648</ele>
        <time>2020-07-29T09:24:32Z</time>
      </trkpt>
      <trkpt lat="44.05203" lon="1.94969">
        <ele>206</ele>
        <time>2020-07-29T09:24:36Z</time>
      </trkpt>
      <trkpt lat="44.05202" lon="1.94972">
        <ele>205.80000305176</ele>
        <time>2020-07-29T09:24:37Z</time>
      </trkpt>
      <trkpt lat="44.05202" lon="1.94983">
        <ele>205.39999389648</ele>
        <time>2020-07-29T09:24:41Z</time>
      </trkpt>
      <trkpt lat="44.05203" lon="1.94984">
        <ele>205.39999389648</ele>
        <time>2020-07-29T09:24:42Z</time>
      </trkpt>
      <trkpt lat="44.05214" lon="1.94984">
        <ele>205.39999389648</ele>
        <time>2020-07-29T09:24:47Z</time>
      </trkpt>
      <trkpt lat="44.05222" lon="1.94984">
        <ele>205.19999694824</ele>
        <time>2020-07-29T09:24:50Z</time>
      </trkpt>
      <trkpt lat="44.05233" lon="1.94985">
        <ele>205.19999694824</ele>
        <time>2020-07-29T09:24:54Z</time>
      </trkpt>
      <trkpt lat="44.05253" lon="1.9498">
        <ele>205.19999694824</ele>
        <time>2020-07-29T09:25:00Z</time>
      </trkpt>
      <trkpt lat="44.05274" lon="1.94974">
        <ele>204.60000610352</ele>
        <time>2020-07-29T09:25:06Z</time>
      </trkpt>
      <trkpt lat="44.05299" lon="1.94964">
        <ele>204.80000305176</ele>
        <time>2020-07-29T09:25:13Z</time>
      </trkpt>
      <trkpt lat="44.05308" lon="1.94962">
        <ele>204.60000610352</ele>
        <time>2020-07-29T09:25:15Z</time>
      </trkpt>
      <trkpt lat="44.05328" lon="1.94955">
        <ele>203.80000305176</ele>
        <time>2020-07-29T09:25:20Z</time>
      </trkpt>
      <trkpt lat="44.05336" lon="1.94953">
        <ele>203.60000610352</ele>
        <time>2020-07-29T09:25:22Z</time>
      </trkpt>
      <trkpt lat="44.05354" lon="1.9495">
        <ele>203</ele>
        <time>2020-07-29T09:25:26Z</time>
      </trkpt>
      <trkpt lat="44.05362" lon="1.94953">
        <ele>202.39999389648</ele>
        <time>2020-07-29T09:25:28Z</time>
      </trkpt>
      <trkpt lat="44.0537" lon="1.94957">
        <ele>202.39999389648</ele>
        <time>2020-07-29T09:25:31Z</time>
      </trkpt>
      <trkpt lat="44.05381" lon="1.9497">
        <ele>203.60000610352</ele>
        <time>2020-07-29T09:25:37Z</time>
      </trkpt>
      <trkpt lat="44.05394" lon="1.94979">
        <ele>204.39999389648</ele>
        <time>2020-07-29T09:25:42Z</time>
      </trkpt>
      <trkpt lat="44.05396" lon="1.94981">
        <ele>204.60000610352</ele>
        <time>2020-07-29T09:25:43Z</time>
      </trkpt>
      <trkpt lat="44.0541" lon="1.94987">
        <ele>205.19999694824</ele>
        <time>2020-07-29T09:25:48Z</time>
      </trkpt>
      <trkpt lat="44.05418" lon="1.94989">
        <ele>205.80000305176</ele>
        <time>2020-07-29T09:25:51Z</time>
      </trkpt>
      <trkpt lat="44.05425" lon="1.94993">
        <ele>206</ele>
        <time>2020-07-29T09:25:54Z</time>
      </trkpt>
      <trkpt lat="44.05442" lon="1.94998">
        <ele>205.80000305176</ele>
        <time>2020-07-29T09:25:59Z</time>
      </trkpt>
      <trkpt lat="44.0547" lon="1.95006">
        <ele>205.60000610352</ele>
        <time>2020-07-29T09:26:07Z</time>
      </trkpt>
      <trkpt lat="44.05492" lon="1.95009">
        <ele>205.60000610352</ele>
        <time>2020-07-29T09:26:13Z</time>
      </trkpt>
      <trkpt lat="44.0551" lon="1.95008">
        <ele>204.80000305176</ele>
        <time>2020-07-29T09:26:18Z</time>
      </trkpt>
      <trkpt lat="44.05514" lon="1.95008">
        <ele>204.60000610352</ele>
        <time>2020-07-29T09:26:19Z</time>
      </trkpt>
      <trkpt lat="44.05538" lon="1.95014">
        <ele>203.80000305176</ele>
        <time>2020-07-29T09:26:25Z</time>
      </trkpt>
      <trkpt lat="44.05562" lon="1.95017">
        <ele>203.60000610352</ele>
        <time>2020-07-29T09:26:30Z</time>
      </trkpt>
      <trkpt lat="44.05567" lon="1.95017">
        <ele>203.39999389648</ele>
        <time>2020-07-29T09:26:31Z</time>
      </trkpt>
      <trkpt lat="44.05577" lon="1.95018">
        <ele>202.19999694824</ele>
        <time>2020-07-29T09:26:33Z</time>
      </trkpt>
      <trkpt lat="44.05588" lon="1.9502">
        <ele>200.80000305176</ele>
        <time>2020-07-29T09:26:35Z</time>
      </trkpt>
      <trkpt lat="44.05593" lon="1.95021">
        <ele>200</ele>
        <time>2020-07-29T09:26:36Z</time>
      </trkpt>
      <trkpt lat="44.05598" lon="1.95022">
        <ele>199.39999389648</ele>
        <time>2020-07-29T09:26:37Z</time>
      </trkpt>
      <trkpt lat="44.05609" lon="1.95026">
        <ele>197.39999389648</ele>
        <time>2020-07-29T09:26:39Z</time>
      </trkpt>
      <trkpt lat="44.05619" lon="1.95032">
        <ele>196.39999389648</ele>
        <time>2020-07-29T09:26:41Z</time>
      </trkpt>
      <trkpt lat="44.05633" lon="1.95044">
        <ele>195.19999694824</ele>
        <time>2020-07-29T09:26:44Z</time>
      </trkpt>
      <trkpt lat="44.05646" lon="1.95057">
        <ele>194.39999389648</ele>
        <time>2020-07-29T09:26:47Z</time>
      </trkpt>
      <trkpt lat="44.05651" lon="1.95061">
        <ele>194</ele>
        <time>2020-07-29T09:26:48Z</time>
      </trkpt>
      <trkpt lat="44.05656" lon="1.95064">
        <ele>193.80000305176</ele>
        <time>2020-07-29T09:26:49Z</time>
      </trkpt>
      <trkpt lat="44.05669" lon="1.95068">
        <ele>192.60000610352</ele>
        <time>2020-07-29T09:26:51Z</time>
      </trkpt>
      <trkpt lat="44.05681" lon="1.9507">
        <ele>190.80000305176</ele>
        <time>2020-07-29T09:26:53Z</time>
      </trkpt>
      <trkpt lat="44.0569" lon="1.95068">
        <ele>189.80000305176</ele>
        <time>2020-07-29T09:26:55Z</time>
      </trkpt>
      <trkpt lat="44.05703" lon="1.95052">
        <ele>188.80000305176</ele>
        <time>2020-07-29T09:26:59Z</time>
      </trkpt>
      <trkpt lat="44.05705" lon="1.9505">
        <ele>188.39999389648</ele>
        <time>2020-07-29T09:27:00Z</time>
      </trkpt>
      <trkpt lat="44.0571" lon="1.95042">
        <ele>187.60000610352</ele>
        <time>2020-07-29T09:27:03Z</time>
      </trkpt>
      <trkpt lat="44.05713" lon="1.9504">
        <ele>187.39999389648</ele>
        <time>2020-07-29T09:27:04Z</time>
      </trkpt>
      <trkpt lat="44.05718" lon="1.95038">
        <ele>187.39999389648</ele>
        <time>2020-07-29T09:27:06Z</time>
      </trkpt>
      <trkpt lat="44.05721" lon="1.9504">
        <ele>187.39999389648</ele>
        <time>2020-07-29T09:27:07Z</time>
      </trkpt>
      <trkpt lat="44.05736" lon="1.95051">
        <ele>186.39999389648</ele>
        <time>2020-07-29T09:27:12Z</time>
      </trkpt>
      <trkpt lat="44.05739" lon="1.95054">
        <ele>186.19999694824</ele>
        <time>2020-07-29T09:27:13Z</time>
      </trkpt>
      <trkpt lat="44.05753" lon="1.95063">
        <ele>185.19999694824</ele>
        <time>2020-07-29T09:27:17Z</time>
      </trkpt>
      <trkpt lat="44.05766" lon="1.95073">
        <ele>184.80000305176</ele>
        <time>2020-07-29T09:27:21Z</time>
      </trkpt>
      <trkpt lat="44.0579" lon="1.95086">
        <ele>184.60000610352</ele>
        <time>2020-07-29T09:27:27Z</time>
      </trkpt>
      <trkpt lat="44.05794" lon="1.95087">
        <ele>184.39999389648</ele>
        <time>2020-07-29T09:27:28Z</time>
      </trkpt>
      <trkpt lat="44.05808" lon="1.95087">
        <ele>184.19999694824</ele>
        <time>2020-07-29T09:27:31Z</time>
      </trkpt>
      <trkpt lat="44.05822" lon="1.95084">
        <ele>184.19999694824</ele>
        <time>2020-07-29T09:27:34Z</time>
      </trkpt>
      <trkpt lat="44.05834" lon="1.9508">
        <ele>184.19999694824</ele>
        <time>2020-07-29T09:27:37Z</time>
      </trkpt>
      <trkpt lat="44.05842" lon="1.95079">
        <ele>184</ele>
        <time>2020-07-29T09:27:39Z</time>
      </trkpt>
      <trkpt lat="44.05859" lon="1.95079">
        <ele>183.80000305176</ele>
        <time>2020-07-29T09:27:43Z</time>
      </trkpt>
      <trkpt lat="44.05869" lon="1.9508">
        <ele>183.80000305176</ele>
        <time>2020-07-29T09:27:45Z</time>
      </trkpt>
      <trkpt lat="44.05875" lon="1.95081">
        <ele>183.60000610352</ele>
        <time>2020-07-29T09:27:46Z</time>
      </trkpt>
      <trkpt lat="44.05892" lon="1.95084">
        <ele>183</ele>
        <time>2020-07-29T09:27:49Z</time>
      </trkpt>
      <trkpt lat="44.05904" lon="1.95085">
        <ele>182.19999694824</ele>
        <time>2020-07-29T09:27:51Z</time>
      </trkpt>
      <trkpt lat="44.0591" lon="1.95086">
        <ele>182</ele>
        <time>2020-07-29T09:27:52Z</time>
      </trkpt>
      <trkpt lat="44.05916" lon="1.95085">
        <ele>181.80000305176</ele>
        <time>2020-07-29T09:27:53Z</time>
      </trkpt>
      <trkpt lat="44.05925" lon="1.95077">
        <ele>181.39999389648</ele>
        <time>2020-07-29T09:27:55Z</time>
      </trkpt>
      <trkpt lat="44.05931" lon="1.95066">
        <ele>181</ele>
        <time>2020-07-29T09:27:57Z</time>
      </trkpt>
      <trkpt lat="44.05933" lon="1.95061">
        <ele>180.80000305176</ele>
        <time>2020-07-29T09:27:58Z</time>
      </trkpt>
      <trkpt lat="44.05937" lon="1.95042">
        <ele>180.39999389648</ele>
        <time>2020-07-29T09:28:01Z</time>
      </trkpt>
      <trkpt lat="44.05939" lon="1.9502">
        <ele>179.60000610352</ele>
        <time>2020-07-29T09:28:04Z</time>
      </trkpt>
      <trkpt lat="44.05943" lon="1.94951">
        <ele>178.60000610352</ele>
        <time>2020-07-29T09:28:13Z</time>
      </trkpt>
      <trkpt lat="44.05943" lon="1.94944">
        <ele>178.39999389648</ele>
        <time>2020-07-29T09:28:14Z</time>
      </trkpt>
      <trkpt lat="44.05945" lon="1.9493">
        <ele>177.19999694824</ele>
        <time>2020-07-29T09:28:16Z</time>
      </trkpt>
      <trkpt lat="44.05948" lon="1.94886">
        <ele>176.60000610352</ele>
        <time>2020-07-29T09:28:22Z</time>
      </trkpt>
      <trkpt lat="44.05953" lon="1.9481">
        <ele>176.19999694824</ele>
        <time>2020-07-29T09:28:32Z</time>
      </trkpt>
      <trkpt lat="44.05957" lon="1.94767">
        <ele>175.80000305176</ele>
        <time>2020-07-29T09:28:38Z</time>
      </trkpt>
      <trkpt lat="44.05958" lon="1.94761">
        <ele>175</ele>
        <time>2020-07-29T09:28:39Z</time>
      </trkpt>
      <trkpt lat="44.05965" lon="1.94722">
        <ele>174.60000610352</ele>
        <time>2020-07-29T09:28:45Z</time>
      </trkpt>
      <trkpt lat="44.05979" lon="1.94675">
        <ele>174.80000305176</ele>
        <time>2020-07-29T09:28:53Z</time>
      </trkpt>
      <trkpt lat="44.05994" lon="1.94605">
        <ele>174</ele>
        <time>2020-07-29T09:29:05Z</time>
      </trkpt>
      <trkpt lat="44.05995" lon="1.94598">
        <ele>174</ele>
        <time>2020-07-29T09:29:06Z</time>
      </trkpt>
      <trkpt lat="44.06004" lon="1.94547">
        <ele>174.80000305176</ele>
        <time>2020-07-29T09:29:14Z</time>
      </trkpt>
      <trkpt lat="44.06015" lon="1.94502">
        <ele>174.39999389648</ele>
        <time>2020-07-29T09:29:22Z</time>
      </trkpt>
      <trkpt lat="44.06024" lon="1.94473">
        <ele>175</ele>
        <time>2020-07-29T09:29:28Z</time>
      </trkpt>
      <trkpt lat="44.06028" lon="1.94464">
        <ele>175.19999694824</ele>
        <time>2020-07-29T09:29:30Z</time>
      </trkpt>
      <trkpt lat="44.06049" lon="1.94425">
        <ele>175.39999389648</ele>
        <time>2020-07-29T09:29:39Z</time>
      </trkpt>
      <trkpt lat="44.06068" lon="1.94396">
        <ele>175.19999694824</ele>
        <time>2020-07-29T09:29:46Z</time>
      </trkpt>
      <trkpt lat="44.06096" lon="1.94351">
        <ele>175</ele>
        <time>2020-07-29T09:29:56Z</time>
      </trkpt>
      <trkpt lat="44.06124" lon="1.94308">
        <ele>175</ele>
        <time>2020-07-29T09:30:06Z</time>
      </trkpt>
      <trkpt lat="44.06146" lon="1.94276">
        <ele>174.60000610352</ele>
        <time>2020-07-29T09:30:13Z</time>
      </trkpt>
      <trkpt lat="44.06167" lon="1.94247">
        <ele>174</ele>
        <time>2020-07-29T09:30:20Z</time>
      </trkpt>
      <trkpt lat="44.0617" lon="1.94243">
        <ele>174</ele>
        <time>2020-07-29T09:30:21Z</time>
      </trkpt>
      <trkpt lat="44.06191" lon="1.94218">
        <ele>173.60000610352</ele>
        <time>2020-07-29T09:30:28Z</time>
      </trkpt>
      <trkpt lat="44.06215" lon="1.942">
        <ele>173</ele>
        <time>2020-07-29T09:30:34Z</time>
      </trkpt>
      <trkpt lat="44.06219" lon="1.94197">
        <ele>172.80000305176</ele>
        <time>2020-07-29T09:30:35Z</time>
      </trkpt>
      <trkpt lat="44.06226" lon="1.94198">
        <ele>172.60000610352</ele>
        <time>2020-07-29T09:30:37Z</time>
      </trkpt>
      <trkpt lat="44.0623" lon="1.94202">
        <ele>172.60000610352</ele>
        <time>2020-07-29T09:30:38Z</time>
      </trkpt>
      <trkpt lat="44.06237" lon="1.94223">
        <ele>172.19999694824</ele>
        <time>2020-07-29T09:30:41Z</time>
      </trkpt>
      <trkpt lat="44.06241" lon="1.9423">
        <ele>171.80000305176</ele>
        <time>2020-07-29T09:30:42Z</time>
      </trkpt>
      <trkpt lat="44.06248" lon="1.94244">
        <ele>170.39999389648</ele>
        <time>2020-07-29T09:30:44Z</time>
      </trkpt>
      <trkpt lat="44.06256" lon="1.94258">
        <ele>169</ele>
        <time>2020-07-29T09:30:46Z</time>
      </trkpt>
      <trkpt lat="44.06261" lon="1.94264">
        <ele>168.39999389648</ele>
        <time>2020-07-29T09:30:47Z</time>
      </trkpt>
      <trkpt lat="44.06269" lon="1.94277">
        <ele>168</ele>
        <time>2020-07-29T09:30:49Z</time>
      </trkpt>
      <trkpt lat="44.06281" lon="1.94303">
        <ele>167.39999389648</ele>
        <time>2020-07-29T09:30:53Z</time>
      </trkpt>
      <trkpt lat="44.06283" lon="1.9431">
        <ele>167.39999389648</ele>
        <time>2020-07-29T09:30:54Z</time>
      </trkpt>
      <trkpt lat="44.06284" lon="1.94324">
        <ele>167.39999389648</ele>
        <time>2020-07-29T09:30:56Z</time>
      </trkpt>
      <trkpt lat="44.0628" lon="1.94341">
        <ele>167.60000610352</ele>
        <time>2020-07-29T09:30:59Z</time>
      </trkpt>
      <trkpt lat="44.06279" lon="1.94347">
        <ele>167.80000305176</ele>
        <time>2020-07-29T09:31:00Z</time>
      </trkpt>
      <trkpt lat="44.06279" lon="1.94369">
        <ele>168.80000305176</ele>
        <time>2020-07-29T09:31:05Z</time>
      </trkpt>
      <trkpt lat="44.06279" lon="1.94374">
        <ele>169</ele>
        <time>2020-07-29T09:31:06Z</time>
      </trkpt>
      <trkpt lat="44.06286" lon="1.94392">
        <ele>170.19999694824</ele>
        <time>2020-07-29T09:31:12Z</time>
      </trkpt>
      <trkpt lat="44.06291" lon="1.94401">
        <ele>171.39999389648</ele>
        <time>2020-07-29T09:31:16Z</time>
      </trkpt>
      <trkpt lat="44.06292" lon="1.94407">
        <ele>172</ele>
        <time>2020-07-29T09:31:18Z</time>
      </trkpt>
      <trkpt lat="44.06296" lon="1.94414">
        <ele>172.60000610352</ele>
        <time>2020-07-29T09:31:21Z</time>
      </trkpt>
      <trkpt lat="44.06299" lon="1.94421">
        <ele>173.19999694824</ele>
        <time>2020-07-29T09:31:24Z</time>
      </trkpt>
      <trkpt lat="44.06301" lon="1.94426">
        <ele>173.80000305176</ele>
        <time>2020-07-29T09:31:26Z</time>
      </trkpt>
      <trkpt lat="44.06302" lon="1.94429">
        <ele>175</ele>
        <time>2020-07-29T09:31:28Z</time>
      </trkpt>
      <trkpt lat="44.0631" lon="1.94429">
        <ele>177.80000305176</ele>
        <time>2020-07-29T09:31:57Z</time>
      </trkpt>
      <trkpt lat="44.06317" lon="1.94421">
        <ele>177.39999389648</ele>
        <time>2020-07-29T09:32:02Z</time>
      </trkpt>
      <trkpt lat="44.0633" lon="1.94404">
        <ele>177.19999694824</ele>
        <time>2020-07-29T09:32:08Z</time>
      </trkpt>
      <trkpt lat="44.06336" lon="1.94394">
        <ele>176.39999389648</ele>
        <time>2020-07-29T09:32:10Z</time>
      </trkpt>
      <trkpt lat="44.0634" lon="1.94389">
        <ele>175.80000305176</ele>
        <time>2020-07-29T09:32:11Z</time>
      </trkpt>
      <trkpt lat="44.06345" lon="1.94384">
        <ele>175.19999694824</ele>
        <time>2020-07-29T09:32:12Z</time>
      </trkpt>
      <trkpt lat="44.0635" lon="1.94379">
        <ele>174.60000610352</ele>
        <time>2020-07-29T09:32:13Z</time>
      </trkpt>
      <trkpt lat="44.06354" lon="1.94375">
        <ele>174</ele>
        <time>2020-07-29T09:32:14Z</time>
      </trkpt>
      <trkpt lat="44.06359" lon="1.9437">
        <ele>173.39999389648</ele>
        <time>2020-07-29T09:32:15Z</time>
      </trkpt>
      <trkpt lat="44.06363" lon="1.94366">
        <ele>172.19999694824</ele>
        <time>2020-07-29T09:32:16Z</time>
      </trkpt>
      <trkpt lat="44.06375" lon="1.94353">
        <ele>171.19999694824</ele>
        <time>2020-07-29T09:32:19Z</time>
      </trkpt>
      <trkpt lat="44.06391" lon="1.94337">
        <ele>171.19999694824</ele>
        <time>2020-07-29T09:32:24Z</time>
      </trkpt>
      <trkpt lat="44.06403" lon="1.94322">
        <ele>172.19999694824</ele>
        <time>2020-07-29T09:32:29Z</time>
      </trkpt>
      <trkpt lat="44.06408" lon="1.94313">
        <ele>172.39999389648</ele>
        <time>2020-07-29T09:32:31Z</time>
      </trkpt>
      <trkpt lat="44.0643" lon="1.94272">
        <ele>171.80000305176</ele>
        <time>2020-07-29T09:32:39Z</time>
      </trkpt>
      <trkpt lat="44.06436" lon="1.94261">
        <ele>171</ele>
        <time>2020-07-29T09:32:41Z</time>
      </trkpt>
      <trkpt lat="44.06449" lon="1.94241">
        <ele>169.80000305176</ele>
        <time>2020-07-29T09:32:45Z</time>
      </trkpt>
      <trkpt lat="44.06451" lon="1.94236">
        <ele>169.60000610352</ele>
        <time>2020-07-29T09:32:46Z</time>
      </trkpt>
      <trkpt lat="44.06474" lon="1.94198">
        <ele>169.19999694824</ele>
        <time>2020-07-29T09:32:54Z</time>
      </trkpt>
      <trkpt lat="44.06485" lon="1.94182">
        <ele>169</ele>
        <time>2020-07-29T09:32:59Z</time>
      </trkpt>
      <trkpt lat="44.06496" lon="1.94162">
        <ele>170.39999389648</ele>
        <time>2020-07-29T09:33:05Z</time>
      </trkpt>
      <trkpt lat="44.06511" lon="1.94149">
        <ele>170</ele>
        <time>2020-07-29T09:33:09Z</time>
      </trkpt>
      <trkpt lat="44.06515" lon="1.94147">
        <ele>169.80000305176</ele>
        <time>2020-07-29T09:33:10Z</time>
      </trkpt>
      <trkpt lat="44.06525" lon="1.94145">
        <ele>169</ele>
        <time>2020-07-29T09:33:13Z</time>
      </trkpt>
      <trkpt lat="44.06552" lon="1.94142">
        <ele>170.60000610352</ele>
        <time>2020-07-29T09:33:22Z</time>
      </trkpt>
      <trkpt lat="44.06558" lon="1.94142">
        <ele>171</ele>
        <time>2020-07-29T09:33:24Z</time>
      </trkpt>
      <trkpt lat="44.0657" lon="1.94142">
        <ele>171.39999389648</ele>
        <time>2020-07-29T09:33:28Z</time>
      </trkpt>
      <trkpt lat="44.06592" lon="1.94144">
        <ele>172</ele>
        <time>2020-07-29T09:33:35Z</time>
      </trkpt>
      <trkpt lat="44.06618" lon="1.94143">
        <ele>172.60000610352</ele>
        <time>2020-07-29T09:33:43Z</time>
      </trkpt>
      <trkpt lat="44.06643" lon="1.94139">
        <ele>171</ele>
        <time>2020-07-29T09:33:49Z</time>
      </trkpt>
      <trkpt lat="44.06646" lon="1.94139">
        <ele>170.80000305176</ele>
        <time>2020-07-29T09:33:50Z</time>
      </trkpt>
      <trkpt lat="44.06652" lon="1.94134">
        <ele>170.39999389648</ele>
        <time>2020-07-29T09:33:54Z</time>
      </trkpt>
      <trkpt lat="44.0667" lon="1.9413">
        <ele>169.80000305176</ele>
        <time>2020-07-29T09:33:59Z</time>
      </trkpt>
      <trkpt lat="44.06686" lon="1.94128">
        <ele>168.19999694824</ele>
        <time>2020-07-29T09:34:02Z</time>
      </trkpt>
      <trkpt lat="44.06696" lon="1.94127">
        <ele>166.80000305176</ele>
        <time>2020-07-29T09:34:04Z</time>
      </trkpt>
      <trkpt lat="44.06701" lon="1.94126">
        <ele>166.19999694824</ele>
        <time>2020-07-29T09:34:05Z</time>
      </trkpt>
      <trkpt lat="44.06713" lon="1.94122">
        <ele>165.39999389648</ele>
        <time>2020-07-29T09:34:07Z</time>
      </trkpt>
      <trkpt lat="44.06726" lon="1.94118">
        <ele>164.39999389648</ele>
        <time>2020-07-29T09:34:09Z</time>
      </trkpt>
      <trkpt lat="44.06733" lon="1.94116">
        <ele>163.80000305176</ele>
        <time>2020-07-29T09:34:10Z</time>
      </trkpt>
      <trkpt lat="44.0674" lon="1.94113">
        <ele>163.19999694824</ele>
        <time>2020-07-29T09:34:11Z</time>
      </trkpt>
      <trkpt lat="44.06756" lon="1.94105">
        <ele>162</ele>
        <time>2020-07-29T09:34:14Z</time>
      </trkpt>
      <trkpt lat="44.06759" lon="1.94103">
        <ele>161.80000305176</ele>
        <time>2020-07-29T09:34:15Z</time>
      </trkpt>
      <trkpt lat="44.06764" lon="1.94097">
        <ele>162.19999694824</ele>
        <time>2020-07-29T09:34:18Z</time>
      </trkpt>
      <trkpt lat="44.06765" lon="1.94096">
        <ele>162.39999389648</ele>
        <time>2020-07-29T09:34:19Z</time>
      </trkpt>
    </trkseg>
  </trk>
</gpx>